[[{"header":{"parameterUnit":"m.s-1","parameterCategory":1,"la1":31.0,"la2":29.5877,"lo1":-88.7671,"lo2":-86.6584,"dy":0.0162,"dx":0.0185,"nx":115,"ny":88,"refTime":"2024-03-01T06:00:00:Z","depth":0,"parameterNumber":2,"parameterNumberName":"U-component_of_WINDS"},"data":[0.0,0.0,0.0,0.0,0.0,0.0,0.0,0.0,0.0,0.0,0.0,0.0,0.0,0.0,0.0,0.0,0.0,0.0,0.0,0.0,0.0,0.0,0.0,0.0,0.0,0.0,0.0,0.0,0.0,0.0,0.0,0.0,0.0,0.0,0.0,0.0,0.0,0.0,0.0,0.0,0.0,0.0,0.0,0.0,0.0,0.0,0.0,0.0,0.0,0.0,0.0,0.0,0.0,0.0,0.0,0.0,0.0,0.0,0.0,0.0,0.0,0.0,0.0,0.0,0.0,0.0,0.0,0.0,0.0,0.0,0.0,0.0,0.0,0.0,0.0,0.0,0.0,0.0,0.0,0.0,0.0,0.0,0.0,0.0,0.0,0.0,0.0,0.0,0.0,0.0,0.0,0.0,0.0,0.0,0.0,0.0,0.0,0.0,0.0,0.0,0.0,0.0,0.0,0.0,0.0,0.0,0.0,0.0,0.0,0.0,0.0,0.0,0.0,0.0,0.0,0.0,0.0,0.0,0.0,0.0,0.0,0.0,0.0,0.0,0.0,0.0,0.0,0.0,0.0,0.0,0.0,0.0,0.0,0.0,0.0,0.0,0.0,0.0,0.0,0.0,0.0,0.0,0.0,0.0,0.0,0.0,0.0,0.0,0.0,0.0,0.0,0.0,0.0,0.0,0.0,0.0,0.0,0.0,0.0,0.0,0.0,0.0,0.0,0.0,0.0,0.0,0.0,0.0,0.0,0.0,0.0,0.0,0.0,0.0,0.0,0.0,0.0,0.0,0.0,0.0,0.0,0.0,0.0,0.0,0.0,0.0,0.0,0.0,0.0,0.0,0.0,0.0,0.0,0.0,0.0,0.0,0.0,0.0,0.0,0.0,0.0,0.0,0.0,0.0,0.0,0.0,0.0,0.0,0.0,0.0,0.0,0.0,0.0,0.0,0.0,0.0,0.0,0.0,0.0,0.0,0.0,0.0,0.0,0.0,0.0,0.0,0.0,0.0,0.0,0.0,0.0,0.0,0.0,0.0,0.0,0.0,0.0,0.0,0.0,0.0,0.0,0.0,0.0,0.0,0.0,0.0,0.0,0.0,0.0,0.0,0.0,0.0,0.0,0.0,0.0,0.0,0.0,0.0,0.0,0.0,0.0,0.0,0.0,0.0,0.0,0.0,0.0,0.0,0.0,0.0,0.0,0.0,0.0,0.0,0.0,0.0,0.0,0.0,0.0,0.0,0.0,0.0,0.0,0.0,0.0,0.0,0.0,0.0,0.0,0.0,0.0,0.0,0.0,0.0,0.0,0.0,0.0,0.0,0.0,0.0,0.0,0.0,0.0,0.0,0.0,0.0,0.0,0.0,0.0,0.0,0.0,0.0,0.0,0.0,0.0,0.0,0.0,0.0,0.0,0.0,0.0,0.0,0.0,0.0,0.0,0.0,0.0,0.0,0.0,0.0,0.0,0.0,0.0,0.0,0.0,0.0,0.0,0.0,0.0,0.0,0.0,0.0,0.0,0.0,0.0,0.0,0.0,0.0,0.0,0.0,0.0,0.0,0.0,0.0,0.0,0.0,0.0,0.0,0.0,0.0,0.0,0.0,0.0,0.0,0.0,0.0,0.0,0.0,0.0,0.0,0.0,0.0,0.0,0.0,0.0,0.0,0.0,0.0,0.0,0.0,0.0,0.0,0.0,0.0,0.0,0.0,0.0,0.0,0.0,0.0,0.0,0.0,0.0,0.0,0.0,0.0,0.0,0.0,0.0,0.0,0.0,0.0,0.0,0.0,0.0,0.0,0.0,0.0,0.0,0.0,0.0,0.0,0.0,0.0,0.0,0.0,0.0,0.0,0.0,0.0,0.0,0.0,0.0,0.0,0.0,0.0,0.0,0.0,0.0,0.0,0.0,0.0,0.0,0.0,0.0,0.0,0.0,0.0,0.0,0.0,0.0,0.0,0.0,0.0,0.0,0.0,0.0,0.0,0.0,0.0,0.0,0.0,0.0,0.0,0.0,0.0,0.0,0.0,0.0,0.0,0.0,0.0,0.0,0.0,0.0,0.0,0.0,0.0,0.0,0.0,0.0,0.0,0.0,0.0,0.0,0.0,0.0,0.0,0.0,0.0,0.0,0.0,0.0,0.0,0.0,0.0,0.0,0.0,0.0,0.0,0.0,0.0,0.0,0.0,0.0,0.0,0.0,0.0,0.0,0.0,0.0,0.0,0.0,0.0,0.0,0.0,0.0,0.0,0.0,0.0,0.0,0.0,0.0,0.0,0.0,0.0,0.0,0.0,0.0,0.0,0.0,0.0,0.0,0.0,0.0,0.0,0.0,0.0,0.0,0.0,0.0,0.0,0.0,0.0,0.0,0.0,0.0,0.0,0.0,0.0,0.0,0.0,0.0,0.0,0.0,0.0,0.0,0.0,0.0,0.0,0.0,0.0,0.0,0.0,0.0,0.0,0.0,0.0,0.0,0.0,0.0,0.0,0.0,0.0,0.0,0.0,0.0,0.0,0.0,0.0,0.0,0.0,0.0,0.0,0.0,0.0,0.0,0.0,0.0,0.0,0.0,0.0,0.0,0.0,0.0,0.0,0.0,0.0,0.0,0.0,0.0,0.0,0.0,0.0,0.0,0.0,0.0,0.0,0.0,0.0,0.0,0.0,0.0,0.0,0.0,0.0,0.0,0.0,0.0,0.0,0.0,0.0,0.0,0.0,0.0,0.0,0.0,0.0,0.0,0.0,0.0,0.0,0.0,0.0,0.0,0.0,0.0,0.0,0.0,0.0,0.0,0.0,0.0,0.0,0.0,0.0,0.0,0.0,0.0,0.0,0.0,0.0,0.0,0.0,0.0,0.0,0.0,0.0,0.0,0.0,0.0,0.0,0.0,0.0,0.0,0.0,0.0,0.0,0.0,0.0,0.0,0.0,0.0,0.0,0.0,0.0,0.0,0.0,0.0,0.0,0.0,0.0,0.0,0.0,0.0,0.0,0.0,0.0,0.0,0.0,0.0,0.0,0.0,0.0,0.0,0.0,0.0,0.0,0.0,0.0,0.0,0.0,0.0,0.0,0.0,0.0,0.0,0.0,0.0,0.0,0.0,0.0,0.0,0.0,0.0,0.0,0.0,0.0,0.0,0.0,0.0,0.0,0.0,0.0,0.0,0.0,0.0,0.0,0.0,0.0,0.0,0.0,0.0,0.0,0.0,0.0,0.0,0.0,0.0,0.0,0.0,0.0,0.0,0.0,0.0,0.0,0.0,0.0,0.0,0.0,0.0,0.0,0.0,0.0,0.0,0.0,0.0,0.0,0.0,0.0,0.0,0.0,0.0,0.0,0.0,0.0,0.0,0.0,0.0,0.0,0.0,0.0,0.0,0.0,0.0,0.0,0.0,0.0,0.0,0.0,0.0,0.0,0.0,0.0,0.0,0.0,0.0,0.0,0.0,0.0,0.0,0.0,0.0,0.0,0.0,0.0,0.0,0.0,0.0,0.0,0.0,0.0,0.0,0.0,0.0,0.0,0.0,0.0,0.0,0.0,0.0,0.0,0.0,0.0,0.0,0.0,0.0,0.0,0.0,0.0,0.0,0.0,0.0,0.0,0.0,0.0,0.0,0.0,0.0,0.0,0.0,0.0,0.0,0.0,0.0,0.0,0.0,0.0,0.0,0.0,0.0,0.0,0.0,0.0,0.0,0.0,0.0,0.0,0.0,0.0,0.0,0.0,0.0,0.0,0.0,0.0,0.0,0.0,0.0,0.0,0.0,0.0,0.0,0.0,0.0,0.0,0.0,0.0,0.0,0.0,0.0,0.0,0.0,0.0,0.0,0.0,0.0,0.0,0.0,0.0,0.0,0.0,0.0,0.0,0.0,0.0,0.0,0.0,0.0,0.0,0.0,0.0,0.0,0.0,0.0,0.0,0.0,0.0,0.0,0.0,0.0,0.0,0.0,0.0,0.0,0.0,0.0,0.0,0.0,0.0,0.0,0.0,0.0,0.0,0.0,0.0,0.0,0.0,0.0,0.0,0.0,0.0,0.0,0.0,0.0,0.0,0.0,0.0,0.0,0.0,0.0,0.0,0.0,0.0,0.0,0.0,0.0,0.0,0.0,0.0,0.0,0.0,0.0,0.0,0.0,0.0,0.0,0.0,0.0,0.0,0.0,0.0,0.0,0.0,0.0,0.0,0.0,0.0,0.0,0.0,0.0,0.0,0.0,0.0,0.0,0.0,0.0,0.0,0.0,0.0,0.0,0.0,0.0,0.0,0.0,0.0,-2.3941,0.0,0.0,0.0,0.0,0.0,0.0,0.0,0.0,0.0,0.0,0.0,0.0,0.0,0.0,0.0,0.0,0.0,0.0,0.0,0.0,0.0,0.0,0.0,0.0,0.0,0.0,0.0,0.0,0.0,0.0,0.0,0.0,0.0,0.0,0.0,0.0,0.0,0.0,0.0,0.0,0.0,0.0,0.0,0.0,0.0,0.0,0.0,0.0,0.0,0.0,0.0,0.0,0.0,0.0,0.0,0.0,0.0,0.0,0.0,0.0,0.0,0.0,0.0,0.0,0.0,0.0,0.0,0.0,0.0,0.0,0.0,0.0,0.0,0.0,0.0,0.0,0.0,0.0,0.0,0.0,0.0,0.0,0.0,0.0,0.0,0.0,0.0,0.0,0.0,0.0,0.0,0.0,0.0,0.0,0.0,0.0,0.0,0.0,0.0,0.0,0.0,0.0,0.0,0.0,0.0,0.0,0.0,0.0,0.0,0.0,-2.5946,-2.5611,-2.5134,-2.4732,-2.4424,0.0,0.0,0.0,0.0,0.0,0.0,0.0,0.0,0.0,0.0,0.0,0.0,0.0,0.0,0.0,0.0,0.0,0.0,0.0,0.0,0.0,0.0,0.0,0.0,0.0,0.0,0.0,0.0,0.0,0.0,0.0,0.0,0.0,0.0,0.0,0.0,0.0,0.0,0.0,0.0,0.0,0.0,0.0,0.0,0.0,0.0,0.0,0.0,0.0,0.0,0.0,0.0,0.0,0.0,0.0,0.0,0.0,0.0,0.0,0.0,0.0,0.0,0.0,0.0,0.0,0.0,0.0,0.0,0.0,0.0,0.0,0.0,0.0,0.0,0.0,0.0,0.0,0.0,0.0,0.0,0.0,0.0,0.0,0.0,0.0,0.0,0.0,0.0,0.0,0.0,0.0,0.0,0.0,0.0,0.0,0.0,0.0,0.0,0.0,0.0,0.0,0.0,0.0,0.0,0.0,0.0,0.0,0.0,0.0,0.0,0.0,0.0,-2.5661,-2.536,-2.4825,0.0,0.0,0.0,0.0,0.0,0.0,0.0,0.0,0.0,0.0,0.0,0.0,0.0,0.0,0.0,0.0,0.0,0.0,0.0,0.0,0.0,0.0,0.0,0.0,0.0,0.0,0.0,0.0,0.0,0.0,0.0,0.0,0.0,0.0,0.0,0.0,0.0,0.0,0.0,0.0,0.0,0.0,0.0,0.0,0.0,0.0,0.0,0.0,0.0,0.0,0.0,0.0,0.0,0.0,0.0,0.0,0.0,0.0,0.0,0.0,0.0,0.0,0.0,0.0,0.0,0.0,0.0,0.0,0.0,0.0,0.0,0.0,0.0,0.0,0.0,0.0,0.0,0.0,0.0,0.0,0.0,0.0,0.0,0.0,0.0,0.0,0.0,0.0,0.0,0.0,0.0,0.0,0.0,0.0,0.0,0.0,0.0,0.0,0.0,0.0,0.0,0.0,0.0,0.0,0.0,0.0,0.0,0.0,0.0,0.0,-2.6474,-2.6424,-2.5862,0.0,-2.485,0.0,0.0,0.0,0.0,0.0,0.0,0.0,0.0,0.0,0.0,0.0,0.0,0.0,0.0,0.0,0.0,0.0,0.0,0.0,0.0,0.0,0.0,0.0,0.0,0.0,0.0,0.0,0.0,0.0,0.0,0.0,0.0,0.0,0.0,0.0,0.0,0.0,0.0,0.0,0.0,0.0,0.0,0.0,0.0,0.0,0.0,0.0,0.0,0.0,0.0,0.0,0.0,0.0,0.0,0.0,0.0,0.0,0.0,0.0,0.0,0.0,0.0,0.0,0.0,0.0,0.0,0.0,0.0,0.0,0.0,0.0,0.0,0.0,0.0,0.0,0.0,0.0,0.0,0.0,0.0,0.0,0.0,0.0,0.0,0.0,0.0,0.0,0.0,0.0,0.0,0.0,0.0,0.0,0.0,0.0,0.0,0.0,0.0,0.0,0.0,0.0,0.0,0.0,0.0,0.0,0.0,0.0,0.0,0.0,0.0,-2.6499,-2.6499,-2.6273,-2.5896,0.0,0.0,0.0,0.0,0.0,0.0,0.0,0.0,0.0,0.0,0.0,0.0,0.0,0.0,0.0,0.0,0.0,0.0,0.0,0.0,0.0,0.0,0.0,0.0,0.0,0.0,0.0,0.0,0.0,0.0,0.0,0.0,0.0,0.0,0.0,0.0,0.0,0.0,0.0,0.0,0.0,0.0,0.0,0.0,0.0,0.0,0.0,0.0,0.0,0.0,0.0,0.0,0.0,0.0,0.0,0.0,0.0,0.0,0.0,0.0,0.0,0.0,0.0,0.0,0.0,0.0,0.0,0.0,0.0,0.0,0.0,0.0,0.0,0.0,0.0,0.0,0.0,0.0,0.0,0.0,0.0,0.0,0.0,0.0,0.0,0.0,0.0,0.0,0.0,0.0,0.0,0.0,0.0,0.0,0.0,0.0,0.0,0.0,0.0,0.0,0.0,0.0,0.0,0.0,0.0,0.0,0.0,0.0,0.0,0.0,-2.6499,-2.6499,-2.6499,-2.6499,-2.6298,-2.5837,0.0,0.0,0.0,0.0,0.0,0.0,0.0,0.0,0.0,0.0,0.0,0.0,0.0,0.0,0.0,0.0,0.0,0.0,0.0,0.0,0.0,0.0,0.0,0.0,0.0,0.0,0.0,0.0,0.0,0.0,0.0,0.0,0.0,0.0,0.0,0.0,0.0,0.0,0.0,0.0,0.0,0.0,0.0,0.0,0.0,0.0,0.0,0.0,0.0,0.0,0.0,0.0,0.0,0.0,0.0,0.0,0.0,0.0,0.0,0.0,0.0,0.0,0.0,0.0,0.0,0.0,0.0,0.0,0.0,0.0,0.0,0.0,0.0,0.0,0.0,0.0,0.0,0.0,0.0,0.0,0.0,0.0,0.0,0.0,0.0,0.0,0.0,0.0,0.0,0.0,0.0,0.0,0.0,0.0,0.0,0.0,0.0,0.0,0.0,0.0,0.0,0.0,0.0,0.0,0.0,0.0,0.0,0.0,-2.6499,-2.6499,-2.6499,-2.6499,-2.6499,-2.6474,0.0,0.0,0.0,0.0,0.0,0.0,0.0,0.0,0.0,0.0,0.0,0.0,0.0,0.0,0.0,0.0,0.0,0.0,0.0,0.0,0.0,0.0,0.0,0.0,0.0,0.0,0.0,0.0,0.0,0.0,0.0,0.0,0.0,0.0,0.0,0.0,0.0,0.0,0.0,0.0,0.0,0.0,0.0,0.0,0.0,0.0,0.0,0.0,0.0,0.0,0.0,0.0,0.0,0.0,0.0,0.0,0.0,0.0,0.0,0.0,0.0,0.0,0.0,0.0,0.0,0.0,0.0,0.0,0.0,0.0,0.0,0.0,0.0,0.0,0.0,0.0,0.0,0.0,0.0,0.0,0.0,0.0,0.0,0.0,0.0,0.0,0.0,0.0,0.0,0.0,0.0,0.0,0.0,0.0,0.0,0.0,0.0,0.0,0.0,0.0,0.0,0.0,0.0,0.0,0.0,0.0,0.0,0.0,0.0,-2.6499,-2.6851,-2.7027,-2.7027,-2.7027,-2.6851,0.0,0.0,0.0,0.0,0.0,0.0,0.0,0.0,0.0,0.0,0.0,0.0,0.0,0.0,0.0,0.0,0.0,0.0,0.0,0.0,0.0,0.0,0.0,0.0,0.0,0.0,0.0,0.0,0.0,0.0,0.0,0.0,0.0,0.0,0.0,0.0,0.0,0.0,0.0,0.0,0.0,0.0,0.0,0.0,0.0,0.0,0.0,0.0,0.0,0.0,0.0,0.0,0.0,0.0,0.0,0.0,0.0,0.0,0.0,0.0,0.0,0.0,0.0,0.0,0.0,0.0,0.0,0.0,0.0,0.0,0.0,0.0,0.0,0.0,0.0,0.0,0.0,0.0,0.0,0.0,0.0,0.0,0.0,0.0,0.0,0.0,0.0,0.0,0.0,0.0,0.0,0.0,0.0,0.0,0.0,0.0,0.0,0.0,0.0,0.0,0.0,0.0,0.0,0.0,0.0,0.0,0.0,0.0,0.0,-2.7027,0.0,-2.758,-2.7544,-2.758,-2.7293,0.0,0.0,0.0,0.0,0.0,0.0,0.0,0.0,0.0,0.0,0.0,0.0,0.0,0.0,0.0,0.0,0.0,0.0,0.0,0.0,0.0,0.0,0.0,0.0,0.0,0.0,0.0,0.0,0.0,0.0,0.0,0.0,0.0,0.0,0.0,0.0,0.0,0.0,0.0,0.0,0.0,0.0,0.0,0.0,0.0,0.0,0.0,0.0,0.0,0.0,0.0,0.0,0.0,0.0,0.0,0.0,0.0,0.0,0.0,0.0,0.0,0.0,0.0,0.0,0.0,0.0,0.0,0.0,0.0,0.0,0.0,0.0,0.0,0.0,0.0,0.0,0.0,0.0,0.0,0.0,0.0,0.0,0.0,0.0,0.0,0.0,0.0,0.0,0.0,0.0,0.0,0.0,0.0,0.0,0.0,0.0,0.0,0.0,0.0,0.0,0.0,0.0,0.0,0.0,0.0,0.0,0.0,0.0,-2.7595,-2.8097,-2.8147,-2.8197,-2.8122,-2.8147,-2.7871,0.0,0.0,0.0,0.0,0.0,0.0,0.0,0.0,0.0,0.0,0.0,0.0,0.0,0.0,0.0,0.0,0.0,0.0,0.0,0.0,0.0,0.0,0.0,0.0,0.0,0.0,0.0,0.0,0.0,0.0,0.0,0.0,0.0,0.0,0.0,0.0,0.0,0.0,0.0,0.0,0.0,0.0,0.0,0.0,0.0,0.0,0.0,0.0,0.0,0.0,0.0,0.0,0.0,0.0,0.0,0.0,0.0,0.0,0.0,0.0,0.0,0.0,0.0,0.0,0.0,0.0,0.0,0.0,0.0,0.0,0.0,0.0,0.0,0.0,0.0,0.0,0.0,0.0,0.0,0.0,0.0,0.0,0.0,0.0,0.0,0.0,0.0,0.0,0.0,0.0,0.0,0.0,0.0,0.0,0.0,0.0,0.0,0.0,0.0,0.0,0.0,0.0,0.0,0.0,0.0,0.0,0.0,0.0,0.0,-2.9277,-2.9654,-2.9854,-2.9829,-2.9453,-2.8825,0.0,0.0,0.0,0.0,0.0,0.0,0.0,0.0,0.0,0.0,0.0,0.0,0.0,0.0,0.0,0.0,0.0,0.0,0.0,0.0,0.0,0.0,0.0,0.0,0.0,0.0,0.0,0.0,0.0,0.0,0.0,0.0,0.0,0.0,0.0,0.0,0.0,0.0,0.0,0.0,0.0,0.0,0.0,0.0,0.0,0.0,0.0,0.0,0.0,0.0,0.0,0.0,0.0,0.0,0.0,0.0,0.0,0.0,0.0,0.0,0.0,0.0,0.0,0.0,0.0,0.0,0.0,0.0,0.0,0.0,0.0,0.0,0.0,0.0,0.0,0.0,0.0,0.0,0.0,0.0,0.0,0.0,0.0,0.0,0.0,0.0,0.0,0.0,0.0,0.0,0.0,0.0,0.0,0.0,0.0,0.0,0.0,0.0,0.0,0.0,0.0,0.0,0.0,0.0,0.0,0.0,0.0,0.0,0.0,-3.1964,-3.2022,-3.2098,-3.2139,-3.1612,-3.0608,-2.9101,0.0,0.0,0.0,0.0,0.0,0.0,0.0,0.0,0.0,0.0,0.0,0.0,0.0,0.0,0.0,0.0,0.0,0.0,0.0,0.0,0.0,0.0,0.0,0.0,0.0,0.0,0.0,0.0,0.0,0.0,0.0,0.0,0.0,0.0,0.0,0.0,0.0,0.0,0.0,0.0,0.0,0.0,0.0,0.0,0.0,0.0,0.0,0.0,0.0,0.0,0.0,0.0,0.0,0.0,0.0,0.0,0.0,0.0,0.0,0.0,0.0,0.0,0.0,0.0,0.0,0.0,0.0,0.0,0.0,0.0,0.0,0.0,0.0,0.0,0.0,0.0,0.0,0.0,0.0,0.0,0.0,0.0,0.0,0.0,0.0,0.0,0.0,0.0,0.0,0.0,0.0,0.0,0.0,0.0,0.0,0.0,0.0,0.0,0.0,0.0,0.0,0.0,0.0,0.0,0.0,0.0,0.0,0.0,-3.5658,-3.5257,-3.5006,-3.4901,-3.4299,-3.2993,0.0,0.0,0.0,0.0,0.0,0.0,0.0,0.0,0.0,0.0,0.0,0.0,0.0,0.0,0.0,0.0,0.0,0.0,0.0,0.0,0.0,0.0,0.0,0.0,0.0,0.0,0.0,0.0,0.0,0.0,0.0,0.0,0.0,0.0,0.0,0.0,0.0,0.0,0.0,0.0,0.0,0.0,0.0,0.0,0.0,0.0,0.0,0.0,0.0,0.0,0.0,0.0,0.0,0.0,0.0,0.0,0.0,0.0,0.0,0.0,0.0,0.0,0.0,0.0,0.0,0.0,0.0,0.0,0.0,0.0,0.0,0.0,0.0,0.0,0.0,0.0,0.0,0.0,0.0,0.0,0.0,0.0,0.0,0.0,0.0,0.0,0.0,0.0,0.0,0.0,0.0,0.0,0.0,0.0,0.0,0.0,0.0,0.0,0.0,0.0,0.0,0.0,0.0,0.0,0.0,0.0,0.0,0.0,0.0,-3.7939,-3.9044,-3.8768,-3.7186,-3.5784,-3.4274,0.0,0.0,0.0,0.0,0.0,0.0,0.0,0.0,0.0,0.0,0.0,0.0,0.0,0.0,0.0,0.0,0.0,0.0,0.0,0.0,0.0,0.0,0.0,0.0,0.0,0.0,0.0,0.0,0.0,0.0,0.0,0.0,0.0,0.0,0.0,0.0,0.0,0.0,0.0,0.0,0.0,0.0,0.0,0.0,0.0,0.0,0.0,0.0,0.0,0.0,0.0,0.0,0.0,0.0,0.0,0.0,0.0,0.0,0.0,0.0,0.0,0.0,0.0,0.0,0.0,0.0,0.0,0.0,0.0,0.0,0.0,0.0,0.0,0.0,0.0,0.0,0.0,0.0,0.0,0.0,0.0,0.0,0.0,0.0,0.0,0.0,0.0,0.0,0.0,0.0,0.0,0.0,0.0,0.0,0.0,0.0,0.0,0.0,0.0,0.0,0.0,0.0,0.0,0.0,0.0,0.0,0.0,0.0,-3.7538,-3.9521,-4.1178,-4.1404,-4.0124,-3.804,-3.6056,0.0,0.0,0.0,0.0,0.0,0.0,0.0,0.0,0.0,0.0,0.0,0.0,0.0,0.0,0.0,0.0,0.0,0.0,0.0,0.0,0.0,0.0,0.0,0.0,0.0,0.0,0.0,0.0,0.0,0.0,0.0,0.0,0.0,0.0,0.0,0.0,0.0,0.0,0.0,0.0,0.0,0.0,0.0,0.0,0.0,0.0,0.0,0.0,0.0,0.0,0.0,0.0,0.0,0.0,0.0,0.0,0.0,0.0,0.0,0.0,0.0,0.0,0.0,0.0,0.0,0.0,0.0,0.0,0.0,0.0,0.0,0.0,0.0,0.0,0.0,0.0,0.0,0.0,0.0,0.0,0.0,0.0,0.0,0.0,0.0,0.0,0.0,0.0,0.0,0.0,0.0,0.0,0.0,0.0,0.0,0.0,0.0,0.0,0.0,0.0,0.0,0.0,0.0,0.0,0.0,0.0,0.0,0.0,-3.8944,-4.0676,-4.2183,-4.3011,-4.2986,-4.0453,-3.7939,0.0,0.0,0.0,0.0,0.0,0.0,0.0,0.0,0.0,0.0,0.0,0.0,0.0,0.0,0.0,0.0,0.0,0.0,0.0,0.0,0.0,0.0,0.0,0.0,0.0,0.0,0.0,0.0,0.0,0.0,0.0,0.0,0.0,0.0,0.0,0.0,0.0,0.0,0.0,0.0,0.0,0.0,0.0,0.0,0.0,0.0,0.0,0.0,0.0,0.0,0.0,0.0,0.0,0.0,0.0,0.0,0.0,0.0,0.0,0.0,0.0,0.0,0.0,0.0,0.0,0.0,0.0,0.0,0.0,0.0,0.0,0.0,0.0,0.0,0.0,0.0,0.0,0.0,0.0,0.0,0.0,0.0,0.0,0.0,0.0,0.0,0.0,0.0,0.0,0.0,0.0,0.0,0.0,0.0,0.0,0.0,0.0,0.0,0.0,0.0,0.0,0.0,0.0,0.0,0.0,0.0,0.0,0.0,-3.9697,-4.1785,-4.264,-4.3187,-4.3614,-4.0953,-3.8668,0.0,0.0,0.0,0.0,0.0,0.0,0.0,0.0,0.0,0.0,0.0,0.0,0.0,0.0,0.0,0.0,0.0,0.0,0.0,0.0,0.0,0.0,0.0,0.0,0.0,0.0,0.0,0.0,0.0,0.0,0.0,0.0,0.0,0.0,0.0,0.0,0.0,0.0,0.0,0.0,0.0,0.0,0.0,0.0,0.0,0.0,0.0,0.0,-3.3425,0.0,0.0,0.0,0.0,0.0,0.0,0.0,0.0,0.0,0.0,0.0,0.0,0.0,0.0,0.0,0.0,0.0,0.0,0.0,0.0,0.0,0.0,0.0,0.0,0.0,0.0,0.0,0.0,0.0,0.0,0.0,0.0,0.0,0.0,0.0,0.0,0.0,0.0,0.0,0.0,0.0,0.0,0.0,0.0,0.0,0.0,0.0,0.0,0.0,0.0,0.0,0.0,0.0,0.0,0.0,0.0,0.0,0.0,0.0,-4.045,-4.2861,-4.374,-4.4166,-4.4116,-4.2258,-4.0224,0.0,0.0,0.0,0.0,0.0,0.0,0.0,0.0,0.0,0.0,0.0,0.0,0.0,0.0,0.0,0.0,0.0,0.0,0.0,0.0,0.0,0.0,0.0,0.0,0.0,0.0,0.0,0.0,0.0,0.0,0.0,0.0,0.0,0.0,0.0,0.0,0.0,0.0,0.0,0.0,0.0,0.0,0.0,0.0,0.0,0.0,0.0,0.0,0.0,0.0,0.0,0.0,0.0,0.0,0.0,0.0,0.0,0.0,0.0,0.0,0.0,0.0,0.0,0.0,0.0,0.0,0.0,0.0,0.0,0.0,0.0,0.0,0.0,0.0,0.0,0.0,0.0,0.0,0.0,0.0,0.0,0.0,0.0,0.0,0.0,0.0,0.0,0.0,0.0,0.0,0.0,0.0,0.0,0.0,0.0,0.0,0.0,0.0,0.0,0.0,0.0,0.0,0.0,0.0,0.0,0.0,0.0,-3.9145,-4.1279,-4.394,-4.492,-4.5121,-4.4618,-4.3564,-4.1731,-3.912,0.0,0.0,0.0,0.0,0.0,0.0,0.0,0.0,0.0,0.0,0.0,0.0,0.0,0.0,0.0,0.0,0.0,0.0,0.0,0.0,0.0,0.0,0.0,0.0,0.0,0.0,0.0,0.0,0.0,0.0,0.0,0.0,0.0,0.0,0.0,0.0,0.0,0.0,-2.7162,-3.0828,0.0,0.0,0.0,0.0,0.0,0.0,0.0,0.0,-3.7658,0.0,0.0,0.0,0.0,0.0,0.0,0.0,0.0,0.0,0.0,0.0,0.0,0.0,0.0,0.0,0.0,0.0,0.0,0.0,0.0,0.0,0.0,0.0,0.0,0.0,0.0,0.0,0.0,0.0,0.0,0.0,0.0,0.0,0.0,0.0,0.0,0.0,0.0,0.0,0.0,0.0,0.0,0.0,0.0,0.0,0.0,0.0,0.0,0.0,0.0,0.0,0.0,0.0,0.0,0.0,0.0,-3.922,-4.0475,-4.2434,-4.5121,-4.492,-4.4719,-4.4593,-4.3564,-4.1907,-3.9597,0.0,0.0,0.0,0.0,0.0,0.0,0.0,0.0,0.0,0.0,0.0,0.0,0.0,0.0,0.0,0.0,0.0,0.0,0.0,0.0,0.0,0.0,0.0,0.0,0.0,0.0,0.0,0.0,0.0,0.0,0.0,0.0,0.0,0.0,0.0,0.0,0.0,0.0,0.0,-3.1357,-3.3738,0.0,0.0,0.0,0.0,0.0,0.0,0.0,0.0,-3.6721,0.0,0.0,0.0,0.0,0.0,0.0,0.0,0.0,0.0,0.0,0.0,0.0,0.0,0.0,0.0,0.0,0.0,0.0,0.0,0.0,0.0,0.0,0.0,0.0,0.0,0.0,0.0,0.0,0.0,0.0,0.0,0.0,0.0,0.0,0.0,0.0,0.0,0.0,0.0,0.0,0.0,0.0,0.0,0.0,0.0,0.0,0.0,0.0,0.0,0.0,0.0,0.0,0.0,0.0,0.0,-4.0375,-4.163,-4.3539,-4.6225,-4.6075,-4.5773,-4.5497,-4.4418,-4.266,0.0,0.0,0.0,0.0,0.0,0.0,0.0,0.0,0.0,0.0,0.0,0.0,0.0,0.0,0.0,0.0,0.0,0.0,0.0,0.0,0.0,0.0,0.0,0.0,0.0,0.0,0.0,0.0,0.0,0.0,0.0,0.0,0.0,0.0,0.0,0.0,0.0,0.0,0.0,0.0,-3.3431,-3.5955,-3.6825,0.0,0.0,0.0,0.0,0.0,0.0,-3.9964,-3.9348,0.0,0.0,0.0,0.0,0.0,0.0,0.0,0.0,0.0,0.0,0.0,0.0,0.0,0.0,0.0,0.0,0.0,0.0,0.0,0.0,0.0,0.0,0.0,0.0,0.0,0.0,0.0,0.0,0.0,0.0,0.0,0.0,0.0,0.0,0.0,0.0,0.0,0.0,0.0,0.0,0.0,0.0,0.0,0.0,0.0,0.0,0.0,0.0,0.0,0.0,0.0,0.0,0.0,0.0,0.0,-4.1175,-4.2534,-4.4443,-4.6979,-4.6968,-4.6753,-4.6301,-4.4995,-4.3062,0.0,0.0,0.0,0.0,0.0,0.0,0.0,0.0,0.0,0.0,0.0,0.0,0.0,0.0,0.0,0.0,0.0,0.0,0.0,0.0,0.0,0.0,0.0,0.0,0.0,0.0,0.0,0.0,0.0,0.0,0.0,0.0,0.0,0.0,0.0,0.0,0.0,0.0,0.0,0.0,0.0,-3.8183,-3.8832,-4.0634,0.0,0.0,0.0,0.0,-4.0926,-4.1897,0.0,0.0,0.0,0.0,0.0,0.0,0.0,0.0,0.0,0.0,0.0,0.0,0.0,0.0,0.0,0.0,0.0,0.0,0.0,0.0,0.0,0.0,0.0,0.0,0.0,0.0,0.0,0.0,0.0,0.0,0.0,0.0,0.0,0.0,0.0,0.0,0.0,0.0,0.0,0.0,0.0,0.0,0.0,0.0,0.0,0.0,0.0,0.0,0.0,0.0,0.0,0.0,0.0,0.0,0.0,0.0,-4.12,-4.2911,-4.4819,-4.6979,-4.6652,-4.6376,-4.6276,-4.4267,-4.2108,0.0,0.0,0.0,0.0,0.0,0.0,0.0,0.0,0.0,0.0,0.0,0.0,0.0,0.0,0.0,0.0,0.0,0.0,0.0,0.0,0.0,0.0,0.0,0.0,0.0,0.0,0.0,0.0,0.0,0.0,0.0,0.0,0.0,0.0,0.0,0.0,0.0,0.0,0.0,0.0,0.0,-3.8809,-3.9499,-4.1389,-4.2188,0.0,0.0,-4.2708,-4.2631,-4.276,0.0,0.0,0.0,0.0,0.0,0.0,0.0,0.0,0.0,0.0,0.0,0.0,0.0,0.0,0.0,0.0,0.0,0.0,0.0,0.0,0.0,0.0,0.0,0.0,0.0,0.0,0.0,0.0,0.0,0.0,0.0,0.0,0.0,0.0,0.0,0.0,0.0,0.0,0.0,0.0,0.0,0.0,0.0,0.0,0.0,0.0,0.0,0.0,0.0,0.0,0.0,0.0,0.0,0.0,0.0,-3.8793,-4.1731,-4.3413,-4.5137,-4.6968,-4.6602,-4.6175,-4.5849,-4.3991,-4.1957,0.0,0.0,0.0,0.0,0.0,0.0,0.0,0.0,0.0,0.0,0.0,0.0,0.0,0.0,0.0,0.0,0.0,0.0,0.0,0.0,0.0,0.0,0.0,0.0,0.0,0.0,0.0,0.0,0.0,0.0,0.0,0.0,0.0,0.0,0.0,0.0,0.0,0.0,0.0,0.0,0.0,0.0,-4.0101,-4.2251,0.0,0.0,0.0,-4.3593,-4.2641,0.0,0.0,0.0,0.0,0.0,0.0,0.0,0.0,0.0,0.0,0.0,0.0,0.0,0.0,0.0,0.0,0.0,0.0,0.0,0.0,0.0,0.0,0.0,0.0,0.0,0.0,0.0,0.0,0.0,0.0,0.0,0.0,0.0,0.0,0.0,0.0,0.0,0.0,0.0,0.0,0.0,0.0,0.0,0.0,0.0,0.0,0.0,0.0,0.0,0.0,0.0,0.0,0.0,0.0,0.0,0.0,0.0,-4.2162,-4.379,-4.5447,-4.6993,-4.6577,-4.6175,-4.5874,-4.4267,0.0,0.0,0.0,0.0,0.0,0.0,0.0,0.0,0.0,0.0,0.0,0.0,0.0,0.0,0.0,0.0,0.0,0.0,0.0,0.0,0.0,0.0,0.0,0.0,0.0,0.0,0.0,-2.5435,0.0,0.0,0.0,0.0,0.0,0.0,0.0,0.0,0.0,0.0,0.0,0.0,0.0,0.0,-4.0694,-4.1081,-4.3259,-4.4336,0.0,0.0,-4.4355,-4.2856,-4.4028,-4.4401,0.0,0.0,0.0,0.0,0.0,0.0,0.0,0.0,0.0,0.0,0.0,0.0,0.0,0.0,0.0,0.0,0.0,0.0,0.0,0.0,0.0,0.0,0.0,0.0,0.0,0.0,0.0,0.0,0.0,0.0,0.0,0.0,0.0,0.0,0.0,0.0,0.0,0.0,0.0,0.0,0.0,0.0,0.0,0.0,0.0,0.0,0.0,0.0,0.0,0.0,0.0,0.0,0.0,0.0,0.0,-4.2137,-4.379,-4.5447,-4.6993,-4.6602,-4.6552,-4.6979,-4.5372,-4.3407,0.0,0.0,0.0,0.0,0.0,0.0,0.0,0.0,0.0,0.0,0.0,0.0,0.0,0.0,0.0,0.0,0.0,0.0,0.0,0.0,0.0,0.0,0.0,0.0,0.0,0.0,0.0,0.0,0.0,0.0,0.0,0.0,0.0,0.0,0.0,0.0,0.0,0.0,0.0,0.0,0.0,-4.1559,-4.264,-4.4325,-4.5209,0.0,0.0,-4.5062,-4.3878,-4.5087,-4.5274,-4.245,0.0,0.0,0.0,0.0,0.0,0.0,0.0,0.0,0.0,0.0,0.0,0.0,0.0,0.0,0.0,0.0,0.0,0.0,0.0,0.0,0.0,0.0,0.0,0.0,0.0,0.0,0.0,0.0,0.0,0.0,0.0,0.0,0.0,0.0,0.0,0.0,0.0,0.0,0.0,0.0,0.0,0.0,0.0,0.0,0.0,0.0,0.0,0.0,0.0,0.0,0.0,0.0,0.0,-3.9722,-4.2187,-4.4141,-4.5648,-4.6552,-4.6426,-4.625,-4.6125,-4.5146,-4.3589,0.0,0.0,0.0,0.0,0.0,0.0,0.0,0.0,0.0,0.0,0.0,0.0,0.0,0.0,0.0,0.0,0.0,0.0,0.0,0.0,0.0,0.0,0.0,0.0,0.0,0.0,0.0,0.0,-3.2139,-3.2792,-3.2508,0.0,0.0,0.0,0.0,0.0,0.0,0.0,0.0,0.0,0.0,-4.2251,-4.3797,-4.5221,0.0,0.0,-4.6223,-4.6363,-4.551,-4.5648,-4.536,-4.3835,-4.2164,0.0,0.0,0.0,0.0,0.0,0.0,0.0,0.0,0.0,0.0,0.0,0.0,0.0,0.0,0.0,0.0,0.0,0.0,0.0,0.0,0.0,0.0,0.0,0.0,0.0,0.0,0.0,0.0,0.0,0.0,0.0,0.0,0.0,0.0,0.0,0.0,0.0,0.0,0.0,0.0,0.0,0.0,0.0,0.0,0.0,0.0,0.0,0.0,0.0,0.0,0.0,0.0,-4.0199,-4.2439,-4.4443,-4.5748,-4.6301,-4.6326,-4.6125,-4.5748,-4.5347,-4.4166,0.0,0.0,0.0,0.0,0.0,0.0,0.0,0.0,0.0,0.0,0.0,0.0,0.0,0.0,0.0,0.0,0.0,0.0,0.0,0.0,0.0,0.0,0.0,0.0,0.0,0.0,0.0,0.0,-3.347,-3.3872,-3.3212,0.0,0.0,0.0,0.0,0.0,0.0,0.0,0.0,0.0,0.0,-4.2928,-4.4667,-4.5642,-4.6174,-4.6394,-4.6466,-4.644,-4.6152,-4.568,-4.5163,-4.4705,0.0,0.0,0.0,0.0,0.0,0.0,0.0,0.0,0.0,0.0,0.0,0.0,0.0,0.0,0.0,0.0,0.0,0.0,0.0,0.0,0.0,0.0,0.0,0.0,0.0,0.0,0.0,0.0,0.0,0.0,-3.3848,0.0,0.0,0.0,0.0,0.0,0.0,0.0,0.0,0.0,0.0,0.0,0.0,0.0,0.0,0.0,0.0,0.0,0.0,0.0,0.0,0.0,0.0,-4.0752,-4.2936,-4.4644,-4.5773,-4.6301,-4.6326,-4.6301,-4.6276,-4.6276,-4.5472,-4.374,0.0,0.0,0.0,0.0,0.0,0.0,0.0,0.0,0.0,0.0,0.0,0.0,0.0,0.0,0.0,0.0,0.0,0.0,0.0,0.0,0.0,0.0,0.0,0.0,0.0,0.0,-3.2968,-3.4048,-3.4274,0.0,0.0,0.0,0.0,0.0,0.0,0.0,0.0,0.0,0.0,-4.2233,-4.3595,-4.5229,-4.5531,-4.5792,-4.6301,-4.5461,-4.4929,-4.5519,-4.5137,-4.4723,0.0,0.0,0.0,0.0,0.0,0.0,0.0,0.0,0.0,0.0,0.0,0.0,0.0,0.0,0.0,0.0,0.0,0.0,0.0,0.0,0.0,0.0,0.0,0.0,0.0,0.0,0.0,-3.5798,-3.7729,0.0,0.0,0.0,0.0,0.0,0.0,0.0,0.0,0.0,0.0,0.0,-4.0999,-4.0154,0.0,0.0,0.0,0.0,0.0,0.0,0.0,0.0,0.0,0.0,0.0,0.0,-4.1505,-4.2986,-4.4995,-4.6125,-4.6301,-4.6326,-4.6326,-4.6326,-4.6326,-4.5347,-4.3313,0.0,0.0,0.0,0.0,0.0,0.0,0.0,0.0,0.0,0.0,0.0,0.0,0.0,0.0,0.0,0.0,0.0,0.0,0.0,0.0,0.0,0.0,0.0,0.0,0.0,-3.337,0.0,0.0,0.0,0.0,0.0,0.0,0.0,0.0,0.0,0.0,0.0,-3.9676,-4.2048,-4.3073,-4.4162,-4.5857,-4.6425,-4.6982,0.0,0.0,0.0,0.0,0.0,0.0,0.0,0.0,0.0,0.0,0.0,0.0,0.0,0.0,-3.9607,-3.7582,-3.7222,-3.716,-3.6868,0.0,0.0,0.0,0.0,0.0,0.0,0.0,0.0,0.0,0.0,0.0,0.0,0.0,0.0,0.0,0.0,-4.0601,0.0,0.0,0.0,0.0,0.0,0.0,0.0,0.0,-4.2097,-4.2673,-4.3498,-4.2824,-4.2282,0.0,-4.0932,-3.9254,0.0,0.0,0.0,0.0,0.0,0.0,0.0,0.0,-4.2183,-4.3288,-4.5271,-4.6326,-4.6326,-4.6326,-4.6326,-4.6301,-4.6125,-4.5246,-4.3589,-4.2158,-4.0275,0.0,0.0,0.0,0.0,0.0,0.0,0.0,0.0,0.0,0.0,0.0,0.0,0.0,0.0,0.0,0.0,0.0,0.0,0.0,0.0,0.0,0.0,0.0,-3.4901,0.0,0.0,0.0,0.0,0.0,0.0,0.0,0.0,0.0,-3.8065,-3.9496,-4.1304,-4.3288,-4.4187,-4.5157,-4.6481,0.0,0.0,0.0,0.0,0.0,0.0,0.0,-4.6965,-4.6986,-4.6074,-4.5598,-4.652,-4.5935,-4.5068,-4.4261,0.0,0.0,-4.016,-3.9626,-3.9576,-3.9472,-3.9799,-4.0126,-4.0275,-4.0852,-4.1379,0.0,0.0,0.0,0.0,0.0,0.0,0.0,0.0,-4.0647,-4.1343,0.0,-4.2248,0.0,0.0,0.0,0.0,0.0,0.0,0.0,0.0,-4.4746,-4.5304,-4.4835,-4.4887,-4.4281,-4.3258,-4.2709,-4.211,-4.1414,-3.9272,0.0,0.0,0.0,0.0,0.0,0.0,-4.2735,-4.384,-4.5472,-4.6326,-4.6326,-4.6326,-4.6326,-4.6301,-4.5799,-4.5246,-4.4644,-4.3614,-4.2283,-4.0626,-3.8492,0.0,0.0,0.0,0.0,0.0,0.0,0.0,0.0,0.0,0.0,0.0,0.0,0.0,0.0,0.0,0.0,0.0,0.0,0.0,0.0,-3.5127,0.0,0.0,0.0,0.0,0.0,0.0,0.0,0.0,0.0,0.0,-3.9848,-4.1257,-4.2811,-4.4418,0.0,0.0,0.0,0.0,-4.8137,-4.8239,-4.7736,-4.7551,-4.8135,-4.7254,-4.6907,-4.7937,0.0,0.0,-4.7221,-4.6404,-4.5818,-4.6294,-4.6298,-4.5296,-4.2108,-4.1555,-4.1681,-4.2137,-4.2288,-4.2514,-4.2911,-4.3037,-4.3112,-4.0923,0.0,0.0,0.0,0.0,-3.8093,-3.9858,-4.3031,-4.275,-4.3613,-4.5149,-4.4851,0.0,0.0,0.0,0.0,0.0,0.0,-4.4184,-4.4827,-4.5777,-4.6376,-4.665,-4.7082,-4.684,-4.6165,-4.5578,-4.4983,-4.4365,-4.3329,-4.1894,-4.0185,0.0,0.0,0.0,0.0,-4.3689,-4.4418,-4.5648,-4.6326,-4.6326,-4.6326,-4.6326,-4.6301,-4.615,-4.5799,-4.5271,-4.4945,-4.3991,-4.2333,-4.0927,0.0,0.0,0.0,0.0,0.0,0.0,0.0,0.0,0.0,0.0,0.0,0.0,0.0,0.0,0.0,0.0,0.0,0.0,0.0,-3.5027,-3.6614,-3.729,0.0,0.0,0.0,0.0,0.0,0.0,0.0,0.0,0.0,-4.2534,-4.3011,-4.379,0.0,0.0,-4.5994,-4.6532,-4.7126,-4.7802,-4.8744,0.0,0.0,0.0,-4.8528,-4.8431,-4.8775,-4.889,-4.8848,-4.8625,-4.859,-4.8368,-4.7802,-4.764,-4.6967,-4.5305,-4.4895,-4.4644,-4.4166,-4.4543,-4.4995,-4.4844,-4.507,-4.5347,-4.6458,-4.3572,-4.0788,-4.0252,-4.1221,-4.1022,-4.2632,-4.53,-4.508,-4.5699,-4.686,-4.6301,-4.563,-4.4797,-4.4125,0.0,0.0,0.0,-4.5169,-4.5967,-4.6616,-4.7134,-4.7731,-4.8327,-4.8244,-4.7726,-4.7399,-4.7007,-4.6616,-4.5818,-4.4853,-4.3741,0.0,0.0,-4.2827,-4.3683,-4.4392,-4.497,-4.5849,-4.6326,-4.6326,-4.6326,-4.6326,-4.6326,-4.6326,-4.615,-4.5824,-4.5824,-4.5246,-4.4016,-4.271,-4.0927,0.0,0.0,0.0,0.0,0.0,0.0,0.0,0.0,0.0,0.0,0.0,-3.1496,-3.219,0.0,0.0,0.0,-3.446,-3.55,-3.6701,-3.7593,0.0,0.0,0.0,0.0,0.0,0.0,0.0,-4.0576,-4.1986,-4.3137,-4.4016,-4.4547,-4.516,-4.5974,-4.6577,-4.703,-4.7353,0.0,-4.8611,-4.9358,-4.9156,-4.9041,-4.9442,-4.9431,-4.9418,-4.9418,-4.9478,-4.9552,-4.9467,-4.9443,-4.9236,-4.8714,-4.8446,-4.8033,-4.6907,-4.6809,-4.6602,-4.5547,-4.5824,-4.6175,-4.5874,-4.6075,-4.6326,-5.1121,-4.9559,-4.3536,-4.197,-4.3613,-4.4171,-4.5496,-4.7263,-4.7263,-4.7399,-4.762,-4.6809,-4.6307,-4.5973,-4.52,0.0,-4.4936,-4.5478,-4.6048,-4.6645,-4.7268,-4.7785,-4.8273,-4.8869,-4.8869,-4.8354,-4.8342,-4.8329,-4.8189,-4.7156,-4.687,-4.7304,-4.5209,-4.4137,-4.4137,-4.4558,-4.5028,-4.5666,-4.605,-4.6326,-4.6326,-4.6326,-4.6326,-4.6326,-4.6326,-4.6326,-4.6301,-4.6301,-4.6075,-4.5522,-4.3991,-4.2384,-4.0752,0.0,0.0,0.0,0.0,0.0,0.0,0.0,0.0,0.0,0.0,0.0,0.0,0.0,0.0,0.0,-3.6422,0.0,-3.8079,-3.8384,0.0,0.0,0.0,-3.9598,-4.0601,-4.1204,-4.1731,-4.2288,0.0,0.0,0.0,0.0,-4.6662,-4.7176,-4.8243,-4.8996,-4.9015,-4.9498,-5.0035,-5.0062,-5.0146,-5.0173,-5.0195,-5.0117,-5.0148,-5.0089,-4.9561,-4.9528,-4.9972,-4.9705,-4.9317,-4.9172,-4.9049,-4.8676,-4.7539,-4.7607,-4.7531,-4.6527,-4.6376,-4.6376,-4.6301,-4.6301,-4.6326,-5.2581,-5.1728,-4.9281,-4.7758,-4.6939,-4.7079,-4.7438,-4.7909,-4.7909,-4.774,-4.7391,-4.7201,-4.6837,-4.6342,-4.6154,-4.6292,-4.6779,-4.6942,-4.7269,-4.7839,-4.8436,-4.8789,-4.8896,-4.9521,-4.9711,-4.952,-4.911,-4.8911,-4.8832,-4.816,-4.7845,-4.7937,-4.7412,-4.6933,-4.6487,-4.6129,-4.6262,-4.6764,-4.6465,-4.6326,-4.6326,-4.6326,-4.6326,-4.6326,-4.6326,-4.6326,-4.6326,-4.6326,-4.625,-4.61,-4.492,-4.3689,-4.2434,-4.0174,0.0,0.0,0.0,0.0,0.0,0.0,0.0,0.0,0.0,-3.5254,-3.5675,0.0,-3.7567,0.0,-3.7543,-3.8437,-3.9476,-3.9838,0.0,0.0,-4.1293,-4.1685,-4.2308,-4.2886,-4.3263,-4.3388,-4.4392,-4.5296,-4.5849,-4.6916,-4.7888,-4.8432,-4.8444,-4.8557,-4.893,-4.9579,-5.017,-5.0601,-5.1068,-5.1394,-5.1309,-5.1386,-5.1292,-5.1377,-5.1201,-5.1201,-5.1319,-5.126,-5.1025,-5.0525,-5.0033,-4.9378,-4.8608,-4.7861,-4.7255,-4.7004,-4.6928,-4.6803,-4.6401,-4.6326,-4.6326,-5.3727,-5.2924,-5.2238,-5.1055,-4.9608,-4.8844,-4.8336,-4.8083,-4.8083,-4.7931,-4.7675,-4.7391,-4.7142,-4.6915,-4.6915,-4.7188,-4.7731,-4.7758,-4.8056,-4.8598,-4.8923,-4.9277,-4.9521,-4.9874,-5.001,-4.9983,-4.9684,-4.9516,-4.9502,-4.915,-4.8893,-4.8637,-4.8868,-4.8709,-4.8105,-4.7502,-4.7191,-4.7205,-4.6576,-4.6326,-4.6326,-4.6326,-4.62,-4.5949,-4.5949,-4.5824,-4.5573,-4.5573,-4.5547,-4.5547,-4.4719,-4.3865,-4.2986,-4.1128,-3.932,0.0,0.0,0.0,0.0,0.0,0.0,0.0,0.0,0.0,0.0,0.0,-3.974,0.0,-3.9154,-3.9653,-4.0884,-4.1002,-4.1409,-4.2339,-4.2718,-4.3187,-4.4016,-4.4367,-4.4644,-4.4895,-4.5673,-4.6326,-4.6652,-4.7717,-4.8584,-4.8881,-4.8963,-4.908,-4.9408,-4.9978,-5.0501,-5.0875,-5.1421,-5.1769,-5.1769,-5.1769,-5.1769,-5.1769,-5.1769,-5.1769,-5.1769,-5.1769,-5.1711,-5.1358,-5.0797,-5.0112,-4.9421,-4.8605,-4.785,-4.7543,-4.7481,-4.7179,-4.6476,-4.6326,-4.6326,-5.4547,-5.3529,-5.3529,-5.2842,-5.1592,-5.0104,-4.9075,-4.846,-4.8359,-4.8308,-4.8257,-4.7608,-4.7444,-4.7566,-4.754,-4.7785,-4.8273,-4.83,-4.8625,-4.9223,-4.925,-4.9521,-4.9983,-5.001,-5.001,-5.001,-5.001,-5.001,-5.001,-5.001,-4.97,-4.9244,-4.9727,-4.9727,-4.9186,-4.8695,-4.8055,-4.7324,-4.684,-4.6481,-4.6421,-4.6345,-4.6034,-4.5522,-4.5422,-4.5146,-4.4644,-4.4618,-4.4618,-4.4593,-4.4091,-4.3589,-4.3087,-4.158,-4.0275,0.0,-3.8266,0.0,0.0,0.0,0.0,0.0,0.0,0.0,0.0,-4.0514,-4.1364,-4.1823,-4.1002,-4.0992,-4.2386,-4.2258,-4.2519,-4.3672,-4.3969,-4.4568,-4.5648,-4.5799,-4.5974,-4.6451,-4.6928,-4.7193,-4.7355,-4.8282,-4.8911,-4.91,-4.9528,-4.9814,-4.9997,-5.0501,-5.101,-5.1014,-5.1611,-5.2208,-5.2154,-5.2126,-5.2067,-5.204,-5.2154,-5.2045,-5.2126,-5.2126,-5.2099,-5.1981,-5.1594,-5.0943,-5.0349,-4.9628,-4.8815,-4.8319,-4.802,-4.7581,-4.6828,-4.6527,-4.6426,-5.4786,-5.4127,-5.4127,-5.3466,-5.2368,-5.2046,-5.1305,-5.0269,-4.9803,-4.9518,-4.9147,-4.8149,-4.7994,-4.8435,-4.8192,-4.8382,-4.8952,-4.8896,-4.9277,-4.9847,-4.9847,-4.9901,-5.001,-5.001,-5.001,-5.001,-5.001,-5.001,-5.001,-5.001,-4.9953,-4.984,-4.9953,-4.9953,-4.984,0.0,0.0,0.0,-4.788,-4.7586,-4.7027,-4.6593,-4.6104,-4.5531,-4.502,0.0,-4.4618,-4.4618,-4.4618,-4.4593,-4.4091,0.0,0.0,0.0,0.0,0.0,0.0,0.0,0.0,0.0,0.0,0.0,-4.2248,-4.2048,-4.0156,-4.0393,-4.1241,-4.2599,-4.2357,-4.2675,-4.4019,-4.4102,-4.4477,-4.5554,-4.5789,-4.625,-4.7305,-4.7431,-4.7506,-4.7581,-4.7707,-4.7933,-4.8372,-4.8712,-4.9033,-4.9524,-4.9748,-4.987,-4.9996,-5.0898,-5.1552,-5.1719,-5.2533,-5.3212,-5.3266,-5.3212,-5.3158,-5.3266,-5.3266,-5.3239,-5.3212,-5.3212,-5.3239,-5.3212,-5.2695,-5.2242,-5.2058,-5.0793,-4.9589,-4.9464,-4.8609,-4.7832,-4.7631,-4.728,-4.6979,-5.5027,0.0,-5.4743,-5.4412,0.0,-5.3576,-5.3062,-5.2455,-5.1282,-5.0403,-4.964,-4.8832,-4.8597,-4.89,-4.8735,-4.895,-4.9549,-4.9549,-4.9739,-5.001,-5.001,-5.001,-5.001,-5.001,-5.001,-5.001,-5.001,-5.001,-5.001,-5.001,-5.001,-5.001,-5.001,-5.001,-5.001,-5.001,-4.9556,-4.8637,-4.8347,-4.7997,-4.7677,-4.7419,-4.6843,-4.5977,0.0,0.0,0.0,0.0,0.0,0.0,0.0,0.0,0.0,0.0,0.0,-4.2559,-4.2308,-4.2158,-4.2158,-4.266,-4.3031,-4.3137,-4.3776,-4.3808,-4.2787,-4.2625,-4.313,-4.4493,-4.4026,-4.4094,-4.5262,-4.5472,-4.5799,-4.6602,-4.6954,-4.733,-4.7807,-4.7908,-4.7807,-4.7631,-4.8008,-4.836,-4.8335,-4.896,-4.9353,-4.9716,-4.9851,-4.9934,-5.0084,-5.1041,-5.1991,-5.2588,-5.313,-5.3592,-5.3592,-5.3592,-5.3592,-5.3592,-5.3592,-5.3592,-5.3592,-5.3592,-5.3592,-5.3531,-5.3044,-5.2615,-5.2465,-5.1273,-5.0178,-5.009,-4.9444,-4.8736,-4.8711,-4.8083,-4.7506,-5.528,-5.5209,-5.5209,-5.5209,-5.5179,-5.4692,-5.4458,-5.4318,0.0,0.0,0.0,-4.9864,-4.9688,-4.9721,-4.9555,-4.9716,-5.0123,-5.0066,-5.001,-5.001,-5.001,-5.001,-5.001,-5.001,-5.001,-5.001,-5.001,-5.001,-5.001,-5.001,-5.001,-5.001,-5.001,-5.001,-5.001,-5.001,-4.9756,-4.9244,-4.8753,-4.8463,-4.8347,-4.8268,-4.7664,-4.6592,-4.6399,-4.5566,-4.4162,-4.3998,-4.374,-4.3288,-4.3263,-4.3489,-4.389,-4.3514,-4.3463,-4.389,-4.3614,-4.3614,-4.4066,-4.4192,-4.4443,-4.4895,-4.502,-4.5196,-4.5497,-4.4945,-4.5095,-4.6225,-4.5372,-4.5221,-4.6326,-4.6451,-4.6728,-4.7355,-4.7807,-4.8083,-4.8209,-4.8209,-4.8109,-4.7757,-4.841,-4.8774,-4.8372,-4.9168,-4.9785,-4.9835,-4.9882,-5.0108,-5.0387,-5.1204,-5.2181,-5.3076,-5.3429,-5.3592,-5.3592,-5.3592,-5.3592,-5.3592,-5.3713,-5.3713,-5.3652,-5.3713,-5.3713,-5.3592,-5.3105,-5.2799,-5.2527,-5.1632,-5.0778,-5.0588,-5.0078,-4.959,-4.9515,-4.8862,-4.8234,-5.5551,-5.5209,-5.5209,-5.5209,-5.5179,-5.5128,-5.5078,-5.4917,-5.3209,-5.2694,-5.2948,-5.2029,-5.1827,-5.2051,-5.1345,-5.0906,-5.0739,-5.0235,-5.001,0.0,-5.001,-5.001,-5.001,-5.001,-5.001,-5.001,-5.001,-5.001,-5.001,-5.001,-5.001,-5.001,-5.001,-5.001,-5.001,-5.001,-4.9953,-4.9897,-4.9783,-4.9499,-4.8957,-4.8505,-4.7929,-4.7169,-4.6211,-4.5616,-4.5349,-4.4807,-4.4468,-4.4392,-4.4392,-4.4418,-4.4493,-4.4418,-4.4418,-4.4518,-4.4895,-4.5171,-4.5246,-4.5673,-4.5999,-4.6075,-4.6502,-4.6426,-4.5547,-4.497,-4.5095,-4.615,-4.5723,-4.5824,-4.6853,-4.6943,-4.7405,-4.8335,-4.8586,-4.8837,-4.9238,-4.9289,-4.9238,-4.9113,-4.9364,-4.9494,-4.9316,-4.9507,-4.9702,-4.9857,-4.987,-5.0188,-5.1103,-5.1719,-5.2099,-5.2723,-5.3266,-5.3565,-5.3592,-5.3592,-5.3592,-5.3592,-5.3987,-5.4107,-5.3652,-5.3926,-5.4047,-5.3713,-5.341,-5.3166,-5.2738,-5.197,-5.1346,-5.0778,-5.0206,-4.9654,-4.9654,-4.9453,-4.9163,-5.6644,-5.6164,-5.5752,-5.5431,-5.5209,-5.5209,-5.5209,-5.5128,-5.4345,-5.3914,-5.36,-5.2785,-5.2391,-5.2355,-5.1813,-5.1513,-5.1403,-5.1128,-5.1017,-5.0962,-5.1017,-5.0767,-5.0516,-5.0516,-5.0348,-5.001,-5.001,-5.001,-5.001,-5.001,-5.001,-5.001,-5.001,-5.001,-5.001,-5.001,-5.001,-5.001,-5.001,-4.9897,-4.9586,-4.9344,-4.8926,-4.8272,-4.7722,-4.7174,-4.6518,-4.5918,-4.5617,-4.5654,-4.5311,-4.5291,-4.557,-4.557,-4.5547,-4.5522,-4.5773,-4.5924,-4.5924,-4.6175,-4.6326,-4.6326,-4.6527,-4.6627,-4.6401,-4.615,-4.62,-4.6677,-4.625,-4.625,-4.7054,-4.738,-4.7883,-4.8749,-4.9038,-4.9314,-4.954,-4.959,-4.9464,-4.9238,-4.9414,-4.9519,-4.9285,-4.9537,-4.9764,-4.9843,-4.9887,-5.0323,-5.1169,-5.1638,-5.2154,-5.2995,-5.3429,-5.3565,-5.3592,-5.3592,-5.3592,-5.3592,-5.3833,-5.3866,-5.3652,-5.3866,-5.3866,-5.3652,-5.3349,-5.3105,-5.3044,-5.228,-5.1721,-5.1721,-5.0778,-5.027,-5.0078,-4.9912,-4.949,-5.7894,-5.7334,-5.6633,-5.602,-5.5531,-5.5431,-5.5381,-5.5381,-5.5229,-5.4824,-5.4178,-5.3471,-5.3049,-5.2783,-5.2355,-5.2167,-5.2059,-5.1896,-5.1787,-5.1787,-5.1787,-5.1568,-5.1128,-5.0962,-5.0628,-5.0235,-5.0066,-5.001,-5.001,-5.001,-5.001,-5.001,-5.001,-5.001,-5.001,-5.001,-5.001,-5.001,-5.001,-5.001,-5.001,-5.001,-4.9783,-4.9358,-4.9129,-4.863,-4.7722,-4.712,-4.6823,-4.6865,-4.6466,-4.636,-4.6746,-4.6772,-4.6711,-4.655,-4.6541,-4.6421,-4.6301,-4.6326,-4.6326,-4.6326,-4.6426,-4.6677,-4.6993,-4.7068,-4.7068,-4.7018,-4.6667,-4.6728,-4.728,-4.7807,-4.8335,-4.8887,-4.9314,-4.9565,-4.959,-4.959,-4.9464,-4.9088,-4.9467,-4.9673,-4.9317,-4.9637,-4.9939,-4.9908,-4.9963,-5.0251,-5.0987,-5.1557,-5.2289,-5.3212,-5.3592,-5.3713,-5.3773,-5.3806,-5.3833,-5.3833,-5.4166,-5.4226,-5.4074,-5.3954,-5.3954,-5.3894,-5.3288,-5.3044,-5.3227,-5.2588,-5.197,-5.1846,-5.1094,-5.0525,-5.0295,-4.9912,-4.959,-5.9117,-5.8547,-5.7912,-5.7187,-5.6519,-5.6047,-5.5849,-5.5769,-5.5431,-5.5179,-5.5027,-5.4976,-5.4773,-5.4466,-5.3629,-5.3155,-5.2919,-5.2167,-5.1841,-5.1841,-5.1787,-5.1787,-5.1677,-5.1183,-5.0906,-5.0739,-5.0292,-5.0066,-5.0066,-5.001,-5.001,-5.001,-5.001,-5.001,-5.001,-5.001,-5.001,-5.001,-5.001,-5.001,-5.001,-5.001,-4.9953,-4.9897,-4.9358,-4.9045,-4.8908,-4.8358,-4.8009,-4.8041,-4.7989,-4.7957,-4.8035,-4.8035,-4.7743,-4.7146,-4.7146,-4.6874,-4.6361,-4.6326,-4.6361,-4.6351,-4.6728,-4.7029,-4.7104,-4.7068,-4.7068,-4.7068,-4.7018,-4.7193,-4.7807,-4.8335,-4.8862,-4.9364,-4.954,-4.959,-4.959,-4.959,-4.9565,-4.954,-5.0053,-5.0304,-4.988,-5.0185,-5.0356,-4.9978,-5.0017,-5.0498,-5.1448,-5.1859,-5.2348,-5.3299,-5.3592,-5.3833,-5.4166,-5.4378,-5.4346,-5.4437,-5.5323,-5.5351,-5.4762,-5.4762,-5.5144,-5.4286,-5.3866,-5.3349,-5.2983,-5.2527,-5.2156,-5.1659,-5.1094,-5.0487,-4.9912,-4.9654,-4.959,-6.0376,-5.9806,-5.9104,-5.8306,-5.7377,-5.715,-5.6807,-5.6342,-5.5849,-5.5601,-5.5551,-5.533,-5.4926,-5.4487,-5.3942,-5.3605,-5.329,-5.2972,-5.2812,-5.2812,-5.2812,-5.2598,-5.2247,-5.203,-5.1759,-5.1403,-5.085,-5.0488,-5.046,-5.0179,-5.001,-5.001,-5.001,-5.001,-5.001,-5.001,-5.001,-5.001,-5.001,-5.001,-5.001,-5.001,-5.001,-4.9953,-4.9783,-4.967,-4.9529,-4.9041,-4.8926,-4.9213,-4.8926,-4.8753,-4.8753,-4.8726,-4.8437,-4.788,-4.7762,-4.7703,-4.7434,-4.7409,-4.7231,-4.6874,-4.7018,-4.7025,-4.6652,-4.6867,-4.7068,-4.7068,-4.7068,-4.7456,-4.8284,-4.8636,-4.9012,-4.9464,-4.959,-4.959,-4.959,-4.959,-4.9719,-5.0104,-5.0397,-5.0555,-5.0409,-5.0312,-5.0179,-5.0071,-5.0276,-5.0878,-5.1692,-5.2393,-5.3175,-5.386,-5.4107,-5.4047,-5.4107,-5.4286,-5.4437,-5.4616,-5.4911,-5.497,-5.5233,-5.488,-5.4821,-5.4556,-5.4047,-5.3652,-5.3349,-5.3227,-5.2983,-5.2156,-5.1471,-5.0968,-5.0334,-4.9847,-4.9654,-6.1351,-6.1038,-6.0362,-5.9385,-5.8217,-5.8071,-5.7713,-5.7122,-5.6452,-5.6115,-5.6066,-5.5601,-5.5149,-5.4611,-5.4282,-5.4023,-5.3844,-5.3687,-5.3605,-5.3605,-5.3553,-5.329,-5.2837,-5.2677,-5.2408,-5.1976,-5.1403,-5.1072,-5.0906,-5.0516,-5.0179,-5.001,-5.001,-5.001,-5.001,-5.001,-5.001,-5.001,-5.001,-5.001,-5.001,-5.001,-5.001,-5.001,-5.001,-5.001,-5.001,-4.9586,-4.9529,-4.9953,-4.9556,-4.9358,-4.9358,-4.9358,-4.9072,-4.8521,-4.8315,-4.8172,-4.8172,-4.8172,-4.7945,-4.732,-4.7339,-4.7265,-4.6976,-4.7167,-4.75,-4.7853,-4.7705,-4.7983,-4.8586,-4.8912,-4.9188,-4.954,-4.959,-4.959,-4.959,-4.959,-4.9783,-5.027,-5.0434,-5.0669,-5.0717,-5.0371,-5.0035,-5.0035,-5.0525,-5.1238,-5.198,-5.2935,-5.3806,-5.4446,-5.4734,-5.488,-5.4493,-5.4584,-5.4793,-5.5088,-5.5323,-5.5615,-5.5729,-5.5292,-5.5029,-5.5323,-5.4465,-5.3866,-5.3806,-5.3833,-5.3349,-5.2922,-5.2156,-5.1157,-5.027,-4.9912,-4.9654,-6.1946,-6.2175,-6.1575,-6.0485,-5.9176,-5.87,-5.8477,-5.8242,-5.7201,-5.6651,-5.6603,-5.6115,-5.572,-5.5421,-5.4976,-5.4751,-5.4619,-5.4075,-5.3867,-5.3867,-5.3605,-5.35,-5.3395,-5.289,-5.2623,-5.2516,-5.2004,-5.1458,-5.0962,-5.0823,-5.0544,-5.001,-5.001,-5.001,-5.001,-5.001,-5.001,-5.001,-5.001,-5.001,-5.001,-5.001,-5.001,-5.001,-5.001,-5.001,-5.001,-4.9953,-4.9953,-5.001,-4.9953,-4.9953,-4.9953,-4.9953,-4.967,-4.9072,-4.8579,-4.823,-4.8289,-4.8289,-4.8021,-4.7487,-4.7853,-4.8114,-4.7932,-4.806,-4.8538,-4.9537,-4.9026,-4.8838,-4.8964,-4.9302,-4.949,-4.9565,-4.959,-4.959,-4.959,-4.959,-4.959,-4.9849,-5.0363,-5.0714,-5.0864,-5.036,-5.0091,-5.0173,-5.0553,-5.135,-5.2468,-5.3251,-5.3889,-5.4627,-5.5409,-5.6279,-5.6164,-5.5701,-5.5701,-5.5875,-5.6164,-5.6794,-5.6566,-5.6337,-5.6279,-5.5991,-5.5088,-5.4524,-5.4405,-5.3926,-5.32,-5.2527,-5.1659,-5.0778,-5.0461,-4.9912,-4.959,-6.1977,-6.2302,-6.1687,-6.1087,-6.0613,-5.9948,-5.9411,-5.8955,-5.8196,-5.7583,-5.7194,-5.6651,-5.636,-5.6213,-5.572,-5.5149,-5.4487,-5.4075,-5.3919,-5.3867,-5.3605,-5.35,-5.3477,-5.3237,-5.3184,-5.3078,-5.257,-5.1813,-5.1017,-5.0906,-5.0572,-5.0066,-5.001,-5.001,-5.001,-5.001,-5.001,-5.001,-5.001,-5.001,-5.001,-5.001,-5.001,-5.001,-5.001,-5.001,-5.001,-5.001,-5.001,-5.001,-5.001,-5.001,-5.001,-5.001,-4.9897,-4.9727,-4.9499,-4.9328,-4.9328,-4.9328,-4.8889,-4.8069,-4.8409,-4.8637,-4.8387,-4.8856,-4.962,-5.0172,-5.019,-4.9964,-4.9888,-4.9746,-4.959,-4.959,-4.959,-4.959,-4.959,-4.959,-4.9785,-5.0212,-5.0627,-5.0815,-5.0702,-5.039,-5.0173,-5.0553,-5.1122,-5.1809,-5.2642,-5.3512,-5.4425,-5.4973,-5.5554,-5.6135,-5.6964,-5.6451,-5.6164,-5.6279,-5.6566,-5.6794,-5.6794,-5.6566,-5.6394,-5.6049,-5.5409,-5.4939,-5.4703,-5.4346,-5.3504,-5.2834,-5.1908,-5.1094,-5.0994,-5.0142,-4.9719,-6.1644,-6.1656,-6.1245,-6.1024,-6.0992,-6.0487,-6.0044,-5.9554,-5.9002,-5.8389,-5.7731,-5.718,-5.694,-5.6844,-5.6409,-5.5819,-5.5069,-5.4509,-5.423,-5.4252,-5.3815,-5.3553,-5.353,-5.35,-5.35,-5.3448,-5.3131,-5.2355,-5.1568,-5.143,-5.11,-5.0628,-5.0572,-5.0572,-5.0572,-5.0572,-5.0516,-5.0348,-5.0292,-5.0235,-5.0066,-5.001,-5.001,-5.001,-5.001,-5.001,-5.001,-5.001,-5.001,-5.001,-5.001,-5.001,-5.001,-5.001,-5.001,-5.001,-5.001,-5.001,-5.001,-5.001,-4.9513,-4.8664,-4.9197,-4.948,-4.9181,-4.9923,-5.0733,-5.1128,-5.1059,-5.0905,-5.0842,-5.0525,-5.0104,-4.9783,-4.9783,-4.9783,-4.9654,-4.9783,-5.0166,-5.0524,-5.0558,-5.0586,-5.055,-5.0254,-5.0335,-5.0824,-5.1448,-5.2045,-5.2911,-5.4019,-5.4939,-5.5437,-5.5903,-5.6365,-5.6851,-5.668,-5.6623,-5.6794,-5.6794,-5.6964,-5.7021,-5.6794,-5.6509,-5.6106,-5.5759,-5.5292,-5.4939,-5.4616,-5.4107,-5.347,-5.2342,-5.1283,-5.0842,-5.027,-4.9847,-6.0961,-6.0455,-6.0297,-6.036,-6.0487,-6.036,-6.0297,-6.0139,-5.9586,-5.8908,-5.8199,-5.7731,-5.7495,-5.7401,-5.694,-5.6651,-5.6457,-5.5451,-5.4976,-5.4917,-5.4252,-5.3762,-5.3553,-5.3605,-5.3605,-5.3553,-5.35,-5.3213,-5.2598,-5.2491,-5.2193,-5.1841,-5.1623,-5.1568,-5.1732,-5.1623,-5.1403,-5.1017,-5.085,-5.0628,-5.0123,-5.0066,-5.001,-5.0066,-5.001,-5.001,-5.001,-5.001,-5.001,-5.001,-5.001,-5.001,-5.001,-5.001,-5.001,-5.001,-5.001,-5.001,-5.001,-5.001,-4.9793,-4.9355,-5.017,-5.0709,-5.0779,-5.1287,-5.1896,-5.2314,-5.1979,-5.1596,-5.1596,-5.1534,-5.0968,-4.995,-5.0232,-5.0334,-4.9976,-5.0181,-5.0654,-5.0677,-5.0388,-5.0001,-4.9973,-5.0037,-5.0281,-5.0932,-5.1475,-5.2276,-5.3347,-5.4457,-5.5205,-5.5729,-5.6077,-5.6451,-5.668,-5.6851,-5.7078,-5.7247,-5.7191,-5.7247,-5.7191,-5.7078,-5.6908,-5.6566,-5.6222,-5.5817,-5.5351,-5.497,-5.4259,-5.3565,-5.2439,-5.1534,-5.1031,-5.0461,-4.9847,-6.0709,-6.0234,-5.9791,-6.0202,-6.0929,-6.0518,-6.0297,-6.0265,-6.0044,-5.9349,-5.8401,-5.8136,-5.8011,-5.7918,-5.7495,-5.7448,-5.7684,-5.6603,-5.5819,-5.532,-5.456,-5.4149,-5.4045,-5.4075,-5.4045,-5.3993,-5.3867,-5.35,-5.3078,-5.2943,-5.257,-5.195,-5.1841,-5.1787,-5.1841,-5.1787,-5.1677,-5.1513,-5.1128,-5.0962,-5.11,-5.0404,-5.0179,-5.0516,-5.0235,-5.001,-5.001,-5.001,-5.001,-5.001,-5.001,-5.001,-5.001,-5.001,-5.001,-5.001,-5.001,-5.001,-5.001,-5.001,-4.9956,-4.9901,-5.0471,-5.1068,-5.1529,-5.2058,-5.2607,-5.312,-5.2711,-5.228,-5.228,-5.228,-5.1721,-5.0397,-5.0905,-5.1031,-5.0511,-5.0571,-5.068,-5.0738,-5.0327,-5.0027,-5.0008,-5.001,-5.0444,-5.1312,-5.1719,-5.2389,-5.3823,-5.4181,-5.488,-5.5817,-5.6193,-5.6595,-5.6908,-5.7078,-5.7191,-5.7303,-5.7303,-5.7303,-5.7303,-5.7303,-5.7134,-5.6964,-5.6623,-5.6279,-5.5817,-5.5233,-5.4584,-5.3719,-5.2746,-5.2006,-5.1346,-5.0715,-5.004,-6.0186,-5.9854,-5.9191,-5.957,-6.055,-6.0107,-5.9918,-5.9918,-5.9949,-5.9286,-5.8447,-5.8274,-5.8321,-5.8228,-5.7918,-5.7965,-5.8182,-5.7401,-5.67,-5.6115,-5.514,-5.4611,-5.4355,-5.4304,-5.4304,-5.4252,-5.4149,-5.389,-5.3524,-5.3419,-5.3131,-5.2652,-5.2491,-5.2437,-5.2437,-5.2437,-5.2383,-5.2221,-5.1841,-5.1677,-5.1732,-5.1128,-5.0823,-5.1128,-5.085,-5.0683,-5.0683,-5.0432,-5.0235,-5.0066,-5.001,-5.001,-5.001,-5.001,-5.001,-5.001,-5.001,-5.001,-5.001,-5.001,-5.0146,-5.039,-5.0905,-5.1502,-5.2099,-5.2696,-5.3239,-5.345,-5.3227,-5.2983,-5.2956,-5.2956,-5.2465,-5.1471,-5.1721,-5.1783,-5.1403,-5.1215,-5.1123,-5.1073,-5.0698,-5.0306,-5.0091,-5.0308,-5.0715,-5.1611,-5.2018,-5.2484,-5.3745,-5.4047,-5.4939,-5.5701,-5.6077,-5.6509,-5.7134,-5.7303,-5.7303,-5.7303,-5.7303,-5.7303,-5.7303,-5.7303,-5.7191,-5.7134,-5.6908,-5.6623,-5.6222,-5.5729,-5.5085,-5.4079,-5.3113,-5.2315,-5.1534,-5.0778,-5.0168,-5.9488,-5.9159,-5.8559,-5.8748,-5.938,-5.938,-5.938,-5.9349,-5.9349,-5.897,-5.8415,-5.8321,-5.8321,-5.8321,-5.8228,-5.8228,-5.8228,-5.7825,-5.7448,-5.7036,-5.6213,-5.532,-5.4662,-5.4458,-5.4406,-5.4406,-5.4355,-5.4304,-5.4252,-5.4075,-5.3971,-5.3762,-5.3553,-5.35,-5.3395,-5.35,-5.329,-5.3025,-5.2705,-5.2408,-5.2355,-5.1922,-5.1841,-5.1896,-5.1787,-5.1677,-5.1568,-5.1128,-5.0572,-5.0066,-5.001,-5.001,-5.001,-5.001,-5.001,-5.001,-5.001,-5.0064,-5.0064,-5.0146,-5.0444,-5.1068,-5.1584,-5.2126,-5.2723,-5.3185,-5.351,-5.3592,-5.3531,-5.3531,-5.3531,-5.3531,-5.3166,-5.2799,-5.2527,-5.2465,-5.2508,-5.201,-5.1609,-5.1485,-5.1204,-5.0688,-5.0173,-5.058,-5.1122,-5.1801,-5.2371,-5.2919,-5.3648,-5.4226,-5.4821,-5.5409,-5.6077,-5.6509,-5.7191,-5.7472,-5.7472,-5.736,-5.7416,-5.7472,-5.736,-5.7303,-5.7303,-5.7247,-5.7078,-5.6851,-5.6509,-5.5903,-5.532,-5.4437,-5.3477,-5.2527,-5.1659,-5.0905,-5.0206,-5.9033,-5.8772,-5.843,-5.8685,-5.9254,-5.9317,-5.9286,-5.9317,-5.9286,-5.8875,-5.8369,-5.8321,-5.8321,-5.8321,-5.8321,-5.8321,-5.8274,-5.8136,-5.7825,-5.7464,-5.718,-5.6409,-5.5521,-5.4896,-5.4773,-5.4926,-5.4773,-5.4671,-5.4671,-5.4568,-5.4414,-5.42,-5.4097,-5.3971,-5.3815,-5.3815,-5.3658,-5.3343,-5.2919,-5.2972,-5.3261,-5.257,-5.2355,-5.2677,-5.2355,-5.203,-5.1787,-5.1238,-5.0628,-5.0066,-5.001,-5.001,-5.001,-5.001,-5.001,-5.0121,-5.0064,-5.0254,-5.058,-5.0718,-5.115,-5.2099,-5.2289,-5.2723,-5.3293,-5.3483,-5.3592,-5.3592,-5.3592,-5.3592,-5.3592,-5.3565,-5.3443,-5.3349,-5.2868,-5.2647,-5.2547,-5.2188,-5.1652,-5.1173,-5.0661,-5.0498,-5.0607,-5.0878,-5.1367,-5.2208,-5.2642,-5.3092,-5.3855,-5.4346,-5.4762,-5.5701,-5.6423,-5.6737,-5.7134,-5.7472,-5.7584,-5.7472,-5.7528,-5.7751,-5.7528,-5.7303,-5.7303,-5.7303,-5.7078,-5.6851,-5.6394,-5.5903,-5.5292,-5.4556,-5.3537,-5.2465,-5.1783,-5.1031,-5.0334,-5.9107,-5.861,-5.8473,-5.8588,-5.8843,-5.8875,-5.8875,-5.8875,-5.8875,-5.8685,-5.8384,-5.8321,-5.8321,-5.8321,-5.8321,-5.8321,-5.8321,-5.8321,-5.8104,-5.7871,-5.759,-5.6844,-5.6017,-5.5401,-5.528,-5.5179,-5.5027,-5.5006,-5.4955,-5.4854,-5.4671,-5.4487,-5.4355,-5.42,-5.4097,-5.4045,-5.4075,-5.3971,-5.3605,-5.371,-5.4126,-5.3524,-5.3314,-5.3524,-5.3179,-5.2751,-5.1774,-5.1257,-5.0823,-5.0434,-5.0179,-5.001,-5.001,-5.001,-5.0232,-5.0676,-5.0787,-5.106,-5.1552,-5.1689,-5.2011,-5.2538,-5.2723,-5.3022,-5.3429,-5.3592,-5.3592,-5.3592,-5.3592,-5.3483,-5.3266,-5.3212,-5.3347,-5.345,-5.3012,-5.2655,-5.2691,-5.2393,-5.1828,-5.1177,-5.0851,-5.0743,-5.096,-5.1312,-5.1936,-5.2561,-5.2968,-5.3571,-5.4263,-5.4469,-5.4793,-5.5701,-5.648,-5.6823,-5.722,-5.7557,-5.7948,-5.7807,-5.764,-5.7863,-5.7751,-5.7472,-5.736,-5.7303,-5.7078,-5.6794,-5.6279,-5.5759,-5.5057,-5.4199,-5.3261,-5.2465,-5.1721,-5.1094,-5.0397,-5.9476,-5.8701,-5.861,-5.8473,-5.8367,-5.8321,-5.8338,-5.8321,-5.8338,-5.8352,-5.8321,-5.8321,-5.8321,-5.8321,-5.8321,-5.8321,-5.8321,-5.8321,-5.8274,-5.8136,-5.7778,-5.7084,-5.6164,-5.5869,-5.5551,-5.528,-5.5209,-5.5209,-5.5128,-5.4955,-5.4854,-5.4773,-5.459,-5.4436,-5.4385,-5.4355,-5.4487,-5.4487,-5.4282,-5.4282,-5.4568,-5.4333,-5.42,-5.42,-5.4045,-5.3135,-5.1974,-5.1544,-5.1501,-5.11,-5.0376,-5.0016,-4.9987,-5.0041,-5.0788,-5.1707,-5.1986,-5.2318,-5.2701,-5.2782,-5.2798,-5.287,-5.2859,-5.2995,-5.3483,-5.3592,-5.3565,-5.3402,-5.3483,-5.3158,-5.275,-5.2615,-5.2805,-5.3049,-5.2799,-5.2642,-5.2561,-5.2533,-5.2099,-5.1122,-5.1394,-5.1394,-5.1557,-5.1936,-5.275,-5.2973,-5.3359,-5.3795,-5.4469,-5.497,-5.5175,-5.5613,-5.625,-5.688,-5.722,-5.7613,-5.8059,-5.8225,-5.7948,-5.8003,-5.8003,-5.7781,-5.7501,-5.7303,-5.7134,-5.6737,-5.6164,-5.5526,-5.4734,-5.3899,-5.3017,-5.228,-5.1596,-5.1031,-5.0397,-5.9652,-5.9107,-5.8714,-5.8564,-5.8518,-5.8367,-5.8321,-5.8321,-5.8321,-5.8321,-5.8321,-5.8321,-5.8321,-5.8321,-5.8321,-5.8321,-5.8321,-5.8321,-5.8321,-5.8274,-5.8228,-5.7543,-5.6603,-5.6164,-5.57,-5.533,-5.5209,-5.5209,-5.5179,-5.5128,-5.5108,-5.5078,-5.4976,-5.4875,-5.4722,-5.4671,-5.4539,-5.4406,-5.4355,-5.4539,-5.4773,-5.4773,-5.4671,-5.4671,-5.4282,-5.339,-5.2487,-5.2721,-5.2816,-5.2071,-5.0989,-5.0244,-5.0464,-5.1405,-5.2212,-5.2659,-5.3079,-5.3357,-5.3456,-5.3564,-5.3433,-5.3479,-5.3446,-5.3456,-5.3537,-5.3598,-5.3381,-5.3049,-5.2886,-5.2642,-5.2208,-5.2045,-5.2154,-5.2262,-5.2154,-5.1972,-5.1707,-5.1483,-5.1258,-5.1068,-5.1095,-5.1394,-5.2154,-5.2343,-5.2946,-5.3353,-5.373,-5.4079,-5.456,-5.5211,-5.5558,-5.5762,-5.6737,-5.7416,-5.7528,-5.7948,-5.8335,-5.85,-5.828,-5.8169,-5.8169,-5.783,-5.7438,-5.7272,-5.722,-5.6623,-5.5704,-5.4946,-5.4061,-5.3423,-5.2773,-5.197,-5.1283,-5.0778,-5.0397,-6.0141,-5.9564,-5.9152,-5.8837,-5.861,-5.8473,-5.8381,-5.8321,-5.8321,-5.8321,-5.8321,-5.8321,-5.8321,-5.8321,-5.8321,-5.8321,-5.8321,-5.8321,-5.8321,-5.8321,-5.8274,-5.7825,-5.7258,-5.67,-5.6213,-5.5381,-5.5209,-5.5209,-5.5209,-5.5209,-5.5209,-5.5209,-5.5209,-5.5108,-5.5006,-5.5006,-5.4926,-5.4794,-5.4743,-5.4824,-5.4926,-5.4976,-5.4976,-5.4955,-5.4619,-5.3971,-5.3025,-5.3231,-5.2864,-5.2151,-5.162,-5.1536,-5.1765,-5.2659,-5.3332,-5.4007,-5.429,-5.4686,-5.4851,-5.4932,-5.487,-5.4647,-5.4185,-5.396,-5.3764,-5.3594,-5.2998,-5.2634,-5.2498,-5.2303,-5.1855,-5.1502,-5.1502,-5.1719,-5.1673,-5.1547,-5.1413,-5.1323,-5.1234,-5.1265,-5.1591,-5.1991,-5.2506,-5.2761,-5.2934,-5.3266,-5.3768,-5.4145,-5.4418,-5.5053,-5.5709,-5.6279,-5.7355,-5.7974,-5.8029,-5.825,-5.8664,-5.8719,-5.8555,-5.85,-5.85,-5.7937,-5.726,-5.7069,-5.6734,-5.5679,-5.4753,-5.4075,-5.3528,-5.2937,-5.228,-5.1471,-5.0842,-5.0423,-5.004,-6.0609,-6.0001,-5.9508,-5.9062,-5.8746,-5.8655,-5.8518,-5.8367,-5.8321,-5.8321,-5.8321,-5.8321,-5.8321,-5.8321,-5.8321,-5.8321,-5.8321,-5.8321,-5.8321,-5.8321,-5.8321,-5.7918,-5.7527,-5.7287,-5.68,-5.5581,-5.5591,-5.554,-5.5439,-5.5329,-5.5359,-5.5239,-5.5209,-5.5209,-5.5179,-5.5179,-5.5128,-5.5128,-5.5078,-5.5128,-5.5158,-5.5128,-5.5128,-5.4926,-5.4976,-5.4385,-5.3582,-5.3434,-5.312,-5.1763,-5.2772,-5.3534,-5.3916,-5.4034,-5.4287,-5.5359,-5.5442,-5.5648,-5.5908,-5.6165,-5.6051,-5.5906,-5.5132,-5.4478,-5.431,-5.3685,-5.2978,-5.2358,-5.2078,-5.1911,-5.1677,-5.1298,-5.1214,-5.1489,-5.1443,-5.1366,-5.142,-5.1601,-5.1659,-5.1686,-5.1823,-5.2174,-5.2611,-5.2916,-5.3061,-5.3237,-5.376,-5.4167,-5.443,-5.5083,-5.5908,-5.6534,-5.7523,-5.836,-5.847,-5.847,-5.8882,-5.8828,-5.8719,-5.8555,-5.8411,-5.7108,-5.6377,-5.6357,-5.5908,-5.4909,-5.409,-5.3544,-5.2958,-5.2412,-5.1721,-5.0968,-5.0397,-4.9976,-4.9758,-6.0727,-6.0292,-5.9596,-5.9241,-5.9152,-5.8792,-5.8655,-5.8518,-5.8459,-5.8321,-5.8321,-5.8321,-5.8321,-5.8321,-5.8321,-5.8321,-5.8321,-5.8321,-5.8321,-5.8321,-5.8274,-5.8011,-5.7699,-5.7679,-5.7261,-5.6818,-5.6617,-5.6415,-5.6089,-5.6038,-5.5688,-5.5329,-5.5209,-5.5209,-5.5209,-5.5209,-5.5209,-5.5209,-5.5209,-5.5209,-5.5209,-5.5179,-5.5027,-5.4692,-5.4875,-5.4392,-5.3751,-5.3941,-5.4178,-5.3938,-5.4616,-5.518,-5.5405,-5.5221,-5.5153,-5.5445,-5.5913,-5.6249,-5.6408,-5.644,-5.639,-5.628,-5.6022,-5.5337,-5.4797,-5.4229,-5.3498,-5.2235,-5.1568,-5.1181,-5.1042,-5.0986,-5.0959,-5.1042,-5.1126,-5.1155,-5.1377,-5.1653,-5.1921,-5.2029,-5.2111,-5.2221,-5.263,-5.2849,-5.2887,-5.3201,-5.383,-5.3914,-5.3943,-5.5168,-5.6564,-5.7075,-5.7611,-5.8305,-5.8882,-5.8936,-5.9045,-5.8882,-5.8719,-5.839,-5.7735,-5.6087,-5.5329,-5.5616,-5.5253,-5.4315,-5.3582,-5.2935,-5.2383,-5.1803,-5.1105,-5.0397,-5.0104,-4.9719,-4.9643,-6.1103,-6.0642,-6.012,-5.9816,-5.9652,-5.9431,-5.9343,-5.9254,-5.8972,-5.8746,-5.8642,-5.8413,-5.8321,-5.8321,-5.8321,-5.8321,-5.8321,-5.8321,-5.8321,-5.8321,-5.8274,-5.8228,-5.7903,-5.7996,-5.7894,-5.7765,-5.7756,-5.7385,-5.6689,-5.6338,-5.6047,-5.5718,-5.5388,-5.5209,-5.5209,-5.5209,-5.5209,-5.5209,-5.5209,-5.5209,-5.5209,-5.5209,-5.4976,-5.4926,-5.4905,-5.4768,-5.4678,-5.4726,-5.5031,-5.4968,-5.527,-5.5688,-5.5789,-5.567,-5.5419,-5.583,-5.6367,-5.676,-5.687,-5.7049,-5.7433,-5.7496,-5.7042,-5.61,-5.5334,-5.4879,-5.4203,-5.2827,-5.1405,-5.0906,-5.0961,-5.0962,-5.0906,-5.0906,-5.11,-5.1322,-5.1488,-5.1683,-5.2016,-5.2372,-5.2396,-5.2506,-5.2641,-5.2754,-5.2706,-5.3159,-5.3809,-5.389,-5.3715,-5.5281,-5.6992,-5.7297,-5.7716,-5.8415,-5.8991,-5.9045,-5.9045,-5.8882,-5.8609,-5.825,-5.7544,-5.6095,-5.5355,-5.5214,-5.4544,-5.3552,-5.2814,-5.2131,-5.1628,-5.1216,-5.0537,-5.0014,-4.9783,-4.9565,-4.949,-6.1473,-6.1103,-6.0717,-6.0388,-6.0216,-6.0173,-6.013,-6.0044,-5.952,-5.9197,-5.8972,-5.855,-5.8321,-5.8321,-5.8321,-5.8321,-5.8321,-5.8321,-5.8321,-5.8321,-5.8321,-5.8274,-5.8306,-5.8356,-5.8295,-5.8346,-5.8492,-5.8176,-5.7368,-5.6959,-5.6526,-5.6077,-5.5568,-5.5299,-5.5239,-5.5209,-5.5209,-5.5209,-5.5209,-5.5209,-5.5209,-5.5209,-5.5209,-5.5209,-5.5209,-5.5266,-5.5308,-5.5397,-5.5535,-5.5501,-5.5607,-5.5759,-5.5925,-5.5656,-5.573,-5.6344,-5.6823,-5.7059,-5.7503,-5.7769,-5.8119,-5.847,-5.7778,-5.6891,-5.5925,-5.5365,-5.4576,-5.3376,-5.2207,-5.1403,-5.1486,-5.1432,-5.1543,-5.1682,-5.196,-5.2126,-5.2321,-5.2516,-5.2601,-5.2743,-5.2768,-5.2737,-5.2792,-5.271,-5.2714,-5.3106,-5.3754,-5.4203,-5.4343,-5.5738,-5.7076,-5.7348,-5.7845,-5.8575,-5.8991,-5.9099,-5.8991,-5.8882,-5.8445,-5.8003,-5.735,-5.647,-5.5758,-5.4937,-5.3641,-5.2737,-5.1995,-5.159,-5.1373,-5.0997,-5.0194,-4.9783,-4.9654,-4.9515,-4.9439,-6.1669,-6.1588,-6.1144,-6.0903,-6.0861,-6.0685,-6.0633,-6.0548,-5.9739,-5.9331,-5.9331,-5.861,-5.8367,-5.8367,-5.8367,-5.8321,-5.8321,-5.8321,-5.8321,-5.8321,-5.8321,-5.8321,-5.8323,-5.842,-5.8451,-5.8508,-5.8622,-5.8379,-5.788,-5.7745,-5.7214,-5.6517,-5.6166,-5.5837,-5.5508,-5.5508,-5.5209,-5.5209,-5.5209,-5.5209,-5.5209,-5.5209,-5.5209,-5.5209,-5.5209,-5.5239,-5.5326,-5.5426,-5.5604,-5.5976,-5.5634,-5.5946,-5.6646,-5.6414,-5.6496,-5.6683,-5.6721,-5.681,-5.7743,-5.8137,-5.8435,-5.8901,-5.8733,-5.8159,-5.708,-5.5492,-5.4479,-5.4086,-5.3026,-5.2582,-5.2587,-5.2923,-5.3177,-5.3295,-5.3438,-5.3776,-5.4,-5.3355,-5.344,-5.3299,-5.336,-5.2939,-5.2771,-5.2715,-5.2715,-5.3192,-5.3613,-5.4176,-5.4798,-5.608,-5.7472,-5.7853,-5.7875,-5.852,-5.8882,-5.8991,-5.8882,-5.8773,-5.8225,-5.764,-5.7185,-5.6504,-5.5424,-5.4488,-5.3245,-5.2398,-5.1964,-5.1677,-5.1408,-5.0883,-5.0219,-4.9847,-4.9654,-4.949,-4.9389,-6.1911,-6.1669,-6.1506,-6.1391,-6.1391,-6.1301,-6.1309,-6.1268,-6.0609,-6.0216,-5.9914,-5.9062,-5.8687,-5.8733,-5.8687,-5.8733,-5.8642,-5.8459,-5.8321,-5.8321,-5.8321,-5.8321,-5.8338,-5.8373,-5.8389,-5.8466,-5.8572,-5.8631,-5.8329,-5.804,-5.7617,-5.7304,-5.6885,-5.6615,-5.6166,-5.6256,-5.6047,-5.5777,-5.5418,-5.5209,-5.5209,-5.5209,-5.5209,-5.5209,-5.5239,-5.5239,-5.5338,-5.5654,-5.5879,-5.6256,-5.6177,-5.6743,-5.7281,-5.7184,-5.7094,-5.8112,-5.7663,-5.7633,-5.8028,-5.8441,-5.88,-5.8979,-5.9099,-5.8757,-5.7902,-5.6368,-5.5267,-5.5859,-5.4417,-5.3748,-5.378,-5.3732,-5.3878,-5.4164,-5.4675,-5.4677,-5.4791,-5.4593,-5.431,-5.4112,-5.3972,-5.375,-5.3443,-5.3217,-5.3385,-5.3782,-5.4149,-5.46,-5.5082,-5.5794,-5.7243,-5.858,-5.8466,-5.847,-5.8664,-5.8828,-5.8605,-5.8386,-5.7722,-5.7274,-5.7162,-5.6422,-5.5509,-5.4709,-5.3858,-5.2997,-5.2257,-5.1583,-5.1163,-5.0695,-5.0295,-4.9976,-4.9719,-4.954,-4.9264,-6.2183,-6.1756,-6.183,-6.187,-6.187,-6.187,-6.1951,-6.1997,-6.1317,-6.0978,-6.06,-5.9739,-5.9241,-5.9241,-5.9197,-5.9152,-5.9152,-5.8687,-5.8504,-5.8459,-5.8367,-5.8321,-5.8274,-5.8306,-5.8306,-5.8274,-5.8465,-5.8548,-5.855,-5.8349,-5.8161,-5.8082,-5.7573,-5.7214,-5.7094,-5.6944,-5.6735,-5.6406,-5.6017,-5.5807,-5.5777,-5.5748,-5.5748,-5.5718,-5.5658,-5.5658,-5.5777,-5.6376,-5.6705,-5.6855,-5.7124,-5.761,-5.8141,-5.7812,-5.7872,-5.859,-5.8441,-5.8321,-5.853,-5.877,-5.9069,-5.9099,-5.9099,-5.9069,-5.8811,-5.7163,-5.6255,-5.7099,-5.5762,-5.5122,-5.5105,-5.4742,-5.4976,-5.518,-5.5384,-5.5329,-5.5273,-5.5415,-5.5302,-5.5074,-5.4933,-5.4961,-5.4594,-5.4055,-5.4114,-5.4458,-5.4771,-5.5054,-5.5509,-5.5965,-5.6904,-5.8331,-5.839,-5.8107,-5.798,-5.8149,-5.8099,-5.7827,-5.7158,-5.6736,-5.6509,-5.6366,-5.5822,-5.5048,-5.4185,-5.3389,-5.2433,-5.1591,-5.0855,-5.0621,-5.0359,-5.0104,-4.9822,-4.9643,-4.9328,-6.2229,-6.1997,-6.2229,-6.2341,-6.2341,-6.2341,-6.2341,-6.2302,-6.1595,-6.1276,-6.1069,-6.043,-6.0001,-5.9914,-5.9739,-5.9684,-5.964,-5.9152,-5.8972,-5.8778,-5.855,-5.8367,-5.8367,-5.8367,-5.8274,-5.8274,-5.8389,-5.8536,-5.8615,-5.8664,-5.8386,-5.8151,-5.8082,-5.7663,-5.7423,-5.7334,-5.7244,-5.7004,-5.6765,-5.6735,-5.6765,-5.6765,-5.6795,-5.6825,-5.6885,-5.6974,-5.6974,-5.7453,-5.7752,-5.7752,-5.7932,-5.8231,-5.862,-5.8321,-5.853,-5.883,-5.9009,-5.886,-5.8949,-5.8979,-5.9069,-5.9099,-5.9099,-5.9099,-5.8985,-5.8232,-5.7743,-5.763,-5.6633,-5.6236,-5.6275,-5.6397,-5.6162,-5.6232,-5.6353,-5.6441,-5.6443,-5.6615,-5.6499,-5.6043,-5.5872,-5.5872,-5.567,-5.5156,-5.4562,-5.4851,-5.4912,-5.5225,-5.5937,-5.6422,-5.682,-5.7637,-5.7807,-5.7658,-5.7185,-5.7159,-5.7173,-5.6812,-5.6221,-5.5936,-5.5703,-5.5616,-5.5442,-5.48,-5.3865,-5.3193,-5.2639,-5.1751,-5.1054,-5.075,-5.0461,-5.0104,-4.9696,-4.9353,-4.9113,-6.203,-6.1837,-6.2263,-6.2415,-6.2415,-6.2415,-6.2415,-6.2341,-6.1917,-6.148,-6.1152,-6.1061,-6.0894,-6.0609,-6.043,-6.0335,-6.0206,-5.9331,-5.9286,-5.9062,-5.8746,-5.855,-5.855,-5.8504,-5.8321,-5.8323,-5.8405,-5.8508,-5.8701,-5.8725,-5.8819,-5.8744,-5.8644,-5.862,-5.8321,-5.7902,-5.7752,-5.7603,-5.7334,-5.7124,-5.7094,-5.7094,-5.7094,-5.7094,-5.7094,-5.7094,-5.7184,-5.7782,-5.8022,-5.8231,-5.8501,-5.88,-5.9039,-5.877,-5.883,-5.9069,-5.9099,-5.9099,-5.9099,-5.9099,-5.9099,-5.9099,-5.9099,-5.9099,-5.9099,-5.8722,-5.8578,-5.8316,-5.7737,-5.7256,-5.7458,-5.7097,-5.6764,-5.7006,-5.7212,-5.7274,-5.7303,-5.7303,-5.7245,-5.6615,-5.67,-5.6787,-5.6526,-5.6237,-5.5639,-5.5242,-5.5278,-5.5366,-5.5963,-5.6448,-5.67,-5.6979,-5.7175,-5.714,-5.6669,-5.6514,-5.633,-5.5736,-5.5225,-5.5074,-5.4828,-5.4675,-5.441,-5.3899,-5.3477,-5.278,-5.2174,-5.1636,-5.1252,-5.0879,-5.0487,-5.0104,-4.9645,-4.9202,-4.9038,-6.2119,-6.187,-6.2223,-6.2415,-6.2415,-6.2415,-6.2415,-6.2381,-6.2189,-6.1877,-6.1432,-6.1676,-6.1635,-6.1309,-6.1103,-6.0969,-6.0675,-6.0076,-5.9816,-5.9508,-5.9107,-5.8882,-5.8882,-5.8792,-5.855,-5.8539,-5.8577,-5.8717,-5.8641,-5.8745,-5.8814,-5.8942,-5.9045,-5.8984,-5.8919,-5.871,-5.8411,-5.8261,-5.8022,-5.7693,-5.7752,-5.7752,-5.7782,-5.7812,-5.7842,-5.7842,-5.7932,-5.8291,-5.8441,-5.862,-5.88,-5.9039,-5.9099,-5.9099,-5.9099,-5.9099,-5.9099,-5.9099,-5.9099,-5.9099,-5.9099,-5.9099,-5.9099,-5.9099,-5.9099,-5.9099,-5.8955,-5.8955,-5.8435,-5.8213,-5.836,-5.7761,-5.7339,-5.7494,-5.7299,-5.7303,-5.7303,-5.7303,-5.7303,-5.7131,-5.7245,-5.716,-5.6899,-5.6551,-5.5834,-5.5351,-5.5322,-5.53,-5.5499,-5.5868,-5.6066,-5.6287,-5.6537,-5.6443,-5.6263,-5.5776,-5.5279,-5.4458,-5.4083,-5.4114,-5.3974,-5.3844,-5.3719,-5.3504,-5.3017,-5.2342,-5.1917,-5.1554,-5.1268,-5.0968,-5.0423,-4.9847,-4.9733,-4.9339,-4.9238,-6.2596,-6.207,-6.2302,-6.2415,-6.2415,-6.2415,-6.2415,-6.2415,-6.2381,-6.2302,-6.2223,-6.211,-6.1997,-6.1877,-6.1669,-6.1506,-6.1301,-6.0802,-6.0506,-6.0206,-5.9564,-5.9375,-5.9375,-5.9286,-5.9017,-5.9004,-5.8924,-5.8797,-5.8584,-5.8607,-5.8712,-5.8884,-5.8972,-5.9024,-5.9069,-5.9099,-5.9069,-5.9039,-5.8949,-5.886,-5.88,-5.877,-5.874,-5.874,-5.871,-5.868,-5.871,-5.877,-5.889,-5.8949,-5.9009,-5.9099,-5.9099,-5.9099,-5.9099,-5.9099,-5.9099,-5.9099,-5.9099,-5.9099,-5.9099,-5.9099,-5.9099,-5.9099,-5.9099,-5.9099,-5.9099,-5.9099,-5.8925,-5.8763,-5.8664,-5.836,-5.8055,-5.7666,-5.7416,-5.7416,-5.7416,-5.7303,-5.7303,-5.736,-5.736,-5.7245,-5.7042,-5.6667,-5.5919,-5.5458,-5.5394,-5.5311,-5.5288,-5.5603,-5.5861,-5.5681,-5.59,-5.59,-5.5616,-5.4845,-5.4233,-5.3382,-5.2986,-5.3076,-5.322,-5.3268,-5.3113,-5.3017,-5.265,-5.2094,-5.1846,-5.157,-5.1157,-5.0741,-5.0104,-4.9654,-4.9565,-4.954,-4.9414,-6.2112,-6.2037,-6.2302,-6.2415,-6.2415,-6.2415,-6.2415,-6.2415,-6.2415,-6.2415,-6.2381,-6.2268,-6.2268,-6.2223,-6.203,-6.1837,-6.1676,-6.1185,-6.0853,-6.0969,-6.0173,-6.0044,-6.0033,-5.987,-5.9608,-5.9419,-5.9216,-5.9097,-5.9002,-5.8702,-5.8665,-5.8836,-5.8964,-5.9021,-5.9093,-5.9099,-5.9099,-5.9099,-5.9099,-5.9099,-5.9099,-5.9099,-5.9099,-5.9099,-5.9099,-5.9099,-5.9099,-5.9099,-5.9099,-5.9099,-5.9099,-5.9099,-5.9099,-5.9099,-5.9099,-5.9099,-5.9099,-5.9099,-5.9099,-5.9099,-5.9099,-5.9099,-5.9099,-5.9099,-5.9099,-5.9099,-5.9099,-5.9099,-5.9099,-5.8882,-5.8415,-5.8555,-5.825,-5.764,-5.7416,-5.7613,-5.7669,-5.7416,-5.736,-5.7472,-5.7528,-5.7127,-5.6839,-5.672,-5.6087,-5.5655,-5.5507,-5.5304,-5.5249,-5.5684,-5.6,-5.5333,-5.5155,-5.5242,-5.5028,-5.44,-5.3893,-5.3226,-5.2544,-5.2103,-5.2253,-5.2562,-5.2465,-5.228,-5.2032,-5.1846,-5.1659,-5.1408,-5.0905,-5.0423,-4.9912,-4.9654,-4.959,-4.959,-4.9565,-6.2643,-6.2925,-6.3119,-6.299,-6.2753,-6.2516,-6.2415,-6.2415,-6.2415,-6.2415,-6.2381,-6.2415,-6.2415,-6.2341,-6.2229,-6.2037,-6.1957,-6.1602,-6.1309,-6.1424,-6.082,-6.0727,-6.0685,-6.0515,-6.0345,-6.0044,-5.9804,-5.9543,-5.9182,-5.886,-5.8754,-5.8838,-5.8972,-5.9038,-5.9087,-5.9099,-5.9099,-5.9099,-5.9099,-5.9099,-5.9099,-5.9099,-5.9099,-5.9099,-5.9099,-5.9099,-5.9099,-5.9099,-5.9099,-5.9099,-5.9099,-5.9099,-5.9099,-5.9099,-5.9099,-5.9099,-5.9099,-5.9099,-5.9099,-5.9099,-5.9099,-5.9099,-5.9099,-5.9099,-5.9099,-5.9099,-5.9099,-5.9099,-5.9099,-5.8828,-5.8555,-5.8694,-5.839,-5.7751,-5.7584,-5.7781,-5.7725,-5.7528,-5.7416,-5.7584,-5.7499,-5.7096,-5.6694,-5.6517,-5.6281,-5.5965,-5.5649,-5.5416,-5.5184,-5.5503,-5.5768,-5.5137,-5.4793,-5.4887,-5.4678,-5.4092,-5.3569,-5.3061,-5.2359,-5.1632,-5.1659,-5.2032,-5.1783,-5.1596,-5.1659,-5.1721,-5.1534,-5.122,-5.0778,-5.0359,-4.9976,-4.9719,-4.959,-4.959,-4.959,-6.4169,-6.4573,-6.458,-6.414,-6.3497,-6.2888,-6.255,-6.2482,-6.2482,-6.2448,-6.2415,-6.2448,-6.2482,-6.2415,-6.2381,-6.2229,-6.2076,-6.1997,-6.1837,-6.1709,-6.1309,-6.1391,-6.135,-6.1227,-6.102,-6.0936,-6.06,-5.999,-5.9407,-5.8899,-5.8779,-5.8739,-5.8897,-5.8942,-5.9068,-5.9093,-5.9123,-5.9099,-5.9099,-5.9099,-5.9099,-5.9099,-5.9099,-5.9099,-5.9099,-5.9099,-5.9099,-5.9099,-5.9099,-5.9099,-5.9099,-5.9099,-5.9099,-5.9099,-5.9099,-5.9099,-5.9099,-5.9099,-5.9099,-5.9099,-5.9099,-5.9099,-5.9099,-5.9099,-5.9099,-5.9099,-5.9099,-5.9099,-5.9099,-5.8966,-5.8748,-5.8609,-5.85,-5.8114,-5.7892,-5.7892,-5.7836,-5.7725,-5.764,-5.7584,-5.7528,-5.7241,-5.6953,-5.6691,-5.645,-5.6045,-5.5671,-5.5322,-5.5064,-5.4952,-5.5105,-5.4803,-5.4579,-5.4672,-5.4262,-5.3627,-5.3347,-5.2913,-5.225,-5.1596,-5.1596,-5.1596,-5.1596,-5.1596,-5.1596,-5.1534,-5.1534,-5.122,-5.0778,-5.0334,-5.004,-4.9783,-4.9654,-4.959,-4.959,-6.4044,-6.4573,-6.445,-6.4315,-6.4275,-6.4038,-6.3666,-6.3226,-6.3193,-6.2956,-6.2415,-6.2956,-6.2888,-6.2415,-6.2415,-6.2341,-6.2302,-6.2229,-6.2076,-6.1917,-6.187,-6.183,-6.179,-6.1676,-6.1595,-6.1391,-6.1061,-6.06,-5.9781,-5.9188,-5.8688,-5.859,-5.8808,-5.8902,-5.898,-5.9075,-5.9063,-5.9099,-5.9099,-5.9099,-5.9099,-5.9099,-5.9099,-5.9099,-5.9099,-5.9099,-5.9099,-5.9099,-5.9099,-5.9099,-5.9099,-5.9099,-5.9099,-5.9099,-5.9099,-5.9099,-5.9099,-5.9099,-5.9099,-5.9099,-5.9099,-5.9099,-5.9099,-5.9099,-5.9099,-5.9099,-5.9099,-5.9099,-5.9099,-5.8936,-5.8912,-5.8773,-5.8555,-5.8225,-5.8114,-5.8169,-5.8059,-5.7836,-5.7781,-5.7781,-5.7696,-5.7411,-5.7122,-5.6858,-5.6559,-5.6125,-5.575,-5.543,-5.5259,-5.5209,-5.5018,-5.4803,-5.4566,-5.4769,-5.3889,-5.3175,-5.3,-5.2695,-5.2024,-5.1596,-5.1596,-5.1596,-5.1596,-5.1596,-5.1596,-5.1596,-5.1596,-5.122,-5.0778,-5.055,-5.0232,-4.9912,-4.9744,-4.9654,-4.959,-6.464,-6.5286,-6.5202,-6.5286,-6.535,-6.485,-6.4444,-6.4309,-6.4106,-6.3666,-6.3294,-6.3429,-6.326,-6.2854,-6.2584,-6.2415,-6.2381,-6.2381,-6.2268,-6.2229,-6.2341,-6.2223,-6.207,-6.207,-6.207,-6.187,-6.1554,-6.1111,-6.0357,-5.9428,-5.8813,-5.8906,-5.8935,-5.8847,-5.8918,-5.9008,-5.9123,-5.9099,-5.9099,-5.9099,-5.9099,-5.9099,-5.9099,-5.9099,-5.9099,-5.9099,-5.9099,-5.9099,-5.9099,-5.9099,-5.9099,-5.9099,-5.9099,-5.9099,-5.9099,-5.9099,-5.9099,-5.9099,-5.9099,-5.9099,-5.9099,-5.9099,-5.9099,-5.9099,-5.9099,-5.9099,-5.9099,-5.9099,-5.9099,-5.9045,-5.8991,-5.8936,-5.8609,-5.828,-5.839,-5.8555,-5.8335,-5.8003,-5.7948,-5.8003,-5.7804,-5.7576,-5.7286,-5.702,-5.6844,-5.6702,-5.6472,-5.618,-5.6042,-5.6049,-5.5797,-5.5548,-5.5138,-5.4826,-5.3779,-5.2854,-5.2615,-5.2402,-5.1927,-5.1596,-5.1596,-5.1596,-5.1596,-5.1596,-5.1596,-5.1596,-5.1596,-5.1309,-5.0931,-5.0703,-5.0372,-5.0052,-4.9794,-4.959,-4.959,-6.5444,-6.6195,-6.6406,-6.6432,-6.6567,-6.5392,-6.5189,-6.5662,-6.5087,-6.4681,-6.4444,-6.3971,-6.3768,-6.3497,-6.299,-6.2651,-6.2584,-6.2516,-6.2381,-6.2381,-6.2381,-6.2341,-6.2341,-6.2415,-6.2302,-6.2302,-6.207,-6.1561,-6.0986,-6.0131,-5.9434,-5.9486,-5.9135,-5.8985,-5.9072,-5.9138,-5.9265,-5.9345,-5.9345,-5.9291,-5.9153,-5.9099,-5.9099,-5.9099,-5.9099,-5.9099,-5.9099,-5.9099,-5.9099,-5.9099,-5.9099,-5.9099,-5.9099,-5.9099,-5.9099,-5.9099,-5.9099,-5.9099,-5.9099,-5.9099,-5.9099,-5.9099,-5.9099,-5.9099,-5.9099,-5.9099,-5.9099,-5.9099,-5.9099,-5.9099,-5.9045,-5.9045,-5.8773,-5.8609,-5.8609,-5.8664,-5.85,-5.8225,-5.8114,-5.8114,-5.8029,-5.7772,-5.7283,-5.6961,-5.6929,-5.7134,-5.6881,-5.6589,-5.6825,-5.6805,-5.6216,-5.5849,-5.5134,-5.4453,-5.3512,-5.2715,-5.2306,-5.2006,-5.1773,-5.1659,-5.1596,-5.1596,-5.1596,-5.1596,-5.1596,-5.1596,-5.1534,-5.1246,-5.1008,-5.0844,-5.055,-5.0178,-4.996,-4.9866,-4.969,-6.4662,-6.4682,-6.5388,-6.6061,-6.6703,-6.644,-6.6339,-6.6542,-6.6373,-6.5628,-6.4816,-6.4918,-6.4816,-6.4241,-6.3565,-6.326,-6.3159,-6.2753,-6.2448,-6.2448,-6.2482,-6.2482,-6.2415,-6.2448,-6.2415,-6.2415,-6.2263,-6.1957,-6.1317,-6.0558,-5.9892,-5.9709,-5.9503,-5.9471,-5.9271,-5.944,-5.9544,-5.966,-5.9667,-5.9506,-5.9207,-5.9153,-5.9099,-5.9099,-5.9099,-5.9099,-5.9099,-5.9099,-5.9099,-5.9099,-5.9099,-5.9099,-5.9099,-5.9099,-5.9099,-5.9099,-5.9099,-5.9099,-5.9099,-5.9099,-5.9099,-5.9099,-5.9099,-5.9099,-5.9099,-5.9099,-5.9099,-5.9099,-5.9099,-5.9099,-5.9099,-5.9045,-5.9045,-5.8936,-5.8828,-5.8803,-5.8748,-5.85,-5.828,-5.8169,-5.8169,-5.7853,-5.7364,-5.7134,-5.7071,-5.6932,-5.6683,-5.6575,-5.7185,-5.725,-5.6019,-5.5437,-5.4616,-5.3842,-5.319,-5.2704,-5.249,-5.2223,-5.1973,-5.1805,-5.1701,-5.1858,-5.2014,-5.1727,-5.1596,-5.1831,-5.1784,-5.1109,-5.0895,-5.1037,-5.0958,-5.0684,-5.0741,-5.0695,-5.0218,-6.4276,-6.4564,-6.5607,-6.6314,-6.6736,-6.6812,-6.6812,-6.6812,-6.6812,-6.6373,-6.5628,-6.5628,-6.5459,-6.4986,-6.4343,-6.4005,-6.3869,-6.3226,-6.3328,-6.326,-6.2753,-6.2719,-6.2651,-6.2584,-6.2415,-6.2415,-6.2381,-6.211,-6.1676,-6.1111,-6.0558,-6.0174,-6.0096,-5.9852,-5.9621,-5.963,-5.985,-5.9955,-6.0039,-5.9796,-5.9476,-5.9369,-5.9315,-5.9261,-5.9153,-5.9153,-5.9099,-5.9099,-5.9099,-5.9099,-5.9099,-5.9099,-5.9099,-5.9099,-5.9099,-5.9099,-5.9099,-5.9099,-5.9099,-5.9099,-5.9099,-5.9099,-5.9099,-5.9099,-5.9099,-5.9099,-5.9099,-5.9099,-5.9099,-5.9099,-5.9099,-5.9099,-5.9045,-5.8991,-5.8936,-5.8936,-5.8882,-5.8719,-5.8555,-5.8474,-5.8534,-5.8622,-5.8191,-5.7908,-5.7993,-5.8693,-5.8124,-5.7462,-5.7848,-5.7513,-5.6286,-5.5265,-5.4588,-5.4226,-5.3967,-5.3412,-5.2806,-5.2548,-5.225,-5.2433,-5.2537,-5.2485,-5.2433,-5.2302,-5.2302,-5.2511,-5.2204,-5.1715,-5.155,-5.1806,-5.1609,-5.1307,-5.1371,-5.1423,-5.0996,-6.4042,-6.5143,-6.6163,-6.6703,-6.6812,-6.6812,-6.6812,-6.6812,-6.6812,-6.6812,-6.6643,-6.6068,-6.5865,-6.5595,-6.5087,-6.4884,-6.4512,-6.3937,-6.4106,-6.4005,-6.3294,-6.3193,-6.3091,-6.2922,-6.2651,-6.2448,-6.2415,-6.2381,-6.2263,-6.1676,-6.1219,-6.0807,-6.0497,-6.0131,-5.9929,-5.9936,-6.0206,-6.0362,-6.0368,-6.0158,-5.9925,-5.9773,-5.9636,-5.9476,-5.9315,-5.9153,-5.9153,-5.9099,-5.9099,-5.9099,-5.9099,-5.9099,-5.9099,-5.9099,-5.9099,-5.9099,-5.9099,-5.9099,-5.9099,-5.9099,-5.9099,-5.9099,-5.9099,-5.9099,-5.9099,-5.9099,-5.9099,-5.9099,-5.9099,-5.9099,-5.9099,-5.9099,-5.9099,-5.9099,-5.9045,-5.8991,-5.8936,-5.8966,-5.8887,-5.8753,-5.8961,-5.9139,-5.8999,-5.8715,-5.9125,-5.9803,-5.9836,-5.9339,-5.8715,-5.7678,-5.6531,-5.5724,-5.5069,-5.4807,-5.442,-5.3922,-5.3138,-5.3034,-5.2903,-5.3191,-5.3321,-5.306,-5.2981,-5.3164,-5.3191,-5.3138,-5.3009,-5.266,-5.2634,-5.2448,-5.217,-5.1889,-5.1951,-5.19,-5.1724,-6.3735,-6.5354,-6.5607,-6.6104,-6.6736,-6.6812,-6.6812,-6.6812,-6.6812,-6.6812,-6.6779,-6.6745,-6.6609,-6.6542,-6.5797,-6.5459,-6.5358,-6.4749,-6.4478,-6.4377,-6.4106,-6.3869,-6.3531,-6.3125,-6.2888,-6.2618,-6.2415,-6.2415,-6.2448,-6.2257,-6.1911,-6.1417,-6.1983,-6.1786,-6.1523,-6.1374,-6.115,-6.1171,-6.0803,-6.0537,-6.0442,-6.0241,-5.9933,-5.9773,-5.9613,-5.9476,-5.9369,-5.9207,-5.9153,-5.9099,-5.9099,-5.9099,-5.9099,-5.9099,-5.9099,-5.9099,-5.9099,-5.9099,-5.9099,-5.9099,-5.9099,-5.9099,-5.9099,-5.9099,-5.9099,-5.9099,-5.9099,-5.9099,-5.9099,-5.9099,-5.9099,-5.9099,-5.9099,-5.9099,-5.9099,-5.8936,-5.8882,-5.9086,-5.9205,-5.9389,-5.9632,-5.9781,-5.9789,-5.9678,-5.9826,-6.0215,-5.9991,-5.9554,-5.9262,-5.811,-5.6919,-5.6256,-5.5609,-5.4505,-5.3842,-5.3971,-5.353,-5.3478,-5.3504,-5.3713,-5.3713,-5.3426,-5.3426,-5.3739,-5.357,-5.3413,-5.3309,-5.3452,-5.3045,-5.2803,-5.2613,-5.2405,-5.2438,-5.2427,-5.2251]},{"header":{"parameterUnit":"m.s-1","parameterCategory":1,"la1":31.0,"la2":29.5877,"lo1":-88.7671,"lo2":-86.6584,"dy":0.0162,"dx":0.0185,"nx":115,"ny":88,"refTime":"2024-03-01T06:00:00:Z","depth":0,"parameterNumber":3,"parameterNumberName":"V-component_of_WINDS"},"data":[0.0,0.0,0.0,0.0,0.0,0.0,0.0,0.0,0.0,0.0,0.0,0.0,0.0,0.0,0.0,0.0,0.0,0.0,0.0,0.0,0.0,0.0,0.0,0.0,0.0,0.0,0.0,0.0,0.0,0.0,0.0,0.0,0.0,0.0,0.0,0.0,0.0,0.0,0.0,0.0,0.0,0.0,0.0,0.0,0.0,0.0,0.0,0.0,0.0,0.0,0.0,0.0,0.0,0.0,0.0,0.0,0.0,0.0,0.0,0.0,0.0,0.0,0.0,0.0,0.0,0.0,0.0,0.0,0.0,0.0,0.0,0.0,0.0,0.0,0.0,0.0,0.0,0.0,0.0,0.0,0.0,0.0,0.0,0.0,0.0,0.0,0.0,0.0,0.0,0.0,0.0,0.0,0.0,0.0,0.0,0.0,0.0,0.0,0.0,0.0,0.0,0.0,0.0,0.0,0.0,0.0,0.0,0.0,0.0,0.0,0.0,0.0,0.0,0.0,0.0,0.0,0.0,0.0,0.0,0.0,0.0,0.0,0.0,0.0,0.0,0.0,0.0,0.0,0.0,0.0,0.0,0.0,0.0,0.0,0.0,0.0,0.0,0.0,0.0,0.0,0.0,0.0,0.0,0.0,0.0,0.0,0.0,0.0,0.0,0.0,0.0,0.0,0.0,0.0,0.0,0.0,0.0,0.0,0.0,0.0,0.0,0.0,0.0,0.0,0.0,0.0,0.0,0.0,0.0,0.0,0.0,0.0,0.0,0.0,0.0,0.0,0.0,0.0,0.0,0.0,0.0,0.0,0.0,0.0,0.0,0.0,0.0,0.0,0.0,0.0,0.0,0.0,0.0,0.0,0.0,0.0,0.0,0.0,0.0,0.0,0.0,0.0,0.0,0.0,0.0,0.0,0.0,0.0,0.0,0.0,0.0,0.0,0.0,0.0,0.0,0.0,0.0,0.0,0.0,0.0,0.0,0.0,0.0,0.0,0.0,0.0,0.0,0.0,0.0,0.0,0.0,0.0,0.0,0.0,0.0,0.0,0.0,0.0,0.0,0.0,0.0,0.0,0.0,0.0,0.0,0.0,0.0,0.0,0.0,0.0,0.0,0.0,0.0,0.0,0.0,0.0,0.0,0.0,0.0,0.0,0.0,0.0,0.0,0.0,0.0,0.0,0.0,0.0,0.0,0.0,0.0,0.0,0.0,0.0,0.0,0.0,0.0,0.0,0.0,0.0,0.0,0.0,0.0,0.0,0.0,0.0,0.0,0.0,0.0,0.0,0.0,0.0,0.0,0.0,0.0,0.0,0.0,0.0,0.0,0.0,0.0,0.0,0.0,0.0,0.0,0.0,0.0,0.0,0.0,0.0,0.0,0.0,0.0,0.0,0.0,0.0,0.0,0.0,0.0,0.0,0.0,0.0,0.0,0.0,0.0,0.0,0.0,0.0,0.0,0.0,0.0,0.0,0.0,0.0,0.0,0.0,0.0,0.0,0.0,0.0,0.0,0.0,0.0,0.0,0.0,0.0,0.0,0.0,0.0,0.0,0.0,0.0,0.0,0.0,0.0,0.0,0.0,0.0,0.0,0.0,0.0,0.0,0.0,0.0,0.0,0.0,0.0,0.0,0.0,0.0,0.0,0.0,0.0,0.0,0.0,0.0,0.0,0.0,0.0,0.0,0.0,0.0,0.0,0.0,0.0,0.0,0.0,0.0,0.0,0.0,0.0,0.0,0.0,0.0,0.0,0.0,0.0,0.0,0.0,0.0,0.0,0.0,0.0,0.0,0.0,0.0,0.0,0.0,0.0,0.0,0.0,0.0,0.0,0.0,0.0,0.0,0.0,0.0,0.0,0.0,0.0,0.0,0.0,0.0,0.0,0.0,0.0,0.0,0.0,0.0,0.0,0.0,0.0,0.0,0.0,0.0,0.0,0.0,0.0,0.0,0.0,0.0,0.0,0.0,0.0,0.0,0.0,0.0,0.0,0.0,0.0,0.0,0.0,0.0,0.0,0.0,0.0,0.0,0.0,0.0,0.0,0.0,0.0,0.0,0.0,0.0,0.0,0.0,0.0,0.0,0.0,0.0,0.0,0.0,0.0,0.0,0.0,0.0,0.0,0.0,0.0,0.0,0.0,0.0,0.0,0.0,0.0,0.0,0.0,0.0,0.0,0.0,0.0,0.0,0.0,0.0,0.0,0.0,0.0,0.0,0.0,0.0,0.0,0.0,0.0,0.0,0.0,0.0,0.0,0.0,0.0,0.0,0.0,0.0,0.0,0.0,0.0,0.0,0.0,0.0,0.0,0.0,0.0,0.0,0.0,0.0,0.0,0.0,0.0,0.0,0.0,0.0,0.0,0.0,0.0,0.0,0.0,0.0,0.0,0.0,0.0,0.0,0.0,0.0,0.0,0.0,0.0,0.0,0.0,0.0,0.0,0.0,0.0,0.0,0.0,0.0,0.0,0.0,0.0,0.0,0.0,0.0,0.0,0.0,0.0,0.0,0.0,0.0,0.0,0.0,0.0,0.0,0.0,0.0,0.0,0.0,0.0,0.0,0.0,0.0,0.0,0.0,0.0,0.0,0.0,0.0,0.0,0.0,0.0,0.0,0.0,0.0,0.0,0.0,0.0,0.0,0.0,0.0,0.0,0.0,0.0,0.0,0.0,0.0,0.0,0.0,0.0,0.0,0.0,0.0,0.0,0.0,0.0,0.0,0.0,0.0,0.0,0.0,0.0,0.0,0.0,0.0,0.0,0.0,0.0,0.0,0.0,0.0,0.0,0.0,0.0,0.0,0.0,0.0,0.0,0.0,0.0,0.0,0.0,0.0,0.0,0.0,0.0,0.0,0.0,0.0,0.0,0.0,0.0,0.0,0.0,0.0,0.0,0.0,0.0,0.0,0.0,0.0,0.0,0.0,0.0,0.0,0.0,0.0,0.0,0.0,0.0,0.0,0.0,0.0,0.0,0.0,0.0,0.0,0.0,0.0,0.0,0.0,0.0,0.0,0.0,0.0,0.0,0.0,0.0,0.0,0.0,0.0,0.0,0.0,0.0,0.0,0.0,0.0,0.0,0.0,0.0,0.0,0.0,0.0,0.0,0.0,0.0,0.0,0.0,0.0,0.0,0.0,0.0,0.0,0.0,0.0,0.0,0.0,0.0,0.0,0.0,0.0,0.0,0.0,0.0,0.0,0.0,0.0,0.0,0.0,0.0,0.0,0.0,0.0,0.0,0.0,0.0,0.0,0.0,0.0,0.0,0.0,0.0,0.0,0.0,0.0,0.0,0.0,0.0,0.0,0.0,0.0,0.0,0.0,0.0,0.0,0.0,0.0,0.0,0.0,0.0,0.0,0.0,0.0,0.0,0.0,0.0,0.0,0.0,0.0,0.0,0.0,0.0,0.0,0.0,0.0,0.0,0.0,0.0,0.0,0.0,0.0,0.0,0.0,0.0,0.0,0.0,0.0,0.0,0.0,0.0,0.0,0.0,0.0,0.0,0.0,0.0,0.0,0.0,0.0,0.0,0.0,0.0,0.0,0.0,0.0,0.0,0.0,0.0,0.0,0.0,0.0,0.0,0.0,0.0,0.0,0.0,0.0,0.0,0.0,0.0,0.0,0.0,0.0,0.0,0.0,0.0,0.0,0.0,0.0,0.0,0.0,0.0,0.0,0.0,0.0,0.0,0.0,0.0,0.0,0.0,0.0,0.0,0.0,0.0,0.0,0.0,0.0,0.0,0.0,0.0,0.0,0.0,0.0,0.0,0.0,0.0,0.0,0.0,0.0,0.0,0.0,0.0,0.0,0.0,0.0,0.0,0.0,0.0,0.0,0.0,0.0,0.0,0.0,0.0,0.0,0.0,0.0,0.0,0.0,0.0,0.0,0.0,0.0,0.0,0.0,0.0,0.0,0.0,0.0,0.0,0.0,0.0,0.0,0.0,0.0,0.0,0.0,0.0,0.0,0.0,0.0,0.0,0.0,0.0,0.0,0.0,0.0,0.0,0.0,0.0,0.0,0.0,0.0,0.0,0.0,0.0,0.0,0.0,0.0,0.0,0.0,0.0,0.0,0.0,0.0,0.0,0.0,0.0,0.0,0.0,0.0,0.0,0.0,0.0,0.0,0.0,0.0,0.0,0.0,0.0,0.0,0.0,0.0,0.0,0.0,0.0,0.0,0.0,0.0,0.0,0.0,0.0,0.0,0.0,0.0,0.0,0.0,0.0,0.0,0.0,0.0,0.0,0.0,0.0,0.0,0.0,0.0,0.0,0.0,2.8405,0.0,0.0,0.0,0.0,0.0,0.0,0.0,0.0,0.0,0.0,0.0,0.0,0.0,0.0,0.0,0.0,0.0,0.0,0.0,0.0,0.0,0.0,0.0,0.0,0.0,0.0,0.0,0.0,0.0,0.0,0.0,0.0,0.0,0.0,0.0,0.0,0.0,0.0,0.0,0.0,0.0,0.0,0.0,0.0,0.0,0.0,0.0,0.0,0.0,0.0,0.0,0.0,0.0,0.0,0.0,0.0,0.0,0.0,0.0,0.0,0.0,0.0,0.0,0.0,0.0,0.0,0.0,0.0,0.0,0.0,0.0,0.0,0.0,0.0,0.0,0.0,0.0,0.0,0.0,0.0,0.0,0.0,0.0,0.0,0.0,0.0,0.0,0.0,0.0,0.0,0.0,0.0,0.0,0.0,0.0,0.0,0.0,0.0,0.0,0.0,0.0,0.0,0.0,0.0,0.0,0.0,0.0,0.0,0.0,0.0,3.0853,3.0522,2.9953,2.9475,2.9172,0.0,0.0,0.0,0.0,0.0,0.0,0.0,0.0,0.0,0.0,0.0,0.0,0.0,0.0,0.0,0.0,0.0,0.0,0.0,0.0,0.0,0.0,0.0,0.0,0.0,0.0,0.0,0.0,0.0,0.0,0.0,0.0,0.0,0.0,0.0,0.0,0.0,0.0,0.0,0.0,0.0,0.0,0.0,0.0,0.0,0.0,0.0,0.0,0.0,0.0,0.0,0.0,0.0,0.0,0.0,0.0,0.0,0.0,0.0,0.0,0.0,0.0,0.0,0.0,0.0,0.0,0.0,0.0,0.0,0.0,0.0,0.0,0.0,0.0,0.0,0.0,0.0,0.0,0.0,0.0,0.0,0.0,0.0,0.0,0.0,0.0,0.0,0.0,0.0,0.0,0.0,0.0,0.0,0.0,0.0,0.0,0.0,0.0,0.0,0.0,0.0,0.0,0.0,0.0,0.0,0.0,0.0,0.0,0.0,0.0,0.0,0.0,3.0582,3.0223,2.9651,0.0,0.0,0.0,0.0,0.0,0.0,0.0,0.0,0.0,0.0,0.0,0.0,0.0,0.0,0.0,0.0,0.0,0.0,0.0,0.0,0.0,0.0,0.0,0.0,0.0,0.0,0.0,0.0,0.0,0.0,0.0,0.0,0.0,0.0,0.0,0.0,0.0,0.0,0.0,0.0,0.0,0.0,0.0,0.0,0.0,0.0,0.0,0.0,0.0,0.0,0.0,0.0,0.0,0.0,0.0,0.0,0.0,0.0,0.0,0.0,0.0,0.0,0.0,0.0,0.0,0.0,0.0,0.0,0.0,0.0,0.0,0.0,0.0,0.0,0.0,0.0,0.0,0.0,0.0,0.0,0.0,0.0,0.0,0.0,0.0,0.0,0.0,0.0,0.0,0.0,0.0,0.0,0.0,0.0,0.0,0.0,0.0,0.0,0.0,0.0,0.0,0.0,0.0,0.0,0.0,0.0,0.0,0.0,0.0,0.0,3.1481,3.1421,3.0821,0.0,2.9681,0.0,0.0,0.0,0.0,0.0,0.0,0.0,0.0,0.0,0.0,0.0,0.0,0.0,0.0,0.0,0.0,0.0,0.0,0.0,0.0,0.0,0.0,0.0,0.0,0.0,0.0,0.0,0.0,0.0,0.0,0.0,0.0,0.0,0.0,0.0,0.0,0.0,0.0,0.0,0.0,0.0,0.0,0.0,0.0,0.0,0.0,0.0,0.0,0.0,0.0,0.0,0.0,0.0,0.0,0.0,0.0,0.0,0.0,0.0,0.0,0.0,0.0,0.0,0.0,0.0,0.0,0.0,0.0,0.0,0.0,0.0,0.0,0.0,0.0,0.0,0.0,0.0,0.0,0.0,0.0,0.0,0.0,0.0,0.0,0.0,0.0,0.0,0.0,0.0,0.0,0.0,0.0,0.0,0.0,0.0,0.0,0.0,0.0,0.0,0.0,0.0,0.0,0.0,0.0,0.0,0.0,0.0,0.0,0.0,0.0,3.1511,3.1511,3.1241,3.0793,0.0,0.0,0.0,0.0,0.0,0.0,0.0,0.0,0.0,0.0,0.0,0.0,0.0,0.0,0.0,0.0,0.0,0.0,0.0,0.0,0.0,0.0,0.0,0.0,0.0,0.0,0.0,0.0,0.0,0.0,0.0,0.0,0.0,0.0,0.0,0.0,0.0,0.0,0.0,0.0,0.0,0.0,0.0,0.0,0.0,0.0,0.0,0.0,0.0,0.0,0.0,0.0,0.0,0.0,0.0,0.0,0.0,0.0,0.0,0.0,0.0,0.0,0.0,0.0,0.0,0.0,0.0,0.0,0.0,0.0,0.0,0.0,0.0,0.0,0.0,0.0,0.0,0.0,0.0,0.0,0.0,0.0,0.0,0.0,0.0,0.0,0.0,0.0,0.0,0.0,0.0,0.0,0.0,0.0,0.0,0.0,0.0,0.0,0.0,0.0,0.0,0.0,0.0,0.0,0.0,0.0,0.0,0.0,0.0,0.0,3.1511,3.1511,3.1511,3.1511,3.1271,3.0791,0.0,0.0,0.0,0.0,0.0,0.0,0.0,0.0,0.0,0.0,0.0,0.0,0.0,0.0,0.0,0.0,0.0,0.0,0.0,0.0,0.0,0.0,0.0,0.0,0.0,0.0,0.0,0.0,0.0,0.0,0.0,0.0,0.0,0.0,0.0,0.0,0.0,0.0,0.0,0.0,0.0,0.0,0.0,0.0,0.0,0.0,0.0,0.0,0.0,0.0,0.0,0.0,0.0,0.0,0.0,0.0,0.0,0.0,0.0,0.0,0.0,0.0,0.0,0.0,0.0,0.0,0.0,0.0,0.0,0.0,0.0,0.0,0.0,0.0,0.0,0.0,0.0,0.0,0.0,0.0,0.0,0.0,0.0,0.0,0.0,0.0,0.0,0.0,0.0,0.0,0.0,0.0,0.0,0.0,0.0,0.0,0.0,0.0,0.0,0.0,0.0,0.0,0.0,0.0,0.0,0.0,0.0,0.0,3.1511,3.1511,3.1511,3.1511,3.1511,3.1481,0.0,0.0,0.0,0.0,0.0,0.0,0.0,0.0,0.0,0.0,0.0,0.0,0.0,0.0,0.0,0.0,0.0,0.0,0.0,0.0,0.0,0.0,0.0,0.0,0.0,0.0,0.0,0.0,0.0,0.0,0.0,0.0,0.0,0.0,0.0,0.0,0.0,0.0,0.0,0.0,0.0,0.0,0.0,0.0,0.0,0.0,0.0,0.0,0.0,0.0,0.0,0.0,0.0,0.0,0.0,0.0,0.0,0.0,0.0,0.0,0.0,0.0,0.0,0.0,0.0,0.0,0.0,0.0,0.0,0.0,0.0,0.0,0.0,0.0,0.0,0.0,0.0,0.0,0.0,0.0,0.0,0.0,0.0,0.0,0.0,0.0,0.0,0.0,0.0,0.0,0.0,0.0,0.0,0.0,0.0,0.0,0.0,0.0,0.0,0.0,0.0,0.0,0.0,0.0,0.0,0.0,0.0,0.0,0.0,3.1511,3.1929,3.2138,3.2138,3.2138,3.1929,0.0,0.0,0.0,0.0,0.0,0.0,0.0,0.0,0.0,0.0,0.0,0.0,0.0,0.0,0.0,0.0,0.0,0.0,0.0,0.0,0.0,0.0,0.0,0.0,0.0,0.0,0.0,0.0,0.0,0.0,0.0,0.0,0.0,0.0,0.0,0.0,0.0,0.0,0.0,0.0,0.0,0.0,0.0,0.0,0.0,0.0,0.0,0.0,0.0,0.0,0.0,0.0,0.0,0.0,0.0,0.0,0.0,0.0,0.0,0.0,0.0,0.0,0.0,0.0,0.0,0.0,0.0,0.0,0.0,0.0,0.0,0.0,0.0,0.0,0.0,0.0,0.0,0.0,0.0,0.0,0.0,0.0,0.0,0.0,0.0,0.0,0.0,0.0,0.0,0.0,0.0,0.0,0.0,0.0,0.0,0.0,0.0,0.0,0.0,0.0,0.0,0.0,0.0,0.0,0.0,0.0,0.0,0.0,0.0,3.2138,0.0,3.2796,3.2826,3.2796,3.2527,0.0,0.0,0.0,0.0,0.0,0.0,0.0,0.0,0.0,0.0,0.0,0.0,0.0,0.0,0.0,0.0,0.0,0.0,0.0,0.0,0.0,0.0,0.0,0.0,0.0,0.0,0.0,0.0,0.0,0.0,0.0,0.0,0.0,0.0,0.0,0.0,0.0,0.0,0.0,0.0,0.0,0.0,0.0,0.0,0.0,0.0,0.0,0.0,0.0,0.0,0.0,0.0,0.0,0.0,0.0,0.0,0.0,0.0,0.0,0.0,0.0,0.0,0.0,0.0,0.0,0.0,0.0,0.0,0.0,0.0,0.0,0.0,0.0,0.0,0.0,0.0,0.0,0.0,0.0,0.0,0.0,0.0,0.0,0.0,0.0,0.0,0.0,0.0,0.0,0.0,0.0,0.0,0.0,0.0,0.0,0.0,0.0,0.0,0.0,0.0,0.0,0.0,0.0,0.0,0.0,0.0,0.0,0.0,3.2886,3.3484,3.3544,3.3604,3.3514,3.3544,3.3215,0.0,0.0,0.0,0.0,0.0,0.0,0.0,0.0,0.0,0.0,0.0,0.0,0.0,0.0,0.0,0.0,0.0,0.0,0.0,0.0,0.0,0.0,0.0,0.0,0.0,0.0,0.0,0.0,0.0,0.0,0.0,0.0,0.0,0.0,0.0,0.0,0.0,0.0,0.0,0.0,0.0,0.0,0.0,0.0,0.0,0.0,0.0,0.0,0.0,0.0,0.0,0.0,0.0,0.0,0.0,0.0,0.0,0.0,0.0,0.0,0.0,0.0,0.0,0.0,0.0,0.0,0.0,0.0,0.0,0.0,0.0,0.0,0.0,0.0,0.0,0.0,0.0,0.0,0.0,0.0,0.0,0.0,0.0,0.0,0.0,0.0,0.0,0.0,0.0,0.0,0.0,0.0,0.0,0.0,0.0,0.0,0.0,0.0,0.0,0.0,0.0,0.0,0.0,0.0,0.0,0.0,0.0,0.0,0.0,3.4891,3.534,3.5579,3.5549,3.51,3.4352,0.0,0.0,0.0,0.0,0.0,0.0,0.0,0.0,0.0,0.0,0.0,0.0,0.0,0.0,0.0,0.0,0.0,0.0,0.0,0.0,0.0,0.0,0.0,0.0,0.0,0.0,0.0,0.0,0.0,0.0,0.0,0.0,0.0,0.0,0.0,0.0,0.0,0.0,0.0,0.0,0.0,0.0,0.0,0.0,0.0,0.0,0.0,0.0,0.0,0.0,0.0,0.0,0.0,0.0,0.0,0.0,0.0,0.0,0.0,0.0,0.0,0.0,0.0,0.0,0.0,0.0,0.0,0.0,0.0,0.0,0.0,0.0,0.0,0.0,0.0,0.0,0.0,0.0,0.0,0.0,0.0,0.0,0.0,0.0,0.0,0.0,0.0,0.0,0.0,0.0,0.0,0.0,0.0,0.0,0.0,0.0,0.0,0.0,0.0,0.0,0.0,0.0,0.0,0.0,0.0,0.0,0.0,0.0,0.0,3.8093,3.8247,3.8337,3.8302,3.7674,3.6477,3.4681,0.0,0.0,0.0,0.0,0.0,0.0,0.0,0.0,0.0,0.0,0.0,0.0,0.0,0.0,0.0,0.0,0.0,0.0,0.0,0.0,0.0,0.0,0.0,0.0,0.0,0.0,0.0,0.0,0.0,0.0,0.0,0.0,0.0,0.0,0.0,0.0,0.0,0.0,0.0,0.0,0.0,0.0,0.0,0.0,0.0,0.0,0.0,0.0,0.0,0.0,0.0,0.0,0.0,0.0,0.0,0.0,0.0,0.0,0.0,0.0,0.0,0.0,0.0,0.0,0.0,0.0,0.0,0.0,0.0,0.0,0.0,0.0,0.0,0.0,0.0,0.0,0.0,0.0,0.0,0.0,0.0,0.0,0.0,0.0,0.0,0.0,0.0,0.0,0.0,0.0,0.0,0.0,0.0,0.0,0.0,0.0,0.0,0.0,0.0,0.0,0.0,0.0,0.0,0.0,0.0,0.0,0.0,0.0,4.259,4.2111,4.1811,4.1594,4.0876,3.932,0.0,0.0,0.0,0.0,0.0,0.0,0.0,0.0,0.0,0.0,0.0,0.0,0.0,0.0,0.0,0.0,0.0,0.0,0.0,0.0,0.0,0.0,0.0,0.0,0.0,0.0,0.0,0.0,0.0,0.0,0.0,0.0,0.0,0.0,0.0,0.0,0.0,0.0,0.0,0.0,0.0,0.0,0.0,0.0,0.0,0.0,0.0,0.0,0.0,0.0,0.0,0.0,0.0,0.0,0.0,0.0,0.0,0.0,0.0,0.0,0.0,0.0,0.0,0.0,0.0,0.0,0.0,0.0,0.0,0.0,0.0,0.0,0.0,0.0,0.0,0.0,0.0,0.0,0.0,0.0,0.0,0.0,0.0,0.0,0.0,0.0,0.0,0.0,0.0,0.0,0.0,0.0,0.0,0.0,0.0,0.0,0.0,0.0,0.0,0.0,0.0,0.0,0.0,0.0,0.0,0.0,0.0,0.0,0.0,4.5214,4.6531,4.6304,4.4317,4.274,4.0846,0.0,0.0,0.0,0.0,0.0,0.0,0.0,0.0,0.0,0.0,0.0,0.0,0.0,0.0,0.0,0.0,0.0,0.0,0.0,0.0,0.0,0.0,0.0,0.0,0.0,0.0,0.0,0.0,0.0,0.0,0.0,0.0,0.0,0.0,0.0,0.0,0.0,0.0,0.0,0.0,0.0,0.0,0.0,0.0,0.0,0.0,0.0,0.0,0.0,0.0,0.0,0.0,0.0,0.0,0.0,0.0,0.0,0.0,0.0,0.0,0.0,0.0,0.0,0.0,0.0,0.0,0.0,0.0,0.0,0.0,0.0,0.0,0.0,0.0,0.0,0.0,0.0,0.0,0.0,0.0,0.0,0.0,0.0,0.0,0.0,0.0,0.0,0.0,0.0,0.0,0.0,0.0,0.0,0.0,0.0,0.0,0.0,0.0,0.0,0.0,0.0,0.0,0.0,0.0,0.0,0.0,0.0,0.0,4.4736,4.71,4.9075,4.9344,4.7818,4.5334,4.297,0.0,0.0,0.0,0.0,0.0,0.0,0.0,0.0,0.0,0.0,0.0,0.0,0.0,0.0,0.0,0.0,0.0,0.0,0.0,0.0,0.0,0.0,0.0,0.0,0.0,0.0,0.0,0.0,0.0,0.0,0.0,0.0,0.0,0.0,0.0,0.0,0.0,0.0,0.0,0.0,0.0,0.0,0.0,0.0,0.0,0.0,0.0,0.0,0.0,0.0,0.0,0.0,0.0,0.0,0.0,0.0,0.0,0.0,0.0,0.0,0.0,0.0,0.0,0.0,0.0,0.0,0.0,0.0,0.0,0.0,0.0,0.0,0.0,0.0,0.0,0.0,0.0,0.0,0.0,0.0,0.0,0.0,0.0,0.0,0.0,0.0,0.0,0.0,0.0,0.0,0.0,0.0,0.0,0.0,0.0,0.0,0.0,0.0,0.0,0.0,0.0,0.0,0.0,0.0,0.0,0.0,0.0,0.0,4.6411,4.8476,5.0272,5.1259,5.1229,4.8103,4.5214,0.0,0.0,0.0,0.0,0.0,0.0,0.0,0.0,0.0,0.0,0.0,0.0,0.0,0.0,0.0,0.0,0.0,0.0,0.0,0.0,0.0,0.0,0.0,0.0,0.0,0.0,0.0,0.0,0.0,0.0,0.0,0.0,0.0,0.0,0.0,0.0,0.0,0.0,0.0,0.0,0.0,0.0,0.0,0.0,0.0,0.0,0.0,0.0,0.0,0.0,0.0,0.0,0.0,0.0,0.0,0.0,0.0,0.0,0.0,0.0,0.0,0.0,0.0,0.0,0.0,0.0,0.0,0.0,0.0,0.0,0.0,0.0,0.0,0.0,0.0,0.0,0.0,0.0,0.0,0.0,0.0,0.0,0.0,0.0,0.0,0.0,0.0,0.0,0.0,0.0,0.0,0.0,0.0,0.0,0.0,0.0,0.0,0.0,0.0,0.0,0.0,0.0,0.0,0.0,0.0,0.0,0.0,0.0,4.7309,4.9687,5.0704,5.1468,5.1977,4.8805,4.6082,0.0,0.0,0.0,0.0,0.0,0.0,0.0,0.0,0.0,0.0,0.0,0.0,0.0,0.0,0.0,0.0,0.0,0.0,0.0,0.0,0.0,0.0,0.0,0.0,0.0,0.0,0.0,0.0,0.0,0.0,0.0,0.0,0.0,0.0,0.0,0.0,0.0,0.0,0.0,0.0,0.0,0.0,0.0,0.0,0.0,0.0,0.0,0.0,3.1512,0.0,0.0,0.0,0.0,0.0,0.0,0.0,0.0,0.0,0.0,0.0,0.0,0.0,0.0,0.0,0.0,0.0,0.0,0.0,0.0,0.0,0.0,0.0,0.0,0.0,0.0,0.0,0.0,0.0,0.0,0.0,0.0,0.0,0.0,0.0,0.0,0.0,0.0,0.0,0.0,0.0,0.0,0.0,0.0,0.0,0.0,0.0,0.0,0.0,0.0,0.0,0.0,0.0,0.0,0.0,0.0,0.0,0.0,0.0,4.8207,5.1079,5.2127,5.2636,5.2576,5.0361,4.7938,0.0,0.0,0.0,0.0,0.0,0.0,0.0,0.0,0.0,0.0,0.0,0.0,0.0,0.0,0.0,0.0,0.0,0.0,0.0,0.0,0.0,0.0,0.0,0.0,0.0,0.0,0.0,0.0,0.0,0.0,0.0,0.0,0.0,0.0,0.0,0.0,0.0,0.0,0.0,0.0,0.0,0.0,0.0,0.0,0.0,0.0,0.0,0.0,0.0,0.0,0.0,0.0,0.0,0.0,0.0,0.0,0.0,0.0,0.0,0.0,0.0,0.0,0.0,0.0,0.0,0.0,0.0,0.0,0.0,0.0,0.0,0.0,0.0,0.0,0.0,0.0,0.0,0.0,0.0,0.0,0.0,0.0,0.0,0.0,0.0,0.0,0.0,0.0,0.0,0.0,0.0,0.0,0.0,0.0,0.0,0.0,0.0,0.0,0.0,0.0,0.0,0.0,0.0,0.0,0.0,0.0,0.0,4.6651,4.9194,5.2366,5.3533,5.3773,5.3174,5.1917,4.9733,4.6518,0.0,0.0,0.0,0.0,0.0,0.0,0.0,0.0,0.0,0.0,0.0,0.0,0.0,0.0,0.0,0.0,0.0,0.0,0.0,0.0,0.0,0.0,0.0,0.0,0.0,0.0,0.0,0.0,0.0,0.0,0.0,0.0,0.0,0.0,0.0,0.0,0.0,0.0,2.8127,3.1098,0.0,0.0,0.0,0.0,0.0,0.0,0.0,0.0,3.6525,0.0,0.0,0.0,0.0,0.0,0.0,0.0,0.0,0.0,0.0,0.0,0.0,0.0,0.0,0.0,0.0,0.0,0.0,0.0,0.0,0.0,0.0,0.0,0.0,0.0,0.0,0.0,0.0,0.0,0.0,0.0,0.0,0.0,0.0,0.0,0.0,0.0,0.0,0.0,0.0,0.0,0.0,0.0,0.0,0.0,0.0,0.0,0.0,0.0,0.0,0.0,0.0,0.0,0.0,0.0,0.0,4.6741,4.8237,5.0571,5.3773,5.3533,5.3294,5.3144,5.1917,4.9942,4.7189,0.0,0.0,0.0,0.0,0.0,0.0,0.0,0.0,0.0,0.0,0.0,0.0,0.0,0.0,0.0,0.0,0.0,0.0,0.0,0.0,0.0,0.0,0.0,0.0,0.0,0.0,0.0,0.0,0.0,0.0,0.0,0.0,0.0,0.0,0.0,0.0,0.0,0.0,0.0,3.521,3.7061,0.0,0.0,0.0,0.0,0.0,0.0,0.0,0.0,3.9036,0.0,0.0,0.0,0.0,0.0,0.0,0.0,0.0,0.0,0.0,0.0,0.0,0.0,0.0,0.0,0.0,0.0,0.0,0.0,0.0,0.0,0.0,0.0,0.0,0.0,0.0,0.0,0.0,0.0,0.0,0.0,0.0,0.0,0.0,0.0,0.0,0.0,0.0,0.0,0.0,0.0,0.0,0.0,0.0,0.0,0.0,0.0,0.0,0.0,0.0,0.0,0.0,0.0,0.0,0.0,4.8117,4.9613,5.1887,5.5089,5.491,5.4551,5.4221,5.2935,5.084,0.0,0.0,0.0,0.0,0.0,0.0,0.0,0.0,0.0,0.0,0.0,0.0,0.0,0.0,0.0,0.0,0.0,0.0,0.0,0.0,0.0,0.0,0.0,0.0,0.0,0.0,0.0,0.0,0.0,0.0,0.0,0.0,0.0,0.0,0.0,0.0,0.0,0.0,0.0,0.0,3.8121,4.0373,4.1898,0.0,0.0,0.0,0.0,0.0,0.0,4.2206,4.1283,0.0,0.0,0.0,0.0,0.0,0.0,0.0,0.0,0.0,0.0,0.0,0.0,0.0,0.0,0.0,0.0,0.0,0.0,0.0,0.0,0.0,0.0,0.0,0.0,0.0,0.0,0.0,0.0,0.0,0.0,0.0,0.0,0.0,0.0,0.0,0.0,0.0,0.0,0.0,0.0,0.0,0.0,0.0,0.0,0.0,0.0,0.0,0.0,0.0,0.0,0.0,0.0,0.0,0.0,0.0,4.9179,5.069,5.2965,5.5987,5.6098,5.5718,5.5179,5.3623,5.1319,0.0,0.0,0.0,0.0,0.0,0.0,0.0,0.0,0.0,0.0,0.0,0.0,0.0,0.0,0.0,0.0,0.0,0.0,0.0,0.0,0.0,0.0,0.0,0.0,0.0,0.0,0.0,0.0,0.0,0.0,0.0,0.0,0.0,0.0,0.0,0.0,0.0,0.0,0.0,0.0,0.0,4.3253,4.4968,4.4833,0.0,0.0,0.0,0.0,4.5254,4.4733,0.0,0.0,0.0,0.0,0.0,0.0,0.0,0.0,0.0,0.0,0.0,0.0,0.0,0.0,0.0,0.0,0.0,0.0,0.0,0.0,0.0,0.0,0.0,0.0,0.0,0.0,0.0,0.0,0.0,0.0,0.0,0.0,0.0,0.0,0.0,0.0,0.0,0.0,0.0,0.0,0.0,0.0,0.0,0.0,0.0,0.0,0.0,0.0,0.0,0.0,0.0,0.0,0.0,0.0,0.0,0.0,4.9209,5.1139,5.3414,5.5987,5.5598,5.5269,5.5149,5.2755,5.0182,0.0,0.0,0.0,0.0,0.0,0.0,0.0,0.0,0.0,0.0,0.0,0.0,0.0,0.0,0.0,0.0,0.0,0.0,0.0,0.0,0.0,0.0,0.0,0.0,0.0,0.0,0.0,0.0,0.0,0.0,0.0,0.0,0.0,0.0,0.0,0.0,0.0,0.0,0.0,0.0,0.0,4.5039,4.6761,4.7195,4.7061,0.0,0.0,4.7224,4.7451,4.8226,0.0,0.0,0.0,0.0,0.0,0.0,0.0,0.0,0.0,0.0,0.0,0.0,0.0,0.0,0.0,0.0,0.0,0.0,0.0,0.0,0.0,0.0,0.0,0.0,0.0,0.0,0.0,0.0,0.0,0.0,0.0,0.0,0.0,0.0,0.0,0.0,0.0,0.0,0.0,0.0,0.0,0.0,0.0,0.0,0.0,0.0,0.0,0.0,0.0,0.0,0.0,0.0,0.0,0.0,0.0,4.6232,4.9733,5.1738,5.3912,5.6098,5.5538,5.5029,5.464,5.2426,5.0002,0.0,0.0,0.0,0.0,0.0,0.0,0.0,0.0,0.0,0.0,0.0,0.0,0.0,0.0,0.0,0.0,0.0,0.0,0.0,0.0,0.0,0.0,0.0,0.0,0.0,0.0,0.0,0.0,0.0,0.0,0.0,0.0,0.0,0.0,0.0,0.0,0.0,0.0,0.0,0.0,0.0,0.0,4.7684,4.9034,0.0,0.0,0.0,4.8949,4.9162,0.0,0.0,0.0,0.0,0.0,0.0,0.0,0.0,0.0,0.0,0.0,0.0,0.0,0.0,0.0,0.0,0.0,0.0,0.0,0.0,0.0,0.0,0.0,0.0,0.0,0.0,0.0,0.0,0.0,0.0,0.0,0.0,0.0,0.0,0.0,0.0,0.0,0.0,0.0,0.0,0.0,0.0,0.0,0.0,0.0,0.0,0.0,0.0,0.0,0.0,0.0,0.0,0.0,0.0,0.0,0.0,0.0,5.0136,5.2187,5.4162,5.6128,5.5508,5.5029,5.467,5.2755,0.0,0.0,0.0,0.0,0.0,0.0,0.0,0.0,0.0,0.0,0.0,0.0,0.0,0.0,0.0,0.0,0.0,0.0,0.0,0.0,0.0,0.0,0.0,0.0,0.0,0.0,0.0,3.0313,0.0,0.0,0.0,0.0,0.0,0.0,0.0,0.0,0.0,0.0,0.0,0.0,0.0,0.0,4.7437,4.885,5.0538,5.1569,0.0,0.0,5.0466,5.0624,5.0648,4.9747,0.0,0.0,0.0,0.0,0.0,0.0,0.0,0.0,0.0,0.0,0.0,0.0,0.0,0.0,0.0,0.0,0.0,0.0,0.0,0.0,0.0,0.0,0.0,0.0,0.0,0.0,0.0,0.0,0.0,0.0,0.0,0.0,0.0,0.0,0.0,0.0,0.0,0.0,0.0,0.0,0.0,0.0,0.0,0.0,0.0,0.0,0.0,0.0,0.0,0.0,0.0,0.0,0.0,0.0,0.0,5.0106,5.2187,5.4162,5.6128,5.5538,5.5478,5.5987,5.4072,5.1845,0.0,0.0,0.0,0.0,0.0,0.0,0.0,0.0,0.0,0.0,0.0,0.0,0.0,0.0,0.0,0.0,0.0,0.0,0.0,0.0,0.0,0.0,0.0,0.0,0.0,0.0,0.0,0.0,0.0,0.0,0.0,0.0,0.0,0.0,0.0,0.0,0.0,0.0,0.0,0.0,0.0,4.8445,5.0704,5.1784,5.2467,0.0,0.0,5.2181,5.2061,5.2674,5.1738,4.7561,0.0,0.0,0.0,0.0,0.0,0.0,0.0,0.0,0.0,0.0,0.0,0.0,0.0,0.0,0.0,0.0,0.0,0.0,0.0,0.0,0.0,0.0,0.0,0.0,0.0,0.0,0.0,0.0,0.0,0.0,0.0,0.0,0.0,0.0,0.0,0.0,0.0,0.0,0.0,0.0,0.0,0.0,0.0,0.0,0.0,0.0,0.0,0.0,0.0,0.0,0.0,0.0,0.0,4.7339,5.0166,5.2606,5.4401,5.5478,5.5329,5.5119,5.497,5.3803,5.1947,0.0,0.0,0.0,0.0,0.0,0.0,0.0,0.0,0.0,0.0,0.0,0.0,0.0,0.0,0.0,0.0,0.0,0.0,0.0,0.0,0.0,0.0,0.0,0.0,0.0,0.0,0.0,0.0,3.8302,3.908,3.8656,0.0,0.0,0.0,0.0,0.0,0.0,0.0,0.0,0.0,0.0,4.9034,5.1054,5.225,0.0,0.0,5.236,5.2288,5.1894,5.2397,5.161,4.8153,4.7345,0.0,0.0,0.0,0.0,0.0,0.0,0.0,0.0,0.0,0.0,0.0,0.0,0.0,0.0,0.0,0.0,0.0,0.0,0.0,0.0,0.0,0.0,0.0,0.0,0.0,0.0,0.0,0.0,0.0,0.0,0.0,0.0,0.0,0.0,0.0,0.0,0.0,0.0,0.0,0.0,0.0,0.0,0.0,0.0,0.0,0.0,0.0,0.0,0.0,0.0,0.0,0.0,4.7908,5.0465,5.2965,5.4521,5.5179,5.5209,5.497,5.4521,5.4042,5.2636,0.0,0.0,0.0,0.0,0.0,0.0,0.0,0.0,0.0,0.0,0.0,0.0,0.0,0.0,0.0,0.0,0.0,0.0,0.0,0.0,0.0,0.0,0.0,0.0,0.0,0.0,0.0,0.0,3.9888,4.0367,3.9493,0.0,0.0,0.0,0.0,0.0,0.0,0.0,0.0,0.0,0.0,5.0152,5.1954,5.297,5.3234,5.2209,5.2405,5.2376,5.1482,5.1745,5.116,4.8468,0.0,0.0,0.0,0.0,0.0,0.0,0.0,0.0,0.0,0.0,0.0,0.0,0.0,0.0,0.0,0.0,0.0,0.0,0.0,0.0,0.0,0.0,0.0,0.0,0.0,0.0,0.0,0.0,0.0,0.0,3.1633,0.0,0.0,0.0,0.0,0.0,0.0,0.0,0.0,0.0,0.0,0.0,0.0,0.0,0.0,0.0,0.0,0.0,0.0,0.0,0.0,0.0,0.0,4.8566,5.1169,5.3204,5.4551,5.5179,5.5209,5.5179,5.5149,5.5149,5.4192,5.2127,0.0,0.0,0.0,0.0,0.0,0.0,0.0,0.0,0.0,0.0,0.0,0.0,0.0,0.0,0.0,0.0,0.0,0.0,0.0,0.0,0.0,0.0,0.0,0.0,0.0,0.0,3.929,4.0576,4.0846,0.0,0.0,0.0,0.0,0.0,0.0,0.0,0.0,0.0,0.0,4.9667,5.184,5.3783,5.4142,5.3973,5.3381,5.3228,5.2605,5.1,5.113,5.0662,0.0,0.0,0.0,0.0,0.0,0.0,0.0,0.0,0.0,0.0,0.0,0.0,0.0,0.0,0.0,0.0,0.0,0.0,0.0,0.0,0.0,0.0,0.0,0.0,0.0,0.0,0.0,3.3091,3.48,0.0,0.0,0.0,0.0,0.0,0.0,0.0,0.0,0.0,0.0,0.0,4.3109,4.2779,0.0,0.0,0.0,0.0,0.0,0.0,0.0,0.0,0.0,0.0,0.0,0.0,4.9464,5.1229,5.3623,5.497,5.5179,5.5209,5.5209,5.5209,5.5209,5.4042,5.1618,0.0,0.0,0.0,0.0,0.0,0.0,0.0,0.0,0.0,0.0,0.0,0.0,0.0,0.0,0.0,0.0,0.0,0.0,0.0,0.0,0.0,0.0,0.0,0.0,0.0,3.9768,0.0,0.0,0.0,0.0,0.0,0.0,0.0,0.0,0.0,0.0,0.0,4.6867,4.967,5.1105,5.2282,5.3455,5.3997,5.3928,0.0,0.0,0.0,0.0,0.0,0.0,0.0,0.0,0.0,0.0,0.0,0.0,0.0,0.0,4.4965,4.2949,4.2537,4.2747,4.3358,0.0,0.0,0.0,0.0,0.0,0.0,0.0,0.0,0.0,0.0,0.0,0.0,0.0,0.0,0.0,0.0,3.8194,0.0,0.0,0.0,0.0,0.0,0.0,0.0,0.0,4.4167,4.4967,4.5638,4.5523,4.5441,0.0,4.5459,4.4078,0.0,0.0,0.0,0.0,0.0,0.0,0.0,0.0,5.0272,5.1588,5.3952,5.5209,5.5209,5.5209,5.5209,5.5179,5.497,5.3922,5.1947,5.0242,4.7997,0.0,0.0,0.0,0.0,0.0,0.0,0.0,0.0,0.0,0.0,0.0,0.0,0.0,0.0,0.0,0.0,0.0,0.0,0.0,0.0,0.0,0.0,0.0,4.1594,0.0,0.0,0.0,0.0,0.0,0.0,0.0,0.0,0.0,4.5364,4.707,4.9224,5.1588,5.2312,5.2872,5.3588,0.0,0.0,0.0,0.0,0.0,0.0,0.0,5.2274,5.0829,5.1395,5.1766,5.0991,5.1466,5.1503,5.0028,0.0,0.0,4.6917,4.6294,4.644,4.6937,4.7326,4.7714,4.7997,4.8686,4.9314,0.0,0.0,0.0,0.0,0.0,0.0,0.0,0.0,3.8996,4.0187,0.0,4.1608,0.0,0.0,0.0,0.0,0.0,0.0,0.0,0.0,4.6335,4.7532,4.7975,4.7926,4.7903,4.7833,4.8167,4.8122,4.7537,4.6185,0.0,0.0,0.0,0.0,0.0,0.0,5.093,5.2247,5.4192,5.5209,5.5209,5.5209,5.5209,5.5179,5.4581,5.3922,5.3204,5.1977,5.0391,4.8416,4.5873,0.0,0.0,0.0,0.0,0.0,0.0,0.0,0.0,0.0,0.0,0.0,0.0,0.0,0.0,0.0,0.0,0.0,0.0,0.0,0.0,4.1863,0.0,0.0,0.0,0.0,0.0,0.0,0.0,0.0,0.0,0.0,4.7489,4.906,5.102,5.2935,0.0,0.0,0.0,0.0,5.3111,5.1957,5.2209,5.2007,5.0392,5.1908,5.2902,5.1971,0.0,0.0,5.2675,5.3499,5.4002,5.3491,5.4209,5.3982,5.0182,4.9523,4.9673,5.0106,5.0285,5.0554,5.1139,5.1289,5.1379,3.8078,0.0,0.0,0.0,0.0,3.6466,3.8407,4.1645,4.1373,4.2671,4.4952,4.4364,0.0,0.0,0.0,0.0,0.0,0.0,4.5356,4.642,4.7403,4.8128,4.8731,4.9183,4.9575,4.9832,4.9523,4.9959,5.0924,5.0065,4.862,4.6637,0.0,0.0,0.0,0.0,5.2067,5.2935,5.4401,5.5209,5.5209,5.5209,5.5209,5.5179,5.4999,5.4581,5.3952,5.3563,5.2426,5.0451,4.8775,0.0,0.0,0.0,0.0,0.0,0.0,0.0,0.0,0.0,0.0,0.0,0.0,0.0,0.0,0.0,0.0,0.0,0.0,0.0,4.2303,4.3828,4.4638,0.0,0.0,0.0,0.0,0.0,0.0,0.0,0.0,0.0,5.069,5.1259,5.2187,0.0,0.0,5.3852,5.3647,5.3855,5.3675,5.2501,0.0,0.0,0.0,5.2382,5.2737,5.2419,5.3005,5.3308,5.2718,5.3965,5.4791,5.3675,5.4443,5.487,5.3873,5.3503,5.3204,5.2636,5.3084,5.3623,5.3443,5.3713,5.4042,4.2852,4.0277,3.8791,3.8786,3.9807,3.9788,4.1439,4.413,4.3628,4.4616,4.6555,4.5898,4.563,4.5686,4.5196,0.0,0.0,0.0,4.6469,4.76,4.8167,4.8808,4.9426,5.0045,5.0396,5.0403,5.0497,5.1075,5.2115,5.1675,5.0808,4.9549,0.0,0.0,5.0033,5.1715,5.2905,5.3593,5.464,5.5209,5.5209,5.5209,5.5209,5.5209,5.5209,5.4999,5.461,5.461,5.3922,5.2456,5.09,4.8775,0.0,0.0,0.0,0.0,0.0,0.0,0.0,0.0,0.0,0.0,0.0,3.7618,3.8362,0.0,0.0,0.0,4.125,4.2874,4.482,4.5503,0.0,0.0,0.0,0.0,0.0,0.0,0.0,4.8356,4.9927,5.1409,5.2456,5.2621,5.3228,5.479,5.4175,5.3627,5.3759,0.0,5.3049,5.2355,5.2598,5.2705,5.2329,5.2662,5.2994,5.2994,5.3525,5.3723,5.3163,5.4194,5.4802,5.4221,5.4879,5.5499,5.4921,5.5415,5.5538,5.4281,5.461,5.5029,5.467,5.491,5.5209,4.6435,4.6114,4.2134,4.1334,4.2671,4.3218,4.432,4.5641,4.5641,4.6174,4.6898,4.6606,4.6611,4.6885,4.6602,0.0,4.6532,4.7094,4.7684,4.8302,4.8841,4.9483,5.0097,5.0716,5.0716,5.0182,5.1165,5.1713,5.179,5.1574,5.194,5.2652,5.2467,5.2252,5.2252,5.2868,5.3544,5.4182,5.488,5.5209,5.5209,5.5209,5.5209,5.5209,5.5209,5.5209,5.5179,5.5179,5.491,5.4251,5.2426,5.0511,4.8566,0.0,0.0,0.0,0.0,0.0,0.0,0.0,0.0,0.0,0.0,0.0,0.0,0.0,0.0,0.0,4.3988,0.0,4.7023,4.6875,0.0,0.0,0.0,4.7086,4.8386,4.9105,4.9733,5.0285,0.0,0.0,0.0,0.0,5.4154,5.5974,5.4171,5.312,5.4318,5.308,5.1926,5.1954,5.1927,5.1955,5.2205,5.2928,5.3542,5.3597,5.4086,5.4169,5.3706,5.4007,5.4413,5.4492,5.544,5.5872,5.4687,5.5864,5.6645,5.5448,5.5269,5.5269,5.5179,5.5179,5.5209,4.6622,4.6987,4.5955,4.5519,4.5527,4.5663,4.591,4.6265,4.6265,4.6608,4.7184,4.7098,4.735,4.778,4.769,4.7937,4.8336,4.8504,4.8949,4.9539,5.0157,5.0522,5.0744,5.1281,5.1478,5.1391,5.1189,5.1541,5.2366,5.1871,5.2214,5.3239,5.3237,5.2931,5.2544,5.3065,5.3571,5.4272,5.4887,5.5209,5.5209,5.5209,5.5209,5.5209,5.5209,5.5209,5.5209,5.5209,5.5119,5.494,5.3533,5.2067,5.0571,4.7878,0.0,0.0,0.0,0.0,0.0,0.0,0.0,0.0,0.0,4.2672,4.3085,0.0,4.5169,0.0,4.5746,4.6731,4.8102,4.8006,0.0,0.0,4.9539,4.9568,5.0421,5.1109,5.1558,5.1708,5.2905,5.3982,5.464,5.4811,5.5211,5.6084,5.4515,5.3574,5.4342,5.3751,5.2984,5.2628,5.2883,5.322,5.3248,5.3444,5.3697,5.3669,5.3837,5.3837,5.3725,5.3781,5.4004,5.4419,5.5083,5.5567,5.5672,5.6162,5.6316,5.6017,5.5927,5.5777,5.5299,5.5209,5.5209,4.6499,4.6823,4.683,4.6681,4.6463,4.6758,4.6779,4.6535,4.6535,4.6692,4.6953,4.7184,4.7763,4.8476,4.8476,4.8864,4.9426,4.9454,4.9764,5.0435,5.0772,5.1028,5.1281,5.1646,5.1787,5.1759,5.145,5.1612,5.2164,5.1906,5.2202,5.3078,5.2865,5.2693,5.2612,5.3105,5.3693,5.4304,5.4896,5.5209,5.5209,5.5209,5.5059,5.476,5.476,5.461,5.4311,5.4311,5.4281,5.4281,5.3294,5.2276,5.1229,4.9015,4.686,0.0,0.0,0.0,0.0,0.0,0.0,0.0,0.0,0.0,0.0,0.0,4.7782,0.0,4.7709,4.8209,4.9928,4.9629,4.99,5.1361,5.1249,5.1468,5.2456,5.2875,5.3204,5.3503,5.4431,5.5209,5.5598,5.5256,5.5278,5.6108,5.426,5.3095,5.3802,5.3594,5.3101,5.2798,5.3248,5.3726,5.3726,5.3726,5.3726,5.3726,5.3726,5.3726,5.3726,5.3726,5.3782,5.412,5.4593,5.5169,5.5737,5.6037,5.6273,5.6534,5.6585,5.6226,5.5388,5.5209,5.5209,4.6382,4.6429,4.6429,4.6444,4.6556,4.7133,4.7082,4.6594,4.6699,4.6752,4.6805,4.7298,4.8069,4.9042,4.9122,4.9483,5.0097,5.0125,5.0463,5.0972,5.1,5.1281,5.1759,5.1787,5.1787,5.1787,5.1787,5.1787,5.1787,5.1787,5.203,5.2462,5.2059,5.2059,5.2516,5.3025,5.3605,5.42,5.4722,5.5027,5.5078,5.4988,5.474,5.4251,5.4132,5.3803,5.3204,5.3174,5.3174,5.3144,5.2546,5.1947,5.1349,4.9553,4.7997,0.0,4.5603,0.0,0.0,0.0,0.0,0.0,0.0,0.0,0.0,4.8713,4.9734,5.0622,4.9629,4.9839,5.1878,5.1377,5.1466,5.2743,5.275,5.3114,5.4401,5.4581,5.479,5.5359,5.5927,5.6368,5.6436,5.5542,5.5406,5.5864,5.4169,5.2838,5.3148,5.3101,5.2938,5.2826,5.3445,5.4063,5.4007,5.3978,5.4035,5.4007,5.4007,5.3894,5.3978,5.3978,5.395,5.4064,5.4488,5.499,5.5429,5.5971,5.6527,5.6951,5.7102,5.6705,5.5807,5.5448,5.5329,4.6585,4.7052,4.7052,4.7095,4.7153,4.7276,4.7219,4.7185,4.7676,4.8029,4.8297,4.836,4.8733,4.9395,4.9687,5.0101,5.0691,5.0744,5.1028,5.1618,5.1618,5.1674,5.1787,5.1787,5.1787,5.1787,5.1787,5.1787,5.1787,5.1787,5.1841,5.195,5.1841,5.1841,5.195,0.0,0.0,0.0,5.3762,5.4023,5.4458,5.3955,5.3861,5.4142,5.3653,0.0,5.3174,5.3174,5.3174,5.3144,5.2546,0.0,0.0,0.0,0.0,0.0,0.0,0.0,0.0,0.0,0.0,0.0,5.0573,5.0333,4.8605,4.9219,5.014,5.0993,5.1042,5.1539,5.281,5.2792,5.3241,5.453,5.469,5.5119,5.6376,5.6526,5.6615,5.6705,5.6855,5.7124,5.752,5.754,5.6906,5.5854,5.513,5.4067,5.2341,5.2938,5.3501,5.3557,5.44,5.5102,5.5159,5.5102,5.5046,5.5159,5.5159,5.5131,5.5102,5.5102,5.5131,5.5102,5.5651,5.6023,5.6193,5.6659,5.7045,5.7153,5.7166,5.7004,5.6765,5.6346,5.5987,4.6481,0.0,4.6755,4.6781,0.0,4.7088,4.7256,4.7231,4.7301,4.7726,4.8463,4.8726,4.9345,5.0197,5.0357,5.08,5.1309,5.1309,5.1506,5.1787,5.1787,5.1787,5.1787,5.1787,5.1787,5.1787,5.1787,5.1787,5.1787,5.1787,5.1787,5.1787,5.1787,5.1787,5.1787,5.1787,5.2221,5.3078,5.3343,5.3658,5.389,5.3597,5.3531,5.3713,0.0,0.0,0.0,0.0,0.0,0.0,0.0,0.0,0.0,0.0,0.0,5.072,5.0421,5.0242,5.0242,5.084,5.1396,5.1867,5.2402,5.2324,5.1446,5.1479,5.1974,5.3025,5.2702,5.29,5.4061,5.4192,5.4581,5.5538,5.5957,5.6406,5.6974,5.7094,5.6974,5.6765,5.7214,5.7633,5.7603,5.7072,5.6525,5.5579,5.4403,5.3314,5.2204,5.2854,5.3838,5.4456,5.5018,5.5496,5.5496,5.5496,5.5496,5.5496,5.5496,5.5496,5.5496,5.5496,5.5496,5.5554,5.6019,5.6423,5.6509,5.7069,5.7723,5.7749,5.7892,5.8082,5.8052,5.7304,5.6615,4.618,4.6326,4.6326,4.6326,4.6301,4.6815,4.7027,4.701,0.0,0.0,0.0,4.8682,4.9472,5.0596,5.0759,5.1147,5.1677,5.1732,5.1787,5.1787,5.1787,5.1787,5.1787,5.1787,5.1787,5.1787,5.1787,5.1787,5.1787,5.1787,5.1787,5.1787,5.1787,5.1787,5.1787,5.1787,5.1976,5.2462,5.2972,5.3237,5.3343,5.3256,5.3169,5.3128,5.3141,5.2881,5.2282,5.2318,5.2127,5.1588,5.1558,5.1828,5.2306,5.1858,5.1798,5.2306,5.1977,5.1977,5.2516,5.2665,5.2965,5.3503,5.3653,5.3862,5.4221,5.3563,5.3743,5.5089,5.4072,5.3892,5.5209,5.5359,5.5688,5.6436,5.6974,5.7304,5.7453,5.7453,5.7334,5.6915,5.7693,5.7999,5.7265,5.6686,5.5779,5.5105,5.3844,5.2343,5.2291,5.3023,5.4035,5.4962,5.5327,5.5496,5.5496,5.5496,5.5496,5.5496,5.5379,5.5379,5.5437,5.5379,5.5379,5.5496,5.5961,5.625,5.6451,5.7218,5.8029,5.8195,5.8634,5.9099,5.9009,5.8231,5.7483,4.5793,4.6326,4.6326,4.6326,4.6301,4.6361,4.6421,4.6491,4.6972,4.755,4.82,4.799,4.8436,4.9395,5.0128,5.0685,5.1072,5.1568,5.1787,0.0,5.1787,5.1787,5.1787,5.1787,5.1787,5.1787,5.1787,5.1787,5.1787,5.1787,5.1787,5.1787,5.1787,5.1787,5.1787,5.1787,5.1841,5.1896,5.2004,5.2275,5.273,5.2243,5.2191,5.2617,5.2578,5.2476,5.2398,5.2811,5.2995,5.2905,5.2905,5.2935,5.3025,5.2935,5.2935,5.3054,5.3503,5.3832,5.3922,5.4431,5.482,5.491,5.5418,5.5329,5.4281,5.3593,5.3743,5.4999,5.4491,5.461,5.5837,5.6068,5.6496,5.7603,5.7902,5.8201,5.868,5.874,5.868,5.853,5.883,5.8465,5.7487,5.7838,5.705,5.4768,5.4067,5.4412,5.3499,5.3557,5.395,5.4597,5.5159,5.5468,5.5496,5.5496,5.5496,5.5496,5.5057,5.4939,5.5437,5.5116,5.4998,5.5379,5.5671,5.5903,5.6308,5.6964,5.7528,5.8029,5.8525,5.9045,5.9045,5.8806,5.859,4.5563,4.6093,4.5856,4.5999,4.6326,4.6326,4.6326,4.6361,4.662,4.7177,4.7945,4.8263,4.8748,4.9358,4.9926,5.0292,5.0404,5.0683,5.0795,5.085,5.0795,5.0989,5.1293,5.1293,5.1458,5.1787,5.1787,5.1787,5.1787,5.1787,5.1787,5.1787,5.1787,5.1787,5.1787,5.1787,5.1787,5.1787,5.1787,5.1896,5.2139,5.1884,5.201,5.2565,5.2538,5.2507,5.2464,5.2939,5.2941,5.2288,5.2586,5.2912,5.3238,5.3238,5.3565,5.4251,5.4551,5.473,5.473,5.5029,5.5209,5.5209,5.5448,5.5568,5.5299,5.4999,5.5059,5.5628,5.5119,5.5119,5.6077,5.6466,5.7064,5.7969,5.8441,5.877,5.9039,5.9099,5.8949,5.868,5.889,5.8494,5.6947,5.6986,5.6372,5.4038,5.3732,5.3378,5.3219,5.3473,5.4007,5.4878,5.5327,5.5468,5.5496,5.5496,5.5496,5.5496,5.5261,5.5175,5.5437,5.5175,5.5175,5.5437,5.5729,5.5961,5.6019,5.668,5.7191,5.7191,5.8029,5.847,5.8634,5.8828,5.8979,4.5435,4.6015,4.5453,4.5466,4.5878,4.5999,4.6059,4.6059,4.624,4.6721,4.7409,4.8146,4.8611,4.8899,4.9358,4.9613,4.9727,4.9897,5.001,5.001,5.001,5.0235,5.0683,5.085,5.1183,5.1568,5.1732,5.1787,5.1787,5.1787,5.1787,5.1787,5.1787,5.1787,5.1787,5.1787,5.1787,5.1787,5.1787,5.1787,5.1787,5.1787,5.2004,5.2355,5.257,5.2607,5.2538,5.3026,5.2924,5.2049,5.2405,5.2864,5.3304,5.3334,5.3853,5.4866,5.4976,5.5078,5.5179,5.5209,5.5209,5.5209,5.5329,5.5628,5.6128,5.6218,5.6218,5.6158,5.5739,5.5688,5.6346,5.6974,5.7603,5.8261,5.877,5.9069,5.9099,5.9099,5.8949,5.8501,5.8692,5.8159,5.6608,5.5859,5.5221,5.3872,5.2535,5.2151,5.2798,5.3388,5.4147,5.5102,5.5496,5.5379,5.532,5.5233,5.5261,5.5261,5.488,5.4821,5.5026,5.5144,5.5144,5.5203,5.5787,5.6019,5.5845,5.6394,5.6964,5.7078,5.7751,5.825,5.85,5.8828,5.9099,4.526,4.5742,4.5348,4.488,4.4656,4.5184,4.5428,4.5464,4.5999,4.6301,4.6481,4.6541,4.678,4.7138,4.7971,4.8495,4.8811,4.9613,4.9953,4.9953,5.001,5.001,5.0123,5.0628,5.0906,5.1072,5.1513,5.1732,5.1732,5.1787,5.1787,5.1787,5.1787,5.1787,5.1787,5.1787,5.1787,5.1787,5.1787,5.1787,5.1787,5.1787,5.1841,5.1896,5.2355,5.2594,5.2562,5.3121,5.3437,5.3355,5.3297,5.3379,5.3466,5.3466,5.3727,5.4355,5.4355,5.4641,5.5128,5.5209,5.5128,5.5239,5.5688,5.6047,5.6137,5.6218,5.6218,5.6218,5.6158,5.6368,5.6974,5.7603,5.8231,5.883,5.9039,5.9099,5.9099,5.9099,5.9069,5.9039,5.8605,5.7614,5.6009,5.5736,5.5317,5.3594,5.2592,5.2293,5.3276,5.3585,5.409,5.5072,5.5496,5.5261,5.488,5.4616,5.4703,5.4556,5.3658,5.3685,5.4286,5.4286,5.3954,5.4762,5.5175,5.5729,5.6077,5.6451,5.6794,5.7247,5.7751,5.8335,5.8828,5.9045,5.9099,4.5085,4.558,4.5148,4.4841,4.4828,4.5053,4.4984,4.4816,4.5428,4.5732,4.5793,4.612,4.6601,4.7053,4.7619,4.8055,4.8405,4.8753,4.8926,4.8926,4.8926,4.9156,4.9472,4.97,4.9983,5.0404,5.0962,5.1265,5.1348,5.1623,5.1787,5.1787,5.1787,5.1787,5.1787,5.1787,5.1787,5.1787,5.1787,5.1787,5.1787,5.1787,5.1787,5.1841,5.2004,5.2113,5.2193,5.2705,5.2812,5.2544,5.2812,5.2972,5.2972,5.2943,5.3208,5.3762,5.3867,5.3919,5.4208,5.4178,5.4333,5.4641,5.493,5.5181,5.5598,5.5978,5.6218,5.6218,5.6218,5.6555,5.7543,5.7962,5.8411,5.8949,5.9099,5.9099,5.9099,5.9099,5.8991,5.8664,5.836,5.7394,5.5375,5.419,5.3459,5.2648,5.229,5.2686,5.3529,5.3665,5.3993,5.4689,5.4939,5.4998,5.4939,5.4762,5.4556,5.4378,5.4079,5.4019,5.3806,5.4166,5.4226,5.4437,5.4998,5.5437,5.5729,5.5845,5.6077,5.6794,5.7416,5.7863,5.8415,5.8882,5.9045,4.4882,4.5372,4.4972,4.4648,4.4571,4.4761,4.4586,4.4328,4.4803,4.5037,4.5098,4.5732,4.6276,4.6849,4.729,4.7586,4.7847,4.8023,4.8055,4.8055,4.8114,4.8405,4.8842,4.9014,4.9301,4.9756,5.0404,5.0739,5.0906,5.1293,5.1623,5.1787,5.1787,5.1787,5.1787,5.1787,5.1787,5.1787,5.1787,5.1787,5.1787,5.1787,5.1787,5.1787,5.1787,5.1787,5.1787,5.2139,5.2193,5.1841,5.2221,5.2355,5.2355,5.2355,5.2623,5.3184,5.3424,5.35,5.35,5.35,5.36,5.384,5.398,5.4252,5.476,5.547,5.6109,5.6527,5.6601,5.7184,5.7902,5.8291,5.862,5.9039,5.9099,5.9099,5.9099,5.9099,5.8936,5.847,5.8018,5.677,5.4507,5.2848,5.1926,5.1926,5.2321,5.2827,5.3359,5.3516,5.3806,5.4327,5.4259,5.4166,5.4612,5.4465,5.4199,5.3899,5.3658,5.3356,5.3349,5.3746,5.3959,5.3658,5.4584,5.5175,5.5233,5.5261,5.5729,5.6135,5.6794,5.7696,5.847,5.8828,5.9045,4.4595,4.5277,4.484,4.4147,4.329,4.3933,4.4165,4.4088,4.429,4.436,4.4422,4.5037,4.5525,4.5889,4.6541,4.6866,4.6959,4.7527,4.7762,4.7762,4.8055,4.8172,4.8289,4.8784,4.9072,4.9186,4.9783,5.0348,5.085,5.0934,5.121,5.1787,5.1787,5.1787,5.1787,5.1787,5.1787,5.1787,5.1787,5.1787,5.1787,5.1787,5.1787,5.1787,5.1787,5.1787,5.1787,5.1841,5.1841,5.1787,5.1841,5.1841,5.1841,5.1841,5.2113,5.2623,5.3131,5.3448,5.3395,5.3395,5.3216,5.2856,5.3262,5.3553,5.3821,5.4802,5.5837,5.6986,5.7529,5.7945,5.8095,5.8626,5.8979,5.9069,5.9099,5.9099,5.9099,5.9099,5.9099,5.8624,5.7302,5.5466,5.3133,5.2263,5.1871,5.1955,5.2349,5.2827,5.3044,5.3367,5.3889,5.4034,5.3625,5.2711,5.2834,5.3322,5.3322,5.3139,5.2834,5.2156,5.2404,5.265,5.2711,5.3017,5.3899,5.4524,5.4643,5.5116,5.5817,5.6451,5.7247,5.8029,5.8305,5.8828,5.9099,4.4617,4.5369,4.4819,4.4382,4.4038,4.3955,4.3762,4.3525,4.3954,4.3986,4.3787,4.436,4.473,4.4915,4.5525,4.6276,4.7053,4.7527,4.7703,4.7762,4.8055,4.8172,4.8257,4.8463,4.8521,4.8637,4.9129,4.9926,5.0795,5.0906,5.1238,5.1732,5.1787,5.1787,5.1787,5.1787,5.1787,5.1787,5.1787,5.1787,5.1787,5.1787,5.1787,5.1787,5.1787,5.1787,5.1787,5.1787,5.1787,5.1787,5.1787,5.1787,5.1787,5.1787,5.1896,5.2059,5.2275,5.2437,5.2437,5.2437,5.2313,5.2115,5.2598,5.3078,5.3622,5.4619,5.5717,5.6585,5.761,5.8115,5.8283,5.8763,5.9099,5.9099,5.9099,5.9099,5.9099,5.9099,5.8679,5.7382,5.5493,5.3665,5.2964,5.218,5.1955,5.2349,5.2939,5.3416,5.3804,5.4099,5.407,5.3904,5.3531,5.2922,5.197,5.2527,5.2834,5.2711,5.2404,5.2156,5.2156,5.2404,5.2588,5.2956,5.3625,5.4107,5.4346,5.4703,5.5526,5.6164,5.7021,5.7751,5.7892,5.858,5.8991,4.4479,4.4796,4.4497,4.4336,4.4313,4.3946,4.3625,4.3368,4.3659,4.3502,4.3208,4.3678,4.3989,4.4113,4.4669,4.5403,4.6311,4.6968,4.7349,4.7265,4.7821,4.8114,4.8198,4.8172,4.8172,4.823,4.8579,4.9358,5.0235,5.032,5.0656,5.1183,5.1238,5.1238,5.1238,5.1238,5.1293,5.1458,5.1513,5.1568,5.1732,5.1787,5.1787,5.1787,5.1787,5.1787,5.1787,5.1787,5.1787,5.1787,5.1787,5.1787,5.1787,5.1787,5.1787,5.1787,5.1787,5.1787,5.1787,5.1787,5.1722,5.1506,5.2184,5.2829,5.3321,5.4601,5.5608,5.6411,5.7207,5.7918,5.7974,5.825,5.8664,5.8936,5.8936,5.8936,5.9045,5.8936,5.7837,5.6113,5.4335,5.3074,5.246,5.204,5.2124,5.263,5.3276,5.3894,5.4196,5.4256,5.4107,5.3652,5.3166,5.2677,5.2094,5.228,5.2342,5.2156,5.2156,5.197,5.1908,5.2156,5.2465,5.2895,5.3261,5.3746,5.4107,5.4378,5.4939,5.5613,5.6623,5.7584,5.7974,5.847,5.8882,4.429,4.3923,4.3808,4.3854,4.3946,4.3854,4.3808,4.3693,4.3391,4.2996,4.2575,4.3012,4.3326,4.3451,4.3989,4.436,4.4607,4.5914,4.6541,4.6491,4.7265,4.788,4.8114,4.8055,4.8055,4.8114,4.8172,4.8548,4.9156,4.927,4.9529,4.9953,5.0179,5.0235,5.0066,5.0179,5.0404,5.0795,5.0962,5.1183,5.1677,5.1732,5.1787,5.1732,5.1787,5.1787,5.1787,5.1787,5.1787,5.1787,5.1787,5.1787,5.1787,5.1787,5.1787,5.1787,5.1787,5.1787,5.1787,5.1787,5.1562,5.1333,5.2066,5.274,5.316,5.4401,5.5651,5.6223,5.685,5.7303,5.7303,5.736,5.7863,5.8743,5.8555,5.8415,5.8773,5.8495,5.7254,5.5183,5.3799,5.3037,5.2202,5.1815,5.2068,5.2742,5.3304,5.378,5.3932,5.3984,5.3779,5.3349,5.2983,5.2527,5.228,5.2094,5.1846,5.1659,5.1721,5.1659,5.1721,5.1846,5.2032,5.2404,5.2773,5.32,5.3685,5.4019,5.4734,5.5468,5.648,5.736,5.7807,5.8305,5.8882,4.3705,4.3762,4.3441,4.3739,4.4267,4.3969,4.3808,4.3785,4.3625,4.3119,4.2431,4.2529,4.2633,4.2759,4.3326,4.3389,4.3075,4.4422,4.5403,4.601,4.6909,4.7383,4.7501,4.7527,4.7501,4.756,4.7762,4.8172,4.8637,4.8726,4.9129,4.984,4.9953,5.001,4.9953,5.001,5.0123,5.0292,5.0683,5.085,5.0656,5.1403,5.1623,5.1293,5.1568,5.1787,5.1787,5.1787,5.1787,5.1787,5.1787,5.1787,5.1787,5.1787,5.1787,5.1787,5.1787,5.1787,5.1787,5.1787,5.1731,5.1674,5.2264,5.2883,5.336,5.4262,5.5195,5.5732,5.6279,5.668,5.668,5.668,5.7191,5.836,5.7918,5.7807,5.8107,5.691,5.555,5.4648,5.3266,5.2258,5.1898,5.1787,5.2236,5.3135,5.3557,5.3778,5.4176,5.4536,5.4166,5.32,5.2861,5.243,5.2032,5.1846,5.1721,5.1596,5.1596,5.1596,5.1596,5.1596,5.1783,5.197,5.2342,5.2711,5.32,5.3806,5.4465,5.5264,5.6193,5.6879,5.7528,5.8085,5.8719,4.3228,4.3487,4.3005,4.328,4.3992,4.3671,4.3533,4.3533,4.3556,4.3074,4.2367,4.2339,4.2275,4.2402,4.2759,4.2696,4.2466,4.3451,4.4299,4.5037,4.6165,4.6849,4.7146,4.7205,4.7205,4.7265,4.7383,4.7677,4.8088,4.8204,4.8579,4.9098,4.927,4.9328,4.9328,4.9328,4.9385,4.9556,4.9953,5.0123,5.0066,5.0683,5.0934,5.0683,5.0962,5.1128,5.1128,5.132,5.1568,5.1732,5.1787,5.1787,5.1787,5.1787,5.1787,5.1787,5.1787,5.1787,5.1787,5.1787,5.1927,5.218,5.2714,5.3332,5.395,5.4569,5.5131,5.547,5.5845,5.6077,5.6049,5.6049,5.6509,5.7416,5.7191,5.7134,5.7214,5.6014,5.4823,5.4174,5.3076,5.2207,5.1871,5.2096,5.2517,5.3445,5.3866,5.423,5.4692,5.4998,5.4107,5.3322,5.2983,5.2465,5.1783,5.1596,5.1596,5.1596,5.1596,5.1596,5.1596,5.1596,5.1721,5.1783,5.2032,5.2342,5.2773,5.3349,5.4014,5.4911,5.5847,5.6594,5.736,5.8029,5.8609,4.2727,4.2982,4.2545,4.2683,4.3142,4.3142,4.3142,4.3119,4.3119,4.2844,4.2344,4.2275,4.2275,4.2275,4.2402,4.2402,4.2402,4.2886,4.3389,4.3864,4.4915,4.601,4.6789,4.7027,4.7087,4.7087,4.7146,4.7205,4.7265,4.7527,4.7645,4.788,4.8114,4.8172,4.8289,4.8172,4.8405,4.8695,4.9041,4.9301,4.9358,4.9813,4.9953,4.9897,5.001,5.0123,5.0235,5.0683,5.1238,5.1732,5.1787,5.1787,5.1787,5.1787,5.1787,5.1787,5.1787,5.1843,5.1843,5.1927,5.2236,5.2883,5.3416,5.3978,5.4597,5.5074,5.5412,5.5496,5.5554,5.5554,5.5554,5.5554,5.5903,5.625,5.6451,5.6509,5.6308,5.5652,5.4742,5.3782,5.3023,5.2489,5.1955,5.2377,5.2939,5.3641,5.4231,5.4679,5.4951,5.4821,5.4226,5.3625,5.2983,5.2465,5.1721,5.1408,5.1408,5.1534,5.1471,5.1408,5.1534,5.1596,5.1596,5.1659,5.1846,5.2094,5.2465,5.3166,5.3773,5.4556,5.5498,5.6451,5.7247,5.7918,5.8525,4.1817,4.2116,4.2257,4.2637,4.3051,4.3096,4.3074,4.3096,4.3074,4.2775,4.2408,4.2275,4.2275,4.2275,4.2275,4.2275,4.2339,4.2529,4.2886,4.3302,4.3678,4.4669,4.5768,4.6576,4.678,4.6601,4.678,4.69,4.69,4.7019,4.7197,4.7324,4.7442,4.7645,4.7821,4.7821,4.7997,4.8347,4.8811,4.8753,4.8379,4.9129,4.9358,4.9014,4.9358,4.97,5.001,5.0572,5.1183,5.1732,5.1787,5.1787,5.1787,5.1787,5.1787,5.1788,5.1843,5.204,5.2377,5.2406,5.2967,5.395,5.4147,5.4597,5.5187,5.5383,5.5496,5.5496,5.5496,5.5496,5.5496,5.5468,5.5584,5.5729,5.6078,5.5965,5.5252,5.4516,5.3839,5.3107,5.2461,5.2293,5.2405,5.2686,5.3192,5.4063,5.4512,5.462,5.4803,5.4703,5.4286,5.3322,5.2615,5.2218,5.1783,5.1408,5.1283,5.1408,5.1346,5.1094,5.1346,5.1596,5.1596,5.1596,5.1846,5.2094,5.2588,5.3166,5.3746,5.4437,5.544,5.6509,5.7134,5.7807,5.8415,4.11,4.1806,4.1998,4.2372,4.2752,4.2775,4.2775,4.2775,4.2775,4.2637,4.2321,4.2275,4.2275,4.2275,4.2275,4.2275,4.2275,4.2275,4.2506,4.2822,4.32,4.4113,4.5159,4.5974,4.618,4.6301,4.6481,4.6566,4.6626,4.6746,4.69,4.7053,4.7146,4.7324,4.7442,4.7501,4.7527,4.7645,4.8055,4.7938,4.7468,4.8088,4.8321,4.8088,4.8411,4.8762,4.9346,4.9715,5.0381,5.121,5.1623,5.1787,5.1787,5.1787,5.179,5.1793,5.1794,5.2073,5.2575,5.2714,5.3274,5.4286,5.4597,5.4906,5.5327,5.5496,5.5496,5.5496,5.5496,5.5383,5.5159,5.5102,5.5243,5.547,5.5619,5.5366,5.4682,5.4373,5.3669,5.2995,5.2658,5.2545,5.277,5.3135,5.3782,5.4428,5.485,5.4753,5.4619,5.4469,5.4199,5.3322,5.2553,5.2183,5.1747,5.1372,5.0931,5.1031,5.122,5.0968,5.1094,5.1408,5.1534,5.1596,5.1846,5.2156,5.2711,5.3261,5.3987,5.4793,5.5759,5.6509,5.7191,5.7751,5.836,4.0495,4.1678,4.1806,4.1998,4.2212,4.2275,4.2385,4.2275,4.2385,4.2298,4.2275,4.2275,4.2275,4.2275,4.2275,4.2275,4.2275,4.2275,4.2339,4.2529,4.2949,4.3802,4.4976,4.5342,4.5793,4.618,4.6326,4.6326,4.6361,4.6626,4.6746,4.678,4.6934,4.7112,4.7172,4.7146,4.7053,4.7053,4.729,4.729,4.7019,4.7231,4.7324,4.7324,4.7501,4.8053,4.8679,4.9021,4.9518,5.0878,5.1375,5.1455,5.1537,5.1593,5.1683,5.1707,5.1759,5.209,5.2701,5.2897,5.3377,5.451,5.4737,5.4878,5.5383,5.5496,5.5468,5.5299,5.5383,5.5046,5.4625,5.4484,5.4681,5.4934,5.4795,5.4512,5.4428,5.44,5.395,5.2939,5.322,5.322,5.3388,5.3782,5.4625,5.4736,5.5014,5.4862,5.4469,5.4019,5.3866,5.347,5.2799,5.2121,5.1747,5.1309,5.0804,5.0614,5.0931,5.0867,5.0867,5.112,5.1434,5.1596,5.1783,5.2218,5.2834,5.3504,5.4259,5.5088,5.5991,5.668,5.7303,5.7807,5.836,4.0236,4.11,4.1591,4.187,4.1934,4.2212,4.2275,4.2275,4.2275,4.2275,4.2275,4.2275,4.2275,4.2275,4.2275,4.2275,4.2275,4.2275,4.2275,4.2339,4.2402,4.3263,4.4422,4.4976,4.5611,4.612,4.6326,4.6326,4.6301,4.6361,4.6446,4.6421,4.6541,4.6661,4.684,4.69,4.6993,4.7087,4.7146,4.6993,4.678,4.678,4.69,4.69,4.729,4.8178,4.916,4.9595,5.0121,5.0615,5.0546,5.0463,5.0685,5.0958,5.1197,5.1298,5.1595,5.2205,5.3107,5.333,5.3902,5.4898,5.4984,5.5355,5.544,5.5381,5.5157,5.4934,5.4765,5.4512,5.4063,5.3894,5.4007,5.4119,5.4007,5.3584,5.3079,5.3079,5.3079,5.2883,5.2911,5.322,5.4007,5.4203,5.4708,5.5129,5.5035,5.4911,5.4323,5.3549,5.3302,5.3032,5.2218,5.1471,5.1346,5.0931,5.0487,5.0295,5.055,5.0677,5.0677,5.0827,5.1153,5.1455,5.1747,5.2342,5.3093,5.3877,5.4654,5.5442,5.6222,5.6964,5.7584,5.8029,5.836,3.943,4.0366,4.1035,4.1486,4.1806,4.1998,4.2125,4.2275,4.2275,4.2275,4.2275,4.2275,4.2275,4.2275,4.2275,4.2275,4.2275,4.2275,4.2275,4.2275,4.2339,4.2886,4.3639,4.4299,4.4915,4.6059,4.6326,4.6326,4.6326,4.6326,4.6326,4.6326,4.6326,4.6446,4.6566,4.6566,4.6601,4.6695,4.6755,4.6721,4.6601,4.6541,4.6541,4.6626,4.6959,4.7645,4.8695,4.8991,4.9729,5.0251,4.9958,4.9876,5.0648,5.1075,5.1278,5.1363,5.1519,5.2122,5.2854,5.3163,5.3452,5.4291,5.4422,5.4315,5.4235,5.4182,5.4167,5.403,5.389,5.3808,5.3697,5.3332,5.3332,5.3557,5.3276,5.2799,5.2547,5.2799,5.2939,5.2855,5.3192,5.3838,5.4372,5.4397,5.4338,5.456,5.4121,5.3909,5.3243,5.2587,5.252,5.2138,5.1304,5.0842,5.0778,5.0525,5.0104,5.004,5.0232,5.0295,5.0295,5.0587,5.0883,5.1273,5.1759,5.2722,5.3571,5.4311,5.5068,5.5906,5.668,5.7416,5.7974,5.839,5.8719,3.8705,3.9713,4.0517,4.1164,4.1614,4.1742,4.1934,4.2212,4.2275,4.2275,4.2275,4.2275,4.2275,4.2275,4.2275,4.2275,4.2275,4.2275,4.2275,4.2275,4.2275,4.2759,4.3349,4.3859,4.4677,4.6124,4.6234,4.6295,4.6416,4.6426,4.6451,4.6351,4.6326,4.6326,4.6301,4.6301,4.6361,4.6361,4.6421,4.6361,4.6386,4.6361,4.6361,4.6601,4.6541,4.7172,4.814,4.8536,4.8996,5.0315,4.9427,4.9813,5.0719,5.1164,5.118,5.1062,5.0914,5.144,5.2021,5.2261,5.2498,5.2937,5.3125,5.307,5.2907,5.2986,5.2978,5.2933,5.288,5.2825,5.3163,5.2659,5.2687,5.2855,5.2463,5.2156,5.2212,5.2855,5.2799,5.2826,5.2966,5.3442,5.3889,5.4083,5.3995,5.3821,5.341,5.2998,5.2333,5.193,5.2021,5.1804,5.1116,5.0397,5.027,5.027,4.9847,4.9912,5.004,5.0232,5.0219,5.0525,5.0874,5.1303,5.1907,5.2794,5.3854,5.4725,5.5563,5.6451,5.7191,5.7863,5.836,5.8773,5.8907,3.8594,3.9341,4.0388,4.0906,4.1035,4.155,4.1742,4.1934,4.2084,4.2275,4.2275,4.2275,4.2275,4.2275,4.2275,4.2275,4.2275,4.2275,4.2275,4.2275,4.2339,4.2633,4.3184,4.386,4.5039,4.5908,4.6155,4.6402,4.6856,4.6918,4.6728,4.6426,4.6326,4.6326,4.6326,4.6326,4.6326,4.6326,4.6326,4.6326,4.6326,4.6301,4.6481,4.6815,4.6661,4.7282,4.8186,4.8675,4.8996,4.9317,4.9501,4.9576,4.9559,4.9179,4.8902,4.9162,4.9576,5.0315,5.1014,5.1154,5.1672,5.2367,5.2585,5.2628,5.2571,5.2598,5.2229,5.2008,5.168,5.1405,5.1377,5.1433,5.1294,5.1377,5.1349,5.1155,5.1153,5.154,5.2376,5.2599,5.2683,5.2794,5.3323,5.3546,5.3234,5.3085,5.2783,5.2865,5.2779,5.2239,5.1945,5.1616,5.1194,5.0461,4.9847,4.9783,4.9654,4.9847,5.004,5.0423,5.0521,5.0612,5.0922,5.1186,5.175,5.2566,5.3699,5.4935,5.6051,5.6905,5.7637,5.836,5.8664,5.8991,5.8901,3.7996,3.8726,3.9604,4.0062,4.0236,4.056,4.069,4.0819,4.1293,4.1614,4.1829,4.2148,4.2275,4.2275,4.2275,4.2275,4.2275,4.2275,4.2275,4.2275,4.2339,4.2402,4.2846,4.3505,4.4223,4.5029,4.5736,4.6573,4.7357,4.7168,4.7029,4.6753,4.6476,4.6326,4.6326,4.6326,4.6326,4.6326,4.6326,4.6326,4.6326,4.6326,4.6541,4.6601,4.6686,4.7087,4.7846,4.8205,4.8687,4.9169,4.9006,4.8945,4.8711,4.8074,4.7647,4.8426,4.8999,4.9559,5.0204,5.0473,5.0924,5.1205,5.1361,5.1294,5.1262,5.1063,5.1213,5.1126,5.1181,5.0906,5.0961,5.085,5.0906,5.0906,5.0767,5.0654,5.0597,5.0788,5.1452,5.2258,5.251,5.2621,5.2872,5.2869,5.2476,5.224,5.219,5.2498,5.29,5.246,5.1882,5.1252,5.0839,5.0334,4.9719,4.9654,4.9654,4.9847,5.0168,5.0525,5.0798,5.0953,5.0835,5.0816,5.1534,5.2397,5.3744,5.5055,5.6219,5.7382,5.8136,5.8689,5.8936,5.9069,5.8979,3.7394,3.7996,3.8681,3.9123,3.9386,3.9451,3.9517,3.9648,4.0431,4.0971,4.1293,4.1956,4.2275,4.2275,4.2275,4.2275,4.2275,4.2275,4.2275,4.2275,4.2275,4.2339,4.2362,4.2691,4.3432,4.4468,4.5494,4.6587,4.7396,4.7583,4.7431,4.7054,4.6627,4.6401,4.6351,4.6326,4.6326,4.6326,4.6326,4.6326,4.6326,4.6326,4.6326,4.6326,4.6326,4.6683,4.7237,4.7733,4.817,4.8566,4.8445,4.8151,4.8615,4.743,4.7283,4.8549,4.907,4.9274,4.9657,4.9887,5.0079,5.027,5.0115,5.0002,4.9915,5.007,5.0009,5.0211,5.0306,5.0404,5.0375,5.0653,5.0652,5.0677,5.0617,5.0558,5.0525,5.0604,5.0685,5.138,5.1969,5.2278,5.2333,5.2139,5.1689,5.196,5.1909,5.2343,5.2593,5.2318,5.1731,5.096,5.0395,5.0028,4.9719,4.959,4.9719,4.9847,5.0359,5.0867,5.1075,5.1294,5.1205,5.123,5.135,5.2278,5.3725,5.5082,5.6187,5.7263,5.8381,5.8936,5.9045,5.9009,5.8919,3.7146,3.728,3.7929,3.8242,3.8308,3.866,3.8814,3.8946,4.0105,4.0777,4.0777,4.1806,4.2212,4.2212,4.2212,4.2275,4.2275,4.2275,4.2275,4.2275,4.2275,4.2275,4.2471,4.3525,4.3548,4.4189,4.539,4.6333,4.7079,4.792,4.8008,4.7319,4.7129,4.6853,4.6577,4.6577,4.6326,4.6326,4.6326,4.6326,4.6326,4.6326,4.6326,4.6326,4.6326,4.6351,4.6733,4.7339,4.7911,4.7597,4.7937,4.7993,4.7954,4.7442,4.7405,4.7668,4.7806,4.7881,4.8775,4.9216,4.9469,4.9643,4.9721,4.9673,4.9728,4.9637,4.9594,4.9561,4.9556,4.9572,4.9794,4.9894,5.0024,5.0354,5.06,5.0698,5.0687,5.0632,5.0712,5.069,5.1305,5.1459,5.152,5.1241,5.1017,5.1367,5.1774,5.2203,5.2458,5.2181,5.1408,5.0624,5.0421,5.0092,4.9847,4.9719,4.9847,4.9976,5.0614,5.122,5.1377,5.1663,5.2138,5.216,5.2096,5.2398,5.381,5.5054,5.6102,5.726,5.8411,5.8882,5.9045,5.8979,5.886,3.6742,3.7146,3.7415,3.7528,3.7528,3.775,3.7662,3.7729,3.8705,3.9386,3.9844,4.1164,4.1765,4.1701,4.1765,4.1701,4.1829,4.2084,4.2275,4.2275,4.2275,4.2275,4.2385,4.2801,4.3107,4.3659,4.4944,4.6014,4.6709,4.7315,4.7707,4.8083,4.7732,4.7506,4.7129,4.7205,4.7029,4.6803,4.6502,4.6326,4.6326,4.6326,4.6326,4.6326,4.6351,4.6351,4.6537,4.701,4.741,4.7205,4.7662,4.8143,4.8171,4.7983,4.7908,4.8761,4.8385,4.836,4.88,4.9038,4.9339,4.949,4.959,4.9632,4.9672,4.9651,4.9654,4.9637,4.9429,4.9467,4.9605,4.9887,5.0132,5.0398,5.0651,5.0764,5.0871,5.0797,5.0756,5.0682,5.0661,5.0896,5.1049,5.0833,5.0883,5.1373,5.1836,5.2269,5.25,5.2486,5.1429,5.0142,5.0155,5.027,5.0104,4.9912,5.0053,5.0308,5.1068,5.157,5.1695,5.2042,5.2447,5.2832,5.2811,5.3345,5.4232,5.5195,5.6326,5.7426,5.85,5.8773,5.8991,5.9039,5.871,3.6355,3.6924,3.6876,3.6809,3.6809,3.6809,3.6674,3.6519,3.7575,3.8196,3.8793,4.0105,4.0906,4.0906,4.0971,4.1035,4.1035,4.1765,4.202,4.2084,4.2212,4.2275,4.2339,4.2362,4.2362,4.2339,4.3857,4.5231,4.6054,4.6621,4.7414,4.8736,4.8309,4.8008,4.7908,4.7782,4.7606,4.733,4.7004,4.6828,4.6803,4.6778,4.6778,4.6753,4.6702,4.6702,4.6803,4.7305,4.7581,4.7707,4.7933,4.8448,4.8786,4.851,4.856,4.9163,4.9038,4.8937,4.9113,4.9314,4.9565,4.959,4.959,4.9565,4.9568,4.9691,4.9661,4.9526,4.9334,4.9523,4.9835,4.9943,5.0266,5.0564,5.0862,5.0922,5.0982,5.1001,5.1009,5.091,5.089,5.0917,5.091,5.0628,5.0794,5.1341,5.1863,5.2359,5.2447,5.2532,5.1688,5.0372,5.0423,5.0511,5.018,5.0104,5.0282,5.0713,5.1465,5.2103,5.235,5.2447,5.2742,5.3043,5.348,5.433,5.5253,5.5934,5.6604,5.7596,5.8445,5.8664,5.8852,5.8901,5.8656,3.62,3.6519,3.62,3.6084,3.6084,3.6084,3.6084,3.6152,3.7193,3.7642,3.7975,3.9057,3.9713,3.9844,4.0105,4.0257,4.0323,4.1035,4.1293,4.1637,4.1956,4.2212,4.2212,4.2212,4.2339,4.2339,4.3304,4.4411,4.559,4.6351,4.7386,4.8471,4.8736,4.8385,4.8184,4.8109,4.8033,4.7832,4.7631,4.7606,4.7631,4.7631,4.7657,4.7682,4.7732,4.7807,4.7807,4.8209,4.846,4.846,4.8611,4.8862,4.9188,4.8937,4.9113,4.9364,4.9515,4.9389,4.9464,4.949,4.9565,4.959,4.959,4.959,4.9604,4.9406,4.9317,4.933,4.923,4.9209,4.9461,4.9677,5.0236,5.0743,5.1075,5.1268,5.1382,5.1425,5.132,5.1241,5.1197,5.1197,5.1012,5.0763,5.0658,5.115,5.1656,5.2064,5.2162,5.2156,5.1838,5.1105,5.1031,5.0787,5.026,5.0348,5.0805,5.1266,5.1856,5.262,5.3207,5.3241,5.3423,5.3969,5.4574,5.5445,5.6079,5.6476,5.695,5.7742,5.8305,5.8664,5.8703,5.8686,5.853,3.6539,3.6789,3.6219,3.6035,3.6035,3.6035,3.6035,3.6084,3.6654,3.7307,3.7842,3.8063,3.8329,3.8705,3.9057,3.9276,3.9473,4.0777,4.0841,4.1164,4.1614,4.1956,4.1956,4.202,4.2275,4.2471,4.302,4.4189,4.5862,4.6399,4.7844,4.8857,4.9099,4.9188,4.8937,4.8586,4.846,4.8335,4.8109,4.7933,4.7908,4.7908,4.7908,4.7908,4.7908,4.7908,4.7983,4.8485,4.8686,4.8862,4.9088,4.9339,4.954,4.9314,4.9364,4.9565,4.959,4.959,4.959,4.959,4.959,4.959,4.959,4.959,4.959,4.9492,4.9481,4.9368,4.9204,4.9226,4.9948,5.0183,5.0442,5.0992,5.1288,5.157,5.1596,5.1596,5.1544,5.1425,5.139,5.1469,5.1232,5.097,5.0872,5.0843,5.1322,5.1743,5.1732,5.1725,5.139,5.108,5.0919,5.0665,5.0136,5.0663,5.1391,5.1862,5.2292,5.3185,5.3997,5.4318,5.4529,5.5088,5.5498,5.6107,5.6565,5.6846,5.7297,5.7889,5.8335,5.8664,5.8644,5.8507,5.8441,3.6773,3.6809,3.6287,3.6035,3.6035,3.6035,3.6035,3.6016,3.6268,3.6722,3.7461,3.7059,3.7126,3.7662,3.7996,3.8283,3.8747,3.967,4.0062,4.0517,4.11,4.1421,4.1421,4.155,4.1956,4.2239,4.2852,4.3846,4.5302,4.6311,4.7415,4.8372,4.9107,4.9057,4.9439,4.9264,4.9012,4.8887,4.8686,4.841,4.846,4.846,4.8485,4.851,4.8535,4.8535,4.8611,4.8912,4.9038,4.9188,4.9339,4.954,4.959,4.959,4.959,4.959,4.959,4.959,4.959,4.959,4.959,4.959,4.959,4.959,4.959,4.959,4.9579,4.9579,4.9469,4.9609,5.0397,5.0432,5.0617,5.109,5.1367,5.1596,5.1596,5.1596,5.1596,5.1554,5.1544,5.158,5.1345,5.1031,5.0716,5.0609,5.0582,5.0895,5.0967,5.097,5.0926,5.0681,5.0461,5.0156,4.9887,5.0664,5.1436,5.236,5.2916,5.3996,5.4686,5.5032,5.5264,5.5526,5.5991,5.6623,5.6907,5.7131,5.744,5.7863,5.839,5.8882,5.8877,5.88,5.868,3.6964,3.6471,3.6152,3.6035,3.6035,3.6035,3.6035,3.6035,3.6016,3.6152,3.6287,3.6403,3.6519,3.6722,3.7146,3.7415,3.775,3.8549,3.9012,3.9473,4.0366,4.0712,4.0712,4.0841,4.1229,4.1315,4.1836,4.2816,4.4347,4.4768,4.5974,4.7577,4.8397,4.8764,4.9565,4.959,4.9565,4.954,4.9464,4.9389,4.9339,4.9314,4.9289,4.9289,4.9264,4.9238,4.9264,4.9314,4.9414,4.9464,4.9515,4.959,4.959,4.959,4.959,4.959,4.959,4.959,4.959,4.959,4.959,4.959,4.959,4.959,4.959,4.959,4.959,4.959,4.9554,4.9746,5.0104,5.0397,5.0689,5.1131,5.1471,5.1471,5.1471,5.1596,5.1596,5.1534,5.1534,5.1544,5.1361,5.1135,5.0682,5.0375,5.0097,5.0131,5.033,5.0506,5.0629,5.0245,5.0002,5.0002,4.9967,5.0698,5.1465,5.2459,5.3685,5.4962,5.5474,5.5644,5.5847,5.5991,5.6337,5.6851,5.7078,5.7274,5.7696,5.8114,5.8664,5.9045,5.9069,5.9039,5.889,3.6861,3.6451,3.6152,3.6035,3.6035,3.6035,3.6035,3.6035,3.6035,3.6035,3.6016,3.6132,3.6132,3.6287,3.6539,3.6789,3.7059,3.7863,3.8395,3.8283,3.9451,3.9648,3.9735,3.991,4.0301,4.0647,4.108,4.1862,4.3461,4.3735,4.5526,4.7326,4.8283,4.9196,4.9475,4.959,4.959,4.959,4.959,4.959,4.959,4.959,4.959,4.959,4.959,4.959,4.959,4.959,4.959,4.959,4.959,4.959,4.959,4.959,4.959,4.959,4.959,4.959,4.959,4.959,4.959,4.959,4.959,4.959,4.959,4.959,4.959,4.959,4.959,4.9847,5.0334,5.0232,5.0525,5.122,5.1471,5.1309,5.1246,5.1471,5.1534,5.1408,5.1346,5.1325,5.1178,5.0959,5.0612,5.0332,5.0088,4.9905,4.9966,5.0359,5.0533,4.9931,4.9662,4.974,5.0093,5.1174,5.2158,5.3226,5.4769,5.6365,5.6651,5.6366,5.6509,5.668,5.6908,5.7078,5.7247,5.7472,5.7918,5.839,5.8828,5.9045,5.9099,5.9099,5.9069,3.7268,3.6789,3.6534,3.6367,3.623,3.6094,3.6035,3.6035,3.6035,3.6035,3.6016,3.6035,3.6035,3.6084,3.62,3.6451,3.6586,3.7106,3.7662,3.7549,3.8374,3.8594,3.866,3.8925,3.9188,3.9648,4.0149,4.1019,4.2214,4.2862,4.4576,4.6697,4.8397,4.8992,4.9361,4.959,4.959,4.959,4.959,4.959,4.959,4.959,4.959,4.959,4.959,4.959,4.959,4.959,4.959,4.959,4.959,4.959,4.959,4.959,4.959,4.959,4.959,4.959,4.959,4.959,4.959,4.959,4.959,4.959,4.959,4.959,4.959,4.959,4.959,4.9912,5.0232,5.0129,5.0423,5.1094,5.1283,5.112,5.1183,5.1346,5.1471,5.1283,5.132,5.1184,5.1047,5.0777,5.0454,5.028,5.0106,4.9897,4.9688,4.9976,5.0324,4.9973,4.9771,5.0074,5.0877,5.2122,5.3103,5.3995,5.5538,5.7218,5.7247,5.6908,5.7134,5.7303,5.7247,5.7191,5.736,5.764,5.8029,5.8445,5.8773,5.8991,5.9099,5.9099,5.9099,3.7987,3.7375,3.7285,3.7031,3.666,3.6309,3.6113,3.6074,3.6074,3.6055,3.6035,3.6055,3.6074,3.6035,3.6016,3.62,3.6384,3.6519,3.6789,3.7079,3.7662,3.7528,3.7595,3.7796,3.8129,3.8262,3.8793,3.9801,4.0734,4.2207,4.3893,4.5686,4.7375,4.8372,4.9017,4.9475,4.95,4.959,4.959,4.959,4.959,4.959,4.959,4.959,4.959,4.959,4.959,4.959,4.959,4.959,4.959,4.959,4.959,4.959,4.959,4.959,4.959,4.959,4.959,4.959,4.959,4.959,4.959,4.959,4.959,4.959,4.959,4.959,4.959,4.9808,5.0065,5.0168,5.0295,5.0741,5.0994,5.0994,5.1057,5.1183,5.122,5.1283,5.1346,5.1315,5.1168,5.0933,5.0383,5.0132,4.9907,4.9594,4.9471,4.9479,4.9835,5.0108,5.0122,5.0539,5.1605,5.3045,5.3932,5.4793,5.5909,5.7303,5.7303,5.7303,5.7303,5.7303,5.7303,5.736,5.736,5.764,5.8029,5.8415,5.8719,5.8936,5.9045,5.9099,5.9099,3.8197,3.7375,3.7586,3.7507,3.7109,3.6973,3.6758,3.6504,3.6484,3.6348,3.6035,3.6348,3.6309,3.6035,3.6035,3.6084,3.6152,3.62,3.6384,3.6654,3.6809,3.6876,3.6944,3.7059,3.7193,3.7528,3.8063,3.8793,4.0323,4.1733,4.3229,4.4856,4.6673,4.7804,4.8511,4.9132,4.945,4.959,4.959,4.959,4.959,4.959,4.959,4.959,4.959,4.959,4.959,4.959,4.959,4.959,4.959,4.959,4.959,4.959,4.959,4.959,4.959,4.959,4.959,4.959,4.959,4.959,4.959,4.959,4.959,4.959,4.959,4.959,4.959,4.9783,4.9873,4.9976,5.0232,5.0614,5.0741,5.0677,5.0804,5.1057,5.112,5.112,5.1157,5.1242,5.1096,5.0747,5.026,4.9984,4.9759,4.9473,4.9429,4.9602,4.9756,5.0108,5.0883,5.1409,5.2611,5.3993,5.4764,5.5651,5.665,5.7303,5.7303,5.7303,5.7303,5.7303,5.7303,5.7303,5.7303,5.764,5.8029,5.828,5.8555,5.8828,5.9021,5.9045,5.9099,3.8648,3.8169,3.8311,3.8169,3.7825,3.7441,3.7207,3.7129,3.7012,3.6758,3.6543,3.6621,3.6523,3.6289,3.6133,3.6035,3.6016,3.6016,3.6132,3.62,3.6084,3.6287,3.6471,3.6471,3.6471,3.6809,3.726,3.7909,3.9384,4.1323,4.2926,4.3788,4.5942,4.7124,4.8031,4.8968,4.95,4.959,4.959,4.959,4.959,4.959,4.959,4.959,4.959,4.959,4.959,4.959,4.959,4.959,4.959,4.959,4.959,4.959,4.959,4.959,4.959,4.959,4.959,4.959,4.959,4.959,4.959,4.959,4.959,4.959,4.959,4.959,4.959,4.9654,4.9719,4.9783,5.0168,5.055,5.0423,5.0232,5.0487,5.0867,5.0931,5.0867,5.0916,5.0939,5.0794,5.0447,5.0292,5.0276,5.0182,4.9923,5.0019,5.0245,5.035,5.0567,5.153,5.2485,5.3779,5.4851,5.5565,5.6194,5.6792,5.7303,5.7303,5.7303,5.7303,5.7303,5.7303,5.7303,5.7303,5.7613,5.7948,5.8199,5.8589,5.8862,5.908,5.9099,5.9099,3.9129,3.9089,3.9116,3.8839,3.853,3.7754,3.7637,3.791,3.7578,3.7344,3.7207,3.6934,3.6816,3.666,3.6367,3.6172,3.6133,3.6094,3.6016,3.6016,3.6016,3.6084,3.6084,3.6035,3.6152,3.6152,3.6471,3.7173,3.8109,3.98,4.1519,4.2529,4.446,4.5878,4.7093,4.8318,4.8963,4.9357,4.9357,4.9421,4.9525,4.959,4.959,4.959,4.959,4.959,4.959,4.959,4.959,4.959,4.959,4.959,4.959,4.959,4.959,4.959,4.959,4.959,4.959,4.959,4.959,4.959,4.959,4.959,4.959,4.959,4.959,4.959,4.959,4.959,4.9654,4.9654,4.9976,5.0168,5.0168,5.0104,5.0295,5.0614,5.0741,5.0741,5.0778,5.0776,5.068,5.0395,5.0256,5.0436,5.0545,5.0286,5.0607,5.0923,5.14,5.1626,5.301,5.4098,5.4811,5.5793,5.6337,5.6879,5.7249,5.7247,5.7303,5.7303,5.7303,5.7303,5.7303,5.7303,5.736,5.7669,5.8036,5.849,5.8796,5.9011,5.9145,5.9428,5.9219,3.9141,3.8577,3.8612,3.8623,3.8608,3.8359,3.8301,3.8418,3.832,3.7891,3.7422,3.748,3.7422,3.709,3.6699,3.6523,3.6465,3.623,3.6055,3.6055,3.6074,3.6074,3.6035,3.6055,3.6035,3.6035,3.6219,3.6586,3.7575,3.8859,4.0018,4.0846,4.2639,4.4207,4.5892,4.707,4.8003,4.8853,4.8967,4.9162,4.9461,4.9525,4.959,4.959,4.959,4.959,4.959,4.959,4.959,4.959,4.959,4.959,4.959,4.959,4.959,4.959,4.959,4.959,4.959,4.959,4.959,4.959,4.959,4.959,4.959,4.959,4.959,4.959,4.959,4.959,4.959,4.9654,4.9654,4.9783,4.9912,5.0001,5.0065,5.0295,5.055,5.0677,5.0677,5.0624,5.0529,5.0436,5.0271,5.0369,5.0591,5.0829,5.1377,5.1888,5.3044,5.3652,5.5095,5.6122,5.6419,5.6766,5.7283,5.7368,5.7595,5.7536,5.7419,5.7594,5.7768,5.7448,5.7303,5.7565,5.7765,5.7895,5.8291,5.884,5.927,5.9606,6.007,6.0416,5.9847,3.91,3.8698,3.8549,3.8577,3.8627,3.8574,3.8574,3.8574,3.8574,3.832,3.7891,3.7891,3.7793,3.7519,3.7148,3.6953,3.6875,3.6504,3.6562,3.6523,3.623,3.6211,3.6172,3.6133,3.6035,3.6035,3.6016,3.6403,3.7059,3.7909,3.8859,3.9734,4.111,4.2889,4.4724,4.6066,4.7182,4.8551,4.851,4.8747,4.9137,4.9267,4.9332,4.9396,4.9525,4.9525,4.959,4.959,4.959,4.959,4.959,4.959,4.959,4.959,4.959,4.959,4.959,4.959,4.959,4.959,4.959,4.959,4.959,4.959,4.959,4.959,4.959,4.959,4.959,4.959,4.959,4.959,4.9654,4.9719,4.9783,4.9783,4.9847,5.004,5.0232,5.0385,5.0436,5.0512,5.0473,5.0561,5.0523,5.0909,5.1085,5.095,5.1632,5.3048,5.4236,5.5386,5.6651,5.7267,5.7243,5.7655,5.8263,5.8233,5.8029,5.8232,5.8348,5.829,5.8232,5.8087,5.8087,5.8319,5.849,5.8454,5.8911,5.9465,5.9895,6.0205,6.0816,6.1283,6.0775,3.8958,3.8948,3.8682,3.8608,3.8574,3.8574,3.8574,3.8574,3.8574,3.8574,3.8476,3.8144,3.8027,3.7871,3.7578,3.7461,3.7246,3.6914,3.7012,3.6953,3.6543,3.6484,3.6426,3.6328,3.6172,3.6055,3.6035,3.6016,3.6219,3.7059,3.7883,3.8832,4.0518,4.2497,4.4244,4.5473,4.6407,4.7479,4.7911,4.8174,4.8526,4.8837,4.8942,4.9137,4.9332,4.9525,4.9525,4.959,4.959,4.959,4.959,4.959,4.959,4.959,4.959,4.959,4.959,4.959,4.959,4.959,4.959,4.959,4.959,4.959,4.959,4.959,4.959,4.959,4.959,4.959,4.959,4.959,4.959,4.959,4.9654,4.9719,4.9783,4.9808,4.9962,5.018,5.0357,5.051,5.0613,5.0704,5.0946,5.1416,5.1558,5.1356,5.1832,5.3903,5.5552,5.6581,5.7652,5.8008,5.8104,5.846,5.9016,5.89,5.8755,5.9074,5.9219,5.8929,5.8842,5.9045,5.9074,5.9016,5.9132,5.913,5.9623,6.0202,6.0546,6.0889,6.1503,6.1852,6.1642,3.8485,3.8593,3.8549,3.855,3.8627,3.8574,3.8574,3.8574,3.8574,3.8574,3.8555,3.8535,3.8457,3.8418,3.7988,3.7793,3.7734,3.7383,3.7226,3.7168,3.7012,3.6875,3.668,3.6445,3.6309,3.6152,3.6035,3.6035,3.6055,3.6307,3.6742,3.7636,3.8356,4.0124,4.1791,4.3175,4.4428,4.5782,4.6656,4.6873,4.7755,4.8133,4.8641,4.8837,4.9032,4.9137,4.9267,4.9461,4.9525,4.959,4.959,4.959,4.959,4.959,4.959,4.959,4.959,4.959,4.959,4.959,4.959,4.959,4.959,4.959,4.959,4.959,4.959,4.959,4.959,4.959,4.959,4.959,4.959,4.959,4.959,4.9783,4.9847,4.9909,5.001,5.0276,5.0594,5.072,5.0952,5.1082,5.1209,5.1656,5.2035,5.1883,5.1743,5.407,5.6548,5.7372,5.8217,5.9092,5.9275,5.9158,5.9451,5.9393,5.9422,5.9655,5.9655,5.9335,5.9335,5.9684,5.9626,5.9452,5.9597,5.9888,6.0354,6.0876,6.1195,6.163,6.2216,6.248,6.2271]}]]